<?xml version="1.0" encoding="UTF-8"?>
<gpx version="1.0" creator="GPSBabel - https://www.gpsbabel.org" xmlns="http://www.topografix.com/GPX/1/0">
  <time>2021-12-07T02:34:42.661Z</time>
  <bounds minlat="35.076333000" minlon="-106.444709000" maxlat="35.097855000" maxlon="-106.439675000"/>
  <trk>
    <name>Three Gun Springs.pat.2017-03-30 16:16:56</name>
    <desc>&lt;table&gt;
            &lt;tr&gt;&lt;td&gt;&lt;b&gt;Distance&lt;/b&gt; 3.6 mi &lt;/td&gt;&lt;/tr&gt;
            &lt;tr&gt;&lt;td&gt;&lt;b&gt;Min Alt&lt;/b&gt; 6227.034 ft &lt;/td&gt;&lt;/tr&gt;
            &lt;tr&gt;&lt;td&gt;&lt;b&gt;Max Alt&lt;/b&gt; 7175.197 ft &lt;/td&gt;&lt;/tr&gt;
            &lt;tr&gt;&lt;td&gt;&lt;b&gt;Max Speed&lt;/b&gt; 6.3 mph &lt;/td&gt;&lt;/tr&gt;
            &lt;tr&gt;&lt;td&gt;&lt;b&gt;Avg Speed&lt;/b&gt; 1.2 mph &lt;/td&gt;&lt;/tr&gt;
            &lt;tr&gt;&lt;td&gt;&lt;b&gt;Start Time&lt;/b&gt; 2017-03-30T19:16:52Z  &lt;/td&gt;&lt;/tr&gt;
            &lt;tr&gt;&lt;td&gt;&lt;b&gt;End Time&lt;/b&gt; 2017-03-30T22:17:21Z  &lt;/td&gt;&lt;/tr&gt;
          &lt;/table&gt;</desc>
    <trkseg>
      <trkpt lat="35.076414000" lon="-106.444022000">
        <ele>1902.000</ele>
        <time>2017-03-30T19:16:52Z</time>
        <name>WPT</name>
      </trkpt>
      <trkpt lat="35.076379000" lon="-106.444035000">
        <ele>1898.000</ele>
        <time>2017-03-30T19:16:58Z</time>
        <name>WPT.1</name>
      </trkpt>
      <trkpt lat="35.076347000" lon="-106.444013000">
        <ele>1909.000</ele>
        <time>2017-03-30T19:17:34Z</time>
        <name>WPT.2</name>
      </trkpt>
      <trkpt lat="35.076333000" lon="-106.444055000">
        <ele>1903.000</ele>
        <time>2017-03-30T19:18:06Z</time>
        <name>WPT.3</name>
      </trkpt>
      <trkpt lat="35.076349000" lon="-106.444098000">
        <ele>1905.000</ele>
        <time>2017-03-30T19:19:25Z</time>
        <name>WPT.4</name>
      </trkpt>
      <trkpt lat="35.076366000" lon="-106.444145000">
        <ele>1904.000</ele>
        <time>2017-03-30T19:19:46Z</time>
        <name>WPT.5</name>
      </trkpt>
      <trkpt lat="35.076402000" lon="-106.444137000">
        <ele>1907.000</ele>
        <time>2017-03-30T19:19:56Z</time>
        <name>WPT.6</name>
      </trkpt>
      <trkpt lat="35.076438000" lon="-106.444161000">
        <ele>1908.000</ele>
        <time>2017-03-30T19:20:13Z</time>
        <name>WPT.7</name>
      </trkpt>
      <trkpt lat="35.076453000" lon="-106.444207000">
        <ele>1908.000</ele>
        <time>2017-03-30T19:20:27Z</time>
        <name>WPT.8</name>
      </trkpt>
      <trkpt lat="35.076472000" lon="-106.444250000">
        <ele>1907.000</ele>
        <time>2017-03-30T19:20:32Z</time>
        <name>WPT.9</name>
      </trkpt>
      <trkpt lat="35.076510000" lon="-106.444245000">
        <ele>1907.000</ele>
        <time>2017-03-30T19:20:37Z</time>
        <name>WPT.10</name>
      </trkpt>
      <trkpt lat="35.076550000" lon="-106.444237000">
        <ele>1909.000</ele>
        <time>2017-03-30T19:20:42Z</time>
        <name>WPT.11</name>
      </trkpt>
      <trkpt lat="35.076589000" lon="-106.444242000">
        <ele>1907.000</ele>
        <time>2017-03-30T19:20:46Z</time>
        <name>WPT.12</name>
      </trkpt>
      <trkpt lat="35.076633000" lon="-106.444245000">
        <ele>1908.000</ele>
        <time>2017-03-30T19:20:50Z</time>
        <name>WPT.13</name>
      </trkpt>
      <trkpt lat="35.076671000" lon="-106.444241000">
        <ele>1908.000</ele>
        <time>2017-03-30T19:20:54Z</time>
        <name>WPT.14</name>
      </trkpt>
      <trkpt lat="35.076708000" lon="-106.444234000">
        <ele>1907.000</ele>
        <time>2017-03-30T19:20:59Z</time>
        <name>WPT.15</name>
      </trkpt>
      <trkpt lat="35.076749000" lon="-106.444237000">
        <ele>1908.000</ele>
        <time>2017-03-30T19:21:04Z</time>
        <name>WPT.16</name>
      </trkpt>
      <trkpt lat="35.076789000" lon="-106.444236000">
        <ele>1908.000</ele>
        <time>2017-03-30T19:21:08Z</time>
        <name>WPT.17</name>
      </trkpt>
      <trkpt lat="35.076829000" lon="-106.444243000">
        <ele>1910.000</ele>
        <time>2017-03-30T19:21:13Z</time>
        <name>WPT.18</name>
      </trkpt>
      <trkpt lat="35.076867000" lon="-106.444217000">
        <ele>1909.000</ele>
        <time>2017-03-30T19:21:18Z</time>
        <name>WPT.19</name>
      </trkpt>
      <trkpt lat="35.076897000" lon="-106.444188000">
        <ele>1905.000</ele>
        <time>2017-03-30T19:21:28Z</time>
        <name>WPT.20</name>
      </trkpt>
      <trkpt lat="35.076908000" lon="-106.444233000">
        <ele>1906.000</ele>
        <time>2017-03-30T19:21:39Z</time>
        <name>WPT.21</name>
      </trkpt>
      <trkpt lat="35.076931000" lon="-106.444268000">
        <ele>1905.000</ele>
        <time>2017-03-30T19:21:43Z</time>
        <name>WPT.22</name>
      </trkpt>
      <trkpt lat="35.076941000" lon="-106.444312000">
        <ele>1905.000</ele>
        <time>2017-03-30T19:21:49Z</time>
        <name>WPT.23</name>
      </trkpt>
      <trkpt lat="35.076983000" lon="-106.444322000">
        <ele>1905.000</ele>
        <time>2017-03-30T19:21:53Z</time>
        <name>WPT.24</name>
      </trkpt>
      <trkpt lat="35.077019000" lon="-106.444345000">
        <ele>1906.000</ele>
        <time>2017-03-30T19:21:57Z</time>
        <name>WPT.25</name>
      </trkpt>
      <trkpt lat="35.077056000" lon="-106.444370000">
        <ele>1904.000</ele>
        <time>2017-03-30T19:22:02Z</time>
        <name>WPT.26</name>
      </trkpt>
      <trkpt lat="35.077089000" lon="-106.444392000">
        <ele>1905.000</ele>
        <time>2017-03-30T19:22:06Z</time>
        <name>WPT.27</name>
      </trkpt>
      <trkpt lat="35.077119000" lon="-106.444419000">
        <ele>1907.000</ele>
        <time>2017-03-30T19:22:11Z</time>
        <name>WPT.28</name>
      </trkpt>
      <trkpt lat="35.077154000" lon="-106.444435000">
        <ele>1909.000</ele>
        <time>2017-03-30T19:22:15Z</time>
        <name>WPT.29</name>
      </trkpt>
      <trkpt lat="35.077191000" lon="-106.444439000">
        <ele>1910.000</ele>
        <time>2017-03-30T19:22:19Z</time>
        <name>WPT.30</name>
      </trkpt>
      <trkpt lat="35.077231000" lon="-106.444429000">
        <ele>1913.000</ele>
        <time>2017-03-30T19:22:23Z</time>
        <name>WPT.31</name>
      </trkpt>
      <trkpt lat="35.077269000" lon="-106.444389000">
        <ele>1912.000</ele>
        <time>2017-03-30T19:22:28Z</time>
        <name>WPT.32</name>
      </trkpt>
      <trkpt lat="35.077302000" lon="-106.444356000">
        <ele>1909.000</ele>
        <time>2017-03-30T19:22:30Z</time>
        <name>WPT.33</name>
      </trkpt>
      <trkpt lat="35.077344000" lon="-106.444343000">
        <ele>1907.000</ele>
        <time>2017-03-30T19:22:32Z</time>
        <name>WPT.34</name>
      </trkpt>
      <trkpt lat="35.077381000" lon="-106.444347000">
        <ele>1908.000</ele>
        <time>2017-03-30T19:22:35Z</time>
        <name>WPT.35</name>
      </trkpt>
      <trkpt lat="35.077424000" lon="-106.444344000">
        <ele>1909.000</ele>
        <time>2017-03-30T19:22:39Z</time>
        <name>WPT.36</name>
      </trkpt>
      <trkpt lat="35.077442000" lon="-106.444383000">
        <ele>1911.000</ele>
        <time>2017-03-30T19:22:44Z</time>
        <name>WPT.37</name>
      </trkpt>
      <trkpt lat="35.077447000" lon="-106.444433000">
        <ele>1914.000</ele>
        <time>2017-03-30T19:22:50Z</time>
        <name>WPT.38</name>
      </trkpt>
      <trkpt lat="35.077468000" lon="-106.444471000">
        <ele>1916.000</ele>
        <time>2017-03-30T19:22:56Z</time>
        <name>WPT.39</name>
      </trkpt>
      <trkpt lat="35.077503000" lon="-106.444493000">
        <ele>1918.000</ele>
        <time>2017-03-30T19:23:03Z</time>
        <name>WPT.40</name>
      </trkpt>
      <trkpt lat="35.077532000" lon="-106.444526000">
        <ele>1920.000</ele>
        <time>2017-03-30T19:23:12Z</time>
        <name>WPT.41</name>
      </trkpt>
      <trkpt lat="35.077565000" lon="-106.444547000">
        <ele>1921.000</ele>
        <time>2017-03-30T19:23:15Z</time>
        <name>WPT.42</name>
      </trkpt>
      <trkpt lat="35.077597000" lon="-106.444578000">
        <ele>1920.000</ele>
        <time>2017-03-30T19:23:24Z</time>
        <name>WPT.43</name>
      </trkpt>
      <trkpt lat="35.077627000" lon="-106.444612000">
        <ele>1918.000</ele>
        <time>2017-03-30T19:23:27Z</time>
        <name>WPT.44</name>
      </trkpt>
      <trkpt lat="35.077663000" lon="-106.444645000">
        <ele>1917.000</ele>
        <time>2017-03-30T19:23:31Z</time>
        <name>WPT.45</name>
      </trkpt>
      <trkpt lat="35.077702000" lon="-106.444662000">
        <ele>1919.000</ele>
        <time>2017-03-30T19:23:35Z</time>
        <name>WPT.46</name>
      </trkpt>
      <trkpt lat="35.077748000" lon="-106.444666000">
        <ele>1918.000</ele>
        <time>2017-03-30T19:23:41Z</time>
        <name>WPT.47</name>
      </trkpt>
      <trkpt lat="35.077783000" lon="-106.444653000">
        <ele>1919.000</ele>
        <time>2017-03-30T19:23:44Z</time>
        <name>WPT.48</name>
      </trkpt>
      <trkpt lat="35.077821000" lon="-106.444647000">
        <ele>1913.000</ele>
        <time>2017-03-30T19:23:47Z</time>
        <name>WPT.49</name>
      </trkpt>
      <trkpt lat="35.077858000" lon="-106.444663000">
        <ele>1918.000</ele>
        <time>2017-03-30T19:23:51Z</time>
        <name>WPT.50</name>
      </trkpt>
      <trkpt lat="35.077892000" lon="-106.444696000">
        <ele>1924.000</ele>
        <time>2017-03-30T19:23:57Z</time>
        <name>WPT.51</name>
      </trkpt>
      <trkpt lat="35.077928000" lon="-106.444709000">
        <ele>1928.000</ele>
        <time>2017-03-30T19:24:02Z</time>
        <name>WPT.52</name>
      </trkpt>
      <trkpt lat="35.077964000" lon="-106.444696000">
        <ele>1934.000</ele>
        <time>2017-03-30T19:24:08Z</time>
        <name>WPT.53</name>
      </trkpt>
      <trkpt lat="35.078006000" lon="-106.444687000">
        <ele>1936.000</ele>
        <time>2017-03-30T19:24:12Z</time>
        <name>WPT.54</name>
      </trkpt>
      <trkpt lat="35.078045000" lon="-106.444673000">
        <ele>1933.000</ele>
        <time>2017-03-30T19:24:17Z</time>
        <name>WPT.55</name>
      </trkpt>
      <trkpt lat="35.078077000" lon="-106.444652000">
        <ele>1933.000</ele>
        <time>2017-03-30T19:24:41Z</time>
        <name>WPT.56</name>
      </trkpt>
      <trkpt lat="35.078121000" lon="-106.444639000">
        <ele>1930.000</ele>
        <time>2017-03-30T19:25:46Z</time>
        <name>WPT.57</name>
      </trkpt>
      <trkpt lat="35.078161000" lon="-106.444635000">
        <ele>1929.000</ele>
        <time>2017-03-30T19:25:50Z</time>
        <name>WPT.58</name>
      </trkpt>
      <trkpt lat="35.078199000" lon="-106.444629000">
        <ele>1936.000</ele>
        <time>2017-03-30T19:25:55Z</time>
        <name>WPT.59</name>
      </trkpt>
      <trkpt lat="35.078238000" lon="-106.444660000">
        <ele>1938.000</ele>
        <time>2017-03-30T19:26:04Z</time>
        <name>WPT.60</name>
      </trkpt>
      <trkpt lat="35.078277000" lon="-106.444656000">
        <ele>1937.000</ele>
        <time>2017-03-30T19:26:07Z</time>
        <name>WPT.61</name>
      </trkpt>
      <trkpt lat="35.078319000" lon="-106.444648000">
        <ele>1930.000</ele>
        <time>2017-03-30T19:26:11Z</time>
        <name>WPT.62</name>
      </trkpt>
      <trkpt lat="35.078353000" lon="-106.444634000">
        <ele>1924.000</ele>
        <time>2017-03-30T19:26:14Z</time>
        <name>WPT.63</name>
      </trkpt>
      <trkpt lat="35.078396000" lon="-106.444610000">
        <ele>1928.000</ele>
        <time>2017-03-30T19:26:17Z</time>
        <name>WPT.64</name>
      </trkpt>
      <trkpt lat="35.078434000" lon="-106.444595000">
        <ele>1929.000</ele>
        <time>2017-03-30T19:26:20Z</time>
        <name>WPT.65</name>
      </trkpt>
      <trkpt lat="35.078477000" lon="-106.444592000">
        <ele>1932.000</ele>
        <time>2017-03-30T19:26:25Z</time>
        <name>WPT.66</name>
      </trkpt>
      <trkpt lat="35.078522000" lon="-106.444587000">
        <ele>1932.000</ele>
        <time>2017-03-30T19:26:28Z</time>
        <name>WPT.67</name>
      </trkpt>
      <trkpt lat="35.078559000" lon="-106.444581000">
        <ele>1928.000</ele>
        <time>2017-03-30T19:26:31Z</time>
        <name>WPT.68</name>
      </trkpt>
      <trkpt lat="35.078604000" lon="-106.444577000">
        <ele>1925.000</ele>
        <time>2017-03-30T19:26:36Z</time>
        <name>WPT.69</name>
      </trkpt>
      <trkpt lat="35.078647000" lon="-106.444581000">
        <ele>1927.000</ele>
        <time>2017-03-30T19:26:41Z</time>
        <name>WPT.70</name>
      </trkpt>
      <trkpt lat="35.078686000" lon="-106.444591000">
        <ele>1929.000</ele>
        <time>2017-03-30T19:26:46Z</time>
        <name>WPT.71</name>
      </trkpt>
      <trkpt lat="35.078732000" lon="-106.444577000">
        <ele>1927.000</ele>
        <time>2017-03-30T19:26:51Z</time>
        <name>WPT.72</name>
      </trkpt>
      <trkpt lat="35.078768000" lon="-106.444562000">
        <ele>1924.000</ele>
        <time>2017-03-30T19:26:53Z</time>
        <name>WPT.73</name>
      </trkpt>
      <trkpt lat="35.078814000" lon="-106.444551000">
        <ele>1914.000</ele>
        <time>2017-03-30T19:26:56Z</time>
        <name>WPT.74</name>
      </trkpt>
      <trkpt lat="35.078851000" lon="-106.444536000">
        <ele>1920.000</ele>
        <time>2017-03-30T19:27:00Z</time>
        <name>WPT.75</name>
      </trkpt>
      <trkpt lat="35.078886000" lon="-106.444521000">
        <ele>1917.000</ele>
        <time>2017-03-30T19:27:04Z</time>
        <name>WPT.76</name>
      </trkpt>
      <trkpt lat="35.078929000" lon="-106.444493000">
        <ele>1922.000</ele>
        <time>2017-03-30T19:27:10Z</time>
        <name>WPT.77</name>
      </trkpt>
      <trkpt lat="35.078960000" lon="-106.444467000">
        <ele>1918.000</ele>
        <time>2017-03-30T19:27:13Z</time>
        <name>WPT.78</name>
      </trkpt>
      <trkpt lat="35.078997000" lon="-106.444446000">
        <ele>1928.000</ele>
        <time>2017-03-30T19:27:19Z</time>
        <name>WPT.79</name>
      </trkpt>
      <trkpt lat="35.079039000" lon="-106.444442000">
        <ele>1932.000</ele>
        <time>2017-03-30T19:27:23Z</time>
        <name>WPT.80</name>
      </trkpt>
      <trkpt lat="35.079077000" lon="-106.444432000">
        <ele>1932.000</ele>
        <time>2017-03-30T19:27:31Z</time>
        <name>WPT.81</name>
      </trkpt>
      <trkpt lat="35.079113000" lon="-106.444421000">
        <ele>1934.000</ele>
        <time>2017-03-30T19:27:36Z</time>
        <name>WPT.82</name>
      </trkpt>
      <trkpt lat="35.079152000" lon="-106.444430000">
        <ele>1935.000</ele>
        <time>2017-03-30T19:27:44Z</time>
        <name>WPT.83</name>
      </trkpt>
      <trkpt lat="35.079188000" lon="-106.444442000">
        <ele>1939.000</ele>
        <time>2017-03-30T19:27:50Z</time>
        <name>WPT.84</name>
      </trkpt>
      <trkpt lat="35.079224000" lon="-106.444430000">
        <ele>1918.000</ele>
        <time>2017-03-30T19:27:53Z</time>
        <name>WPT.85</name>
      </trkpt>
      <trkpt lat="35.079238000" lon="-106.444472000">
        <ele>1917.000</ele>
        <time>2017-03-30T19:28:02Z</time>
        <name>WPT.86</name>
      </trkpt>
      <trkpt lat="35.079276000" lon="-106.444498000">
        <ele>1926.000</ele>
        <time>2017-03-30T19:28:07Z</time>
        <name>WPT.87</name>
      </trkpt>
      <trkpt lat="35.079313000" lon="-106.444521000">
        <ele>1937.000</ele>
        <time>2017-03-30T19:28:12Z</time>
        <name>WPT.88</name>
      </trkpt>
      <trkpt lat="35.079349000" lon="-106.444536000">
        <ele>1934.000</ele>
        <time>2017-03-30T19:28:16Z</time>
        <name>WPT.89</name>
      </trkpt>
      <trkpt lat="35.079395000" lon="-106.444523000">
        <ele>1934.000</ele>
        <time>2017-03-30T19:28:22Z</time>
        <name>WPT.90</name>
      </trkpt>
      <trkpt lat="35.079438000" lon="-106.444514000">
        <ele>1934.000</ele>
        <time>2017-03-30T19:28:27Z</time>
        <name>WPT.91</name>
      </trkpt>
      <trkpt lat="35.079477000" lon="-106.444510000">
        <ele>1934.000</ele>
        <time>2017-03-30T19:28:30Z</time>
        <name>WPT.92</name>
      </trkpt>
      <trkpt lat="35.079524000" lon="-106.444500000">
        <ele>1932.000</ele>
        <time>2017-03-30T19:28:34Z</time>
        <name>WPT.93</name>
      </trkpt>
      <trkpt lat="35.079563000" lon="-106.444504000">
        <ele>1935.000</ele>
        <time>2017-03-30T19:28:39Z</time>
        <name>WPT.94</name>
      </trkpt>
      <trkpt lat="35.079604000" lon="-106.444500000">
        <ele>1938.000</ele>
        <time>2017-03-30T19:28:45Z</time>
        <name>WPT.95</name>
      </trkpt>
      <trkpt lat="35.079637000" lon="-106.444481000">
        <ele>1940.000</ele>
        <time>2017-03-30T19:28:49Z</time>
        <name>WPT.96</name>
      </trkpt>
      <trkpt lat="35.079674000" lon="-106.444480000">
        <ele>1928.000</ele>
        <time>2017-03-30T19:28:56Z</time>
        <name>WPT.97</name>
      </trkpt>
      <trkpt lat="35.079711000" lon="-106.444481000">
        <ele>1930.000</ele>
        <time>2017-03-30T19:29:00Z</time>
        <name>WPT.98</name>
      </trkpt>
      <trkpt lat="35.079751000" lon="-106.444469000">
        <ele>1931.000</ele>
        <time>2017-03-30T19:29:03Z</time>
        <name>WPT.99</name>
      </trkpt>
      <trkpt lat="35.079796000" lon="-106.444444000">
        <ele>1930.000</ele>
        <time>2017-03-30T19:29:07Z</time>
        <name>WPT.100</name>
      </trkpt>
      <trkpt lat="35.079836000" lon="-106.444447000">
        <ele>1945.000</ele>
        <time>2017-03-30T19:29:13Z</time>
        <name>WPT.101</name>
      </trkpt>
      <trkpt lat="35.079882000" lon="-106.444440000">
        <ele>1931.000</ele>
        <time>2017-03-30T19:29:18Z</time>
        <name>WPT.102</name>
      </trkpt>
      <trkpt lat="35.079919000" lon="-106.444416000">
        <ele>1940.000</ele>
        <time>2017-03-30T19:29:21Z</time>
        <name>WPT.103</name>
      </trkpt>
      <trkpt lat="35.079955000" lon="-106.444399000">
        <ele>1946.000</ele>
        <time>2017-03-30T19:29:26Z</time>
        <name>WPT.104</name>
      </trkpt>
      <trkpt lat="35.079989000" lon="-106.444382000">
        <ele>1948.000</ele>
        <time>2017-03-30T19:29:31Z</time>
        <name>WPT.105</name>
      </trkpt>
      <trkpt lat="35.080025000" lon="-106.444343000">
        <ele>1944.000</ele>
        <time>2017-03-30T19:29:33Z</time>
        <name>WPT.106</name>
      </trkpt>
      <trkpt lat="35.080062000" lon="-106.444316000">
        <ele>1944.000</ele>
        <time>2017-03-30T19:29:36Z</time>
        <name>WPT.107</name>
      </trkpt>
      <trkpt lat="35.080097000" lon="-106.444285000">
        <ele>1946.000</ele>
        <time>2017-03-30T19:29:39Z</time>
        <name>WPT.108</name>
      </trkpt>
      <trkpt lat="35.080131000" lon="-106.444250000">
        <ele>1938.000</ele>
        <time>2017-03-30T19:29:42Z</time>
        <name>WPT.109</name>
      </trkpt>
      <trkpt lat="35.080164000" lon="-106.444214000">
        <ele>1940.000</ele>
        <time>2017-03-30T19:29:44Z</time>
        <name>WPT.110</name>
      </trkpt>
      <trkpt lat="35.080192000" lon="-106.444182000">
        <ele>1945.000</ele>
        <time>2017-03-30T19:29:47Z</time>
        <name>WPT.111</name>
      </trkpt>
      <trkpt lat="35.080226000" lon="-106.444150000">
        <ele>1945.000</ele>
        <time>2017-03-30T19:29:50Z</time>
        <name>WPT.112</name>
      </trkpt>
      <trkpt lat="35.080259000" lon="-106.444129000">
        <ele>1947.000</ele>
        <time>2017-03-30T19:29:53Z</time>
        <name>WPT.113</name>
      </trkpt>
      <trkpt lat="35.080298000" lon="-106.444110000">
        <ele>1950.000</ele>
        <time>2017-03-30T19:29:57Z</time>
        <name>WPT.114</name>
      </trkpt>
      <trkpt lat="35.080341000" lon="-106.444083000">
        <ele>1938.000</ele>
        <time>2017-03-30T19:30:03Z</time>
        <name>WPT.115</name>
      </trkpt>
      <trkpt lat="35.080372000" lon="-106.444045000">
        <ele>1946.000</ele>
        <time>2017-03-30T19:30:08Z</time>
        <name>WPT.116</name>
      </trkpt>
      <trkpt lat="35.080393000" lon="-106.444009000">
        <ele>1941.000</ele>
        <time>2017-03-30T19:31:05Z</time>
        <name>WPT.117</name>
      </trkpt>
      <trkpt lat="35.080424000" lon="-106.443982000">
        <ele>1936.000</ele>
        <time>2017-03-30T19:31:08Z</time>
        <name>WPT.118</name>
      </trkpt>
      <trkpt lat="35.080457000" lon="-106.443944000">
        <ele>1945.000</ele>
        <time>2017-03-30T19:31:11Z</time>
        <name>WPT.119</name>
      </trkpt>
      <trkpt lat="35.080494000" lon="-106.443913000">
        <ele>1947.000</ele>
        <time>2017-03-30T19:31:14Z</time>
        <name>WPT.120</name>
      </trkpt>
      <trkpt lat="35.080531000" lon="-106.443908000">
        <ele>1954.000</ele>
        <time>2017-03-30T19:31:19Z</time>
        <name>WPT.121</name>
      </trkpt>
      <trkpt lat="35.080568000" lon="-106.443891000">
        <ele>1954.000</ele>
        <time>2017-03-30T19:31:22Z</time>
        <name>WPT.122</name>
      </trkpt>
      <trkpt lat="35.080603000" lon="-106.443864000">
        <ele>1953.000</ele>
        <time>2017-03-30T19:31:26Z</time>
        <name>WPT.123</name>
      </trkpt>
      <trkpt lat="35.080641000" lon="-106.443874000">
        <ele>1941.000</ele>
        <time>2017-03-30T19:31:33Z</time>
        <name>WPT.124</name>
      </trkpt>
      <trkpt lat="35.080686000" lon="-106.443869000">
        <ele>1946.000</ele>
        <time>2017-03-30T19:31:36Z</time>
        <name>WPT.125</name>
      </trkpt>
      <trkpt lat="35.080724000" lon="-106.443873000">
        <ele>1948.000</ele>
        <time>2017-03-30T19:31:40Z</time>
        <name>WPT.126</name>
      </trkpt>
      <trkpt lat="35.080766000" lon="-106.443868000">
        <ele>1954.000</ele>
        <time>2017-03-30T19:31:44Z</time>
        <name>WPT.127</name>
      </trkpt>
      <trkpt lat="35.080809000" lon="-106.443875000">
        <ele>1960.000</ele>
        <time>2017-03-30T19:31:48Z</time>
        <name>WPT.128</name>
      </trkpt>
      <trkpt lat="35.080849000" lon="-106.443874000">
        <ele>1944.000</ele>
        <time>2017-03-30T19:31:52Z</time>
        <name>WPT.129</name>
      </trkpt>
      <trkpt lat="35.080900000" lon="-106.443867000">
        <ele>1955.000</ele>
        <time>2017-03-30T19:31:56Z</time>
        <name>WPT.130</name>
      </trkpt>
      <trkpt lat="35.080939000" lon="-106.443863000">
        <ele>1955.000</ele>
        <time>2017-03-30T19:31:59Z</time>
        <name>WPT.131</name>
      </trkpt>
      <trkpt lat="35.080977000" lon="-106.443875000">
        <ele>1962.000</ele>
        <time>2017-03-30T19:32:04Z</time>
        <name>WPT.132</name>
      </trkpt>
      <trkpt lat="35.081014000" lon="-106.443868000">
        <ele>1965.000</ele>
        <time>2017-03-30T19:32:08Z</time>
        <name>WPT.133</name>
      </trkpt>
      <trkpt lat="35.081054000" lon="-106.443869000">
        <ele>1951.000</ele>
        <time>2017-03-30T19:32:14Z</time>
        <name>WPT.134</name>
      </trkpt>
      <trkpt lat="35.081081000" lon="-106.443837000">
        <ele>1960.000</ele>
        <time>2017-03-30T19:32:17Z</time>
        <name>WPT.135</name>
      </trkpt>
      <trkpt lat="35.081110000" lon="-106.443803000">
        <ele>1964.000</ele>
        <time>2017-03-30T19:32:21Z</time>
        <name>WPT.136</name>
      </trkpt>
      <trkpt lat="35.081144000" lon="-106.443775000">
        <ele>1968.000</ele>
        <time>2017-03-30T19:32:26Z</time>
        <name>WPT.137</name>
      </trkpt>
      <trkpt lat="35.081183000" lon="-106.443749000">
        <ele>1971.000</ele>
        <time>2017-03-30T19:32:30Z</time>
        <name>WPT.138</name>
      </trkpt>
      <trkpt lat="35.081217000" lon="-106.443725000">
        <ele>1970.000</ele>
        <time>2017-03-30T19:32:35Z</time>
        <name>WPT.139</name>
      </trkpt>
      <trkpt lat="35.081258000" lon="-106.443700000">
        <ele>1969.000</ele>
        <time>2017-03-30T19:32:39Z</time>
        <name>WPT.140</name>
      </trkpt>
      <trkpt lat="35.081291000" lon="-106.443678000">
        <ele>1969.000</ele>
        <time>2017-03-30T19:32:42Z</time>
        <name>WPT.141</name>
      </trkpt>
      <trkpt lat="35.081323000" lon="-106.443649000">
        <ele>1968.000</ele>
        <time>2017-03-30T19:32:45Z</time>
        <name>WPT.142</name>
      </trkpt>
      <trkpt lat="35.081347000" lon="-106.443608000">
        <ele>1970.000</ele>
        <time>2017-03-30T19:32:48Z</time>
        <name>WPT.143</name>
      </trkpt>
      <trkpt lat="35.081359000" lon="-106.443566000">
        <ele>1925.000</ele>
        <time>2017-03-30T19:32:53Z</time>
        <name>WPT.144</name>
      </trkpt>
      <trkpt lat="35.081388000" lon="-106.443539000">
        <ele>1959.000</ele>
        <time>2017-03-30T19:32:58Z</time>
        <name>WPT.145</name>
      </trkpt>
      <trkpt lat="35.081430000" lon="-106.443521000">
        <ele>1961.000</ele>
        <time>2017-03-30T19:33:02Z</time>
        <name>WPT.146</name>
      </trkpt>
      <trkpt lat="35.081468000" lon="-106.443500000">
        <ele>1942.000</ele>
        <time>2017-03-30T19:33:07Z</time>
        <name>WPT.147</name>
      </trkpt>
      <trkpt lat="35.081506000" lon="-106.443508000">
        <ele>1957.000</ele>
        <time>2017-03-30T19:33:11Z</time>
        <name>WPT.148</name>
      </trkpt>
      <trkpt lat="35.081554000" lon="-106.443499000">
        <ele>1958.000</ele>
        <time>2017-03-30T19:33:14Z</time>
        <name>WPT.149</name>
      </trkpt>
      <trkpt lat="35.081594000" lon="-106.443482000">
        <ele>1950.000</ele>
        <time>2017-03-30T19:33:17Z</time>
        <name>WPT.150</name>
      </trkpt>
      <trkpt lat="35.081630000" lon="-106.443474000">
        <ele>1957.000</ele>
        <time>2017-03-30T19:33:20Z</time>
        <name>WPT.151</name>
      </trkpt>
      <trkpt lat="35.081668000" lon="-106.443468000">
        <ele>1961.000</ele>
        <time>2017-03-30T19:33:24Z</time>
        <name>WPT.152</name>
      </trkpt>
      <trkpt lat="35.081713000" lon="-106.443468000">
        <ele>1962.000</ele>
        <time>2017-03-30T19:33:28Z</time>
        <name>WPT.153</name>
      </trkpt>
      <trkpt lat="35.081749000" lon="-106.443472000">
        <ele>1964.000</ele>
        <time>2017-03-30T19:33:31Z</time>
        <name>WPT.154</name>
      </trkpt>
      <trkpt lat="35.081792000" lon="-106.443485000">
        <ele>1970.000</ele>
        <time>2017-03-30T19:33:35Z</time>
        <name>WPT.155</name>
      </trkpt>
      <trkpt lat="35.081824000" lon="-106.443504000">
        <ele>1972.000</ele>
        <time>2017-03-30T19:33:39Z</time>
        <name>WPT.156</name>
      </trkpt>
      <trkpt lat="35.081852000" lon="-106.443534000">
        <ele>1975.000</ele>
        <time>2017-03-30T19:33:44Z</time>
        <name>WPT.157</name>
      </trkpt>
      <trkpt lat="35.081891000" lon="-106.443562000">
        <ele>1974.000</ele>
        <time>2017-03-30T19:33:49Z</time>
        <name>WPT.158</name>
      </trkpt>
      <trkpt lat="35.081930000" lon="-106.443568000">
        <ele>1972.000</ele>
        <time>2017-03-30T19:33:53Z</time>
        <name>WPT.159</name>
      </trkpt>
      <trkpt lat="35.081965000" lon="-106.443582000">
        <ele>1973.000</ele>
        <time>2017-03-30T19:33:57Z</time>
        <name>WPT.160</name>
      </trkpt>
      <trkpt lat="35.082003000" lon="-106.443579000">
        <ele>1974.000</ele>
        <time>2017-03-30T19:34:00Z</time>
        <name>WPT.161</name>
      </trkpt>
      <trkpt lat="35.082044000" lon="-106.443574000">
        <ele>1975.000</ele>
        <time>2017-03-30T19:34:04Z</time>
        <name>WPT.162</name>
      </trkpt>
      <trkpt lat="35.082078000" lon="-106.443552000">
        <ele>1973.000</ele>
        <time>2017-03-30T19:34:09Z</time>
        <name>WPT.163</name>
      </trkpt>
      <trkpt lat="35.082118000" lon="-106.443550000">
        <ele>1973.000</ele>
        <time>2017-03-30T19:34:15Z</time>
        <name>WPT.164</name>
      </trkpt>
      <trkpt lat="35.082159000" lon="-106.443555000">
        <ele>1973.000</ele>
        <time>2017-03-30T19:34:21Z</time>
        <name>WPT.165</name>
      </trkpt>
      <trkpt lat="35.082210000" lon="-106.443566000">
        <ele>1973.000</ele>
        <time>2017-03-30T19:34:25Z</time>
        <name>WPT.166</name>
      </trkpt>
      <trkpt lat="35.082248000" lon="-106.443559000">
        <ele>1972.000</ele>
        <time>2017-03-30T19:34:30Z</time>
        <name>WPT.167</name>
      </trkpt>
      <trkpt lat="35.082288000" lon="-106.443565000">
        <ele>1969.000</ele>
        <time>2017-03-30T19:34:33Z</time>
        <name>WPT.168</name>
      </trkpt>
      <trkpt lat="35.082326000" lon="-106.443570000">
        <ele>1968.000</ele>
        <time>2017-03-30T19:34:35Z</time>
        <name>WPT.169</name>
      </trkpt>
      <trkpt lat="35.082378000" lon="-106.443581000">
        <ele>1968.000</ele>
        <time>2017-03-30T19:34:38Z</time>
        <name>WPT.170</name>
      </trkpt>
      <trkpt lat="35.082424000" lon="-106.443588000">
        <ele>1968.000</ele>
        <time>2017-03-30T19:34:41Z</time>
        <name>WPT.171</name>
      </trkpt>
      <trkpt lat="35.082460000" lon="-106.443603000">
        <ele>1970.000</ele>
        <time>2017-03-30T19:34:45Z</time>
        <name>WPT.172</name>
      </trkpt>
      <trkpt lat="35.082496000" lon="-106.443634000">
        <ele>1974.000</ele>
        <time>2017-03-30T19:34:50Z</time>
        <name>WPT.173</name>
      </trkpt>
      <trkpt lat="35.082544000" lon="-106.443652000">
        <ele>1974.000</ele>
        <time>2017-03-30T19:34:54Z</time>
        <name>WPT.174</name>
      </trkpt>
      <trkpt lat="35.082584000" lon="-106.443671000">
        <ele>1975.000</ele>
        <time>2017-03-30T19:34:57Z</time>
        <name>WPT.175</name>
      </trkpt>
      <trkpt lat="35.082616000" lon="-106.443702000">
        <ele>1975.000</ele>
        <time>2017-03-30T19:35:00Z</time>
        <name>WPT.176</name>
      </trkpt>
      <trkpt lat="35.082639000" lon="-106.443736000">
        <ele>1976.000</ele>
        <time>2017-03-30T19:35:06Z</time>
        <name>WPT.177</name>
      </trkpt>
      <trkpt lat="35.082675000" lon="-106.443702000">
        <ele>1977.000</ele>
        <time>2017-03-30T19:36:55Z</time>
        <name>WPT.178</name>
      </trkpt>
      <trkpt lat="35.082714000" lon="-106.443680000">
        <ele>1977.000</ele>
        <time>2017-03-30T19:36:59Z</time>
        <name>WPT.179</name>
      </trkpt>
      <trkpt lat="35.082747000" lon="-106.443662000">
        <ele>1977.000</ele>
        <time>2017-03-30T19:37:02Z</time>
        <name>WPT.180</name>
      </trkpt>
      <trkpt lat="35.082783000" lon="-106.443674000">
        <ele>1979.000</ele>
        <time>2017-03-30T19:37:09Z</time>
        <name>WPT.181</name>
      </trkpt>
      <trkpt lat="35.082821000" lon="-106.443654000">
        <ele>1981.000</ele>
        <time>2017-03-30T19:37:15Z</time>
        <name>WPT.182</name>
      </trkpt>
      <trkpt lat="35.082858000" lon="-106.443635000">
        <ele>1981.000</ele>
        <time>2017-03-30T19:37:18Z</time>
        <name>WPT.183</name>
      </trkpt>
      <trkpt lat="35.082895000" lon="-106.443623000">
        <ele>1984.000</ele>
        <time>2017-03-30T19:37:23Z</time>
        <name>WPT.184</name>
      </trkpt>
      <trkpt lat="35.082936000" lon="-106.443599000">
        <ele>1982.000</ele>
        <time>2017-03-30T19:37:27Z</time>
        <name>WPT.185</name>
      </trkpt>
      <trkpt lat="35.082969000" lon="-106.443568000">
        <ele>1977.000</ele>
        <time>2017-03-30T19:37:30Z</time>
        <name>WPT.186</name>
      </trkpt>
      <trkpt lat="35.082999000" lon="-106.443536000">
        <ele>1978.000</ele>
        <time>2017-03-30T19:37:33Z</time>
        <name>WPT.187</name>
      </trkpt>
      <trkpt lat="35.083029000" lon="-106.443501000">
        <ele>1977.000</ele>
        <time>2017-03-30T19:37:36Z</time>
        <name>WPT.188</name>
      </trkpt>
      <trkpt lat="35.083066000" lon="-106.443475000">
        <ele>1976.000</ele>
        <time>2017-03-30T19:37:39Z</time>
        <name>WPT.189</name>
      </trkpt>
      <trkpt lat="35.083106000" lon="-106.443461000">
        <ele>1978.000</ele>
        <time>2017-03-30T19:37:42Z</time>
        <name>WPT.190</name>
      </trkpt>
      <trkpt lat="35.083150000" lon="-106.443457000">
        <ele>1983.000</ele>
        <time>2017-03-30T19:37:47Z</time>
        <name>WPT.191</name>
      </trkpt>
      <trkpt lat="35.083187000" lon="-106.443435000">
        <ele>1981.000</ele>
        <time>2017-03-30T19:37:52Z</time>
        <name>WPT.192</name>
      </trkpt>
      <trkpt lat="35.083223000" lon="-106.443397000">
        <ele>1979.000</ele>
        <time>2017-03-30T19:37:56Z</time>
        <name>WPT.193</name>
      </trkpt>
      <trkpt lat="35.083262000" lon="-106.443356000">
        <ele>1980.000</ele>
        <time>2017-03-30T19:37:59Z</time>
        <name>WPT.194</name>
      </trkpt>
      <trkpt lat="35.083293000" lon="-106.443320000">
        <ele>1980.000</ele>
        <time>2017-03-30T19:38:02Z</time>
        <name>WPT.195</name>
      </trkpt>
      <trkpt lat="35.083324000" lon="-106.443284000">
        <ele>1981.000</ele>
        <time>2017-03-30T19:38:05Z</time>
        <name>WPT.196</name>
      </trkpt>
      <trkpt lat="35.083364000" lon="-106.443268000">
        <ele>1978.000</ele>
        <time>2017-03-30T19:38:11Z</time>
        <name>WPT.197</name>
      </trkpt>
      <trkpt lat="35.083402000" lon="-106.443250000">
        <ele>1960.000</ele>
        <time>2017-03-30T19:38:16Z</time>
        <name>WPT.198</name>
      </trkpt>
      <trkpt lat="35.083438000" lon="-106.443226000">
        <ele>1975.000</ele>
        <time>2017-03-30T19:38:22Z</time>
        <name>WPT.199</name>
      </trkpt>
      <trkpt lat="35.083468000" lon="-106.443188000">
        <ele>1978.000</ele>
        <time>2017-03-30T19:38:25Z</time>
        <name>WPT.200</name>
      </trkpt>
      <trkpt lat="35.083501000" lon="-106.443162000">
        <ele>1979.000</ele>
        <time>2017-03-30T19:38:31Z</time>
        <name>WPT.201</name>
      </trkpt>
      <trkpt lat="35.083540000" lon="-106.443152000">
        <ele>1984.000</ele>
        <time>2017-03-30T19:38:36Z</time>
        <name>WPT.202</name>
      </trkpt>
      <trkpt lat="35.083572000" lon="-106.443112000">
        <ele>1991.000</ele>
        <time>2017-03-30T19:38:42Z</time>
        <name>WPT.203</name>
      </trkpt>
      <trkpt lat="35.083610000" lon="-106.443085000">
        <ele>1957.000</ele>
        <time>2017-03-30T19:38:47Z</time>
        <name>WPT.204</name>
      </trkpt>
      <trkpt lat="35.083647000" lon="-106.443097000">
        <ele>1973.000</ele>
        <time>2017-03-30T19:38:52Z</time>
        <name>WPT.205</name>
      </trkpt>
      <trkpt lat="35.083691000" lon="-106.443097000">
        <ele>1988.000</ele>
        <time>2017-03-30T19:38:58Z</time>
        <name>WPT.206</name>
      </trkpt>
      <trkpt lat="35.083732000" lon="-106.443086000">
        <ele>1992.000</ele>
        <time>2017-03-30T19:39:03Z</time>
        <name>WPT.207</name>
      </trkpt>
      <trkpt lat="35.083770000" lon="-106.443082000">
        <ele>1996.000</ele>
        <time>2017-03-30T19:39:09Z</time>
        <name>WPT.208</name>
      </trkpt>
      <trkpt lat="35.083806000" lon="-106.443080000">
        <ele>1997.000</ele>
        <time>2017-03-30T19:39:12Z</time>
        <name>WPT.209</name>
      </trkpt>
      <trkpt lat="35.083844000" lon="-106.443072000">
        <ele>1996.000</ele>
        <time>2017-03-30T19:39:16Z</time>
        <name>WPT.210</name>
      </trkpt>
      <trkpt lat="35.083879000" lon="-106.443059000">
        <ele>1997.000</ele>
        <time>2017-03-30T19:39:19Z</time>
        <name>WPT.211</name>
      </trkpt>
      <trkpt lat="35.083916000" lon="-106.443039000">
        <ele>1995.000</ele>
        <time>2017-03-30T19:39:23Z</time>
        <name>WPT.212</name>
      </trkpt>
      <trkpt lat="35.083951000" lon="-106.443020000">
        <ele>1992.000</ele>
        <time>2017-03-30T19:39:26Z</time>
        <name>WPT.213</name>
      </trkpt>
      <trkpt lat="35.083987000" lon="-106.443008000">
        <ele>1995.000</ele>
        <time>2017-03-30T19:39:29Z</time>
        <name>WPT.214</name>
      </trkpt>
      <trkpt lat="35.084030000" lon="-106.443009000">
        <ele>1998.000</ele>
        <time>2017-03-30T19:39:35Z</time>
        <name>WPT.215</name>
      </trkpt>
      <trkpt lat="35.084073000" lon="-106.443030000">
        <ele>2001.000</ele>
        <time>2017-03-30T19:39:41Z</time>
        <name>WPT.216</name>
      </trkpt>
      <trkpt lat="35.084108000" lon="-106.443052000">
        <ele>2002.000</ele>
        <time>2017-03-30T19:39:46Z</time>
        <name>WPT.217</name>
      </trkpt>
      <trkpt lat="35.084150000" lon="-106.443052000">
        <ele>2003.000</ele>
        <time>2017-03-30T19:39:50Z</time>
        <name>WPT.218</name>
      </trkpt>
      <trkpt lat="35.084196000" lon="-106.443050000">
        <ele>2004.000</ele>
        <time>2017-03-30T19:39:54Z</time>
        <name>WPT.219</name>
      </trkpt>
      <trkpt lat="35.084239000" lon="-106.443050000">
        <ele>2004.000</ele>
        <time>2017-03-30T19:39:58Z</time>
        <name>WPT.220</name>
      </trkpt>
      <trkpt lat="35.084289000" lon="-106.443041000">
        <ele>1964.000</ele>
        <time>2017-03-30T19:40:01Z</time>
        <name>WPT.221</name>
      </trkpt>
      <trkpt lat="35.084328000" lon="-106.443032000">
        <ele>1945.000</ele>
        <time>2017-03-30T19:40:05Z</time>
        <name>WPT.222</name>
      </trkpt>
      <trkpt lat="35.084364000" lon="-106.443026000">
        <ele>1970.000</ele>
        <time>2017-03-30T19:40:08Z</time>
        <name>WPT.223</name>
      </trkpt>
      <trkpt lat="35.084402000" lon="-106.443022000">
        <ele>1997.000</ele>
        <time>2017-03-30T19:40:15Z</time>
        <name>WPT.224</name>
      </trkpt>
      <trkpt lat="35.084419000" lon="-106.442984000">
        <ele>1997.000</ele>
        <time>2017-03-30T19:40:33Z</time>
        <name>WPT.225</name>
      </trkpt>
      <trkpt lat="35.084414000" lon="-106.442938000">
        <ele>1995.000</ele>
        <time>2017-03-30T19:40:42Z</time>
        <name>WPT.226</name>
      </trkpt>
      <trkpt lat="35.084403000" lon="-106.442982000">
        <ele>1971.000</ele>
        <time>2017-03-30T19:41:21Z</time>
        <name>WPT.227</name>
      </trkpt>
      <trkpt lat="35.084426000" lon="-106.443024000">
        <ele>1989.000</ele>
        <time>2017-03-30T19:41:27Z</time>
        <name>WPT.228</name>
      </trkpt>
      <trkpt lat="35.084462000" lon="-106.443028000">
        <ele>1996.000</ele>
        <time>2017-03-30T19:41:42Z</time>
        <name>WPT.229</name>
      </trkpt>
      <trkpt lat="35.084482000" lon="-106.442990000">
        <ele>1994.000</ele>
        <time>2017-03-30T19:43:28Z</time>
        <name>WPT.230</name>
      </trkpt>
      <trkpt lat="35.084522000" lon="-106.442996000">
        <ele>1997.000</ele>
        <time>2017-03-30T19:43:51Z</time>
        <name>WPT.231</name>
      </trkpt>
      <trkpt lat="35.084561000" lon="-106.442966000">
        <ele>1998.000</ele>
        <time>2017-03-30T19:43:56Z</time>
        <name>WPT.232</name>
      </trkpt>
      <trkpt lat="35.084592000" lon="-106.442930000">
        <ele>1995.000</ele>
        <time>2017-03-30T19:44:00Z</time>
        <name>WPT.233</name>
      </trkpt>
      <trkpt lat="35.084630000" lon="-106.442917000">
        <ele>1997.000</ele>
        <time>2017-03-30T19:44:03Z</time>
        <name>WPT.234</name>
      </trkpt>
      <trkpt lat="35.084677000" lon="-106.442917000">
        <ele>1999.000</ele>
        <time>2017-03-30T19:44:07Z</time>
        <name>WPT.235</name>
      </trkpt>
      <trkpt lat="35.084718000" lon="-106.442914000">
        <ele>1981.000</ele>
        <time>2017-03-30T19:44:10Z</time>
        <name>WPT.236</name>
      </trkpt>
      <trkpt lat="35.084756000" lon="-106.442917000">
        <ele>1981.000</ele>
        <time>2017-03-30T19:44:15Z</time>
        <name>WPT.237</name>
      </trkpt>
      <trkpt lat="35.084787000" lon="-106.442887000">
        <ele>1995.000</ele>
        <time>2017-03-30T19:44:26Z</time>
        <name>WPT.238</name>
      </trkpt>
      <trkpt lat="35.084822000" lon="-106.442875000">
        <ele>1997.000</ele>
        <time>2017-03-30T19:44:29Z</time>
        <name>WPT.239</name>
      </trkpt>
      <trkpt lat="35.084858000" lon="-106.442864000">
        <ele>2001.000</ele>
        <time>2017-03-30T19:44:33Z</time>
        <name>WPT.240</name>
      </trkpt>
      <trkpt lat="35.084898000" lon="-106.442870000">
        <ele>2004.000</ele>
        <time>2017-03-30T19:44:38Z</time>
        <name>WPT.241</name>
      </trkpt>
      <trkpt lat="35.084937000" lon="-106.442845000">
        <ele>2003.000</ele>
        <time>2017-03-30T19:44:41Z</time>
        <name>WPT.242</name>
      </trkpt>
      <trkpt lat="35.084974000" lon="-106.442837000">
        <ele>2003.000</ele>
        <time>2017-03-30T19:44:45Z</time>
        <name>WPT.243</name>
      </trkpt>
      <trkpt lat="35.085014000" lon="-106.442840000">
        <ele>2008.000</ele>
        <time>2017-03-30T19:44:50Z</time>
        <name>WPT.244</name>
      </trkpt>
      <trkpt lat="35.085050000" lon="-106.442854000">
        <ele>2009.000</ele>
        <time>2017-03-30T19:44:54Z</time>
        <name>WPT.245</name>
      </trkpt>
      <trkpt lat="35.085092000" lon="-106.442864000">
        <ele>2013.000</ele>
        <time>2017-03-30T19:44:58Z</time>
        <name>WPT.246</name>
      </trkpt>
      <trkpt lat="35.085132000" lon="-106.442860000">
        <ele>2015.000</ele>
        <time>2017-03-30T19:45:03Z</time>
        <name>WPT.247</name>
      </trkpt>
      <trkpt lat="35.085175000" lon="-106.442826000">
        <ele>2012.000</ele>
        <time>2017-03-30T19:45:08Z</time>
        <name>WPT.248</name>
      </trkpt>
      <trkpt lat="35.085212000" lon="-106.442814000">
        <ele>1974.000</ele>
        <time>2017-03-30T19:45:12Z</time>
        <name>WPT.249</name>
      </trkpt>
      <trkpt lat="35.085254000" lon="-106.442810000">
        <ele>2000.000</ele>
        <time>2017-03-30T19:45:16Z</time>
        <name>WPT.250</name>
      </trkpt>
      <trkpt lat="35.085303000" lon="-106.442799000">
        <ele>1979.000</ele>
        <time>2017-03-30T19:45:21Z</time>
        <name>WPT.251</name>
      </trkpt>
      <trkpt lat="35.085342000" lon="-106.442783000">
        <ele>2001.000</ele>
        <time>2017-03-30T19:45:25Z</time>
        <name>WPT.252</name>
      </trkpt>
      <trkpt lat="35.085385000" lon="-106.442773000">
        <ele>2008.000</ele>
        <time>2017-03-30T19:45:28Z</time>
        <name>WPT.253</name>
      </trkpt>
      <trkpt lat="35.085418000" lon="-106.442751000">
        <ele>2008.000</ele>
        <time>2017-03-30T19:45:31Z</time>
        <name>WPT.254</name>
      </trkpt>
      <trkpt lat="35.085460000" lon="-106.442720000">
        <ele>2009.000</ele>
        <time>2017-03-30T19:45:34Z</time>
        <name>WPT.255</name>
      </trkpt>
      <trkpt lat="35.085504000" lon="-106.442712000">
        <ele>2010.000</ele>
        <time>2017-03-30T19:45:39Z</time>
        <name>WPT.256</name>
      </trkpt>
      <trkpt lat="35.085545000" lon="-106.442711000">
        <ele>2012.000</ele>
        <time>2017-03-30T19:45:42Z</time>
        <name>WPT.257</name>
      </trkpt>
      <trkpt lat="35.085585000" lon="-106.442688000">
        <ele>1994.000</ele>
        <time>2017-03-30T19:45:47Z</time>
        <name>WPT.258</name>
      </trkpt>
      <trkpt lat="35.085624000" lon="-106.442670000">
        <ele>2008.000</ele>
        <time>2017-03-30T19:45:52Z</time>
        <name>WPT.259</name>
      </trkpt>
      <trkpt lat="35.085662000" lon="-106.442650000">
        <ele>2011.000</ele>
        <time>2017-03-30T19:45:55Z</time>
        <name>WPT.260</name>
      </trkpt>
      <trkpt lat="35.085710000" lon="-106.442632000">
        <ele>2013.000</ele>
        <time>2017-03-30T19:46:01Z</time>
        <name>WPT.261</name>
      </trkpt>
      <trkpt lat="35.085748000" lon="-106.442627000">
        <ele>2014.000</ele>
        <time>2017-03-30T19:46:05Z</time>
        <name>WPT.262</name>
      </trkpt>
      <trkpt lat="35.085792000" lon="-106.442625000">
        <ele>2016.000</ele>
        <time>2017-03-30T19:46:09Z</time>
        <name>WPT.263</name>
      </trkpt>
      <trkpt lat="35.085830000" lon="-106.442619000">
        <ele>2020.000</ele>
        <time>2017-03-30T19:46:15Z</time>
        <name>WPT.264</name>
      </trkpt>
      <trkpt lat="35.085872000" lon="-106.442606000">
        <ele>2017.000</ele>
        <time>2017-03-30T19:46:19Z</time>
        <name>WPT.265</name>
      </trkpt>
      <trkpt lat="35.085910000" lon="-106.442582000">
        <ele>2016.000</ele>
        <time>2017-03-30T19:46:22Z</time>
        <name>WPT.266</name>
      </trkpt>
      <trkpt lat="35.085939000" lon="-106.442550000">
        <ele>2013.000</ele>
        <time>2017-03-30T19:46:24Z</time>
        <name>WPT.267</name>
      </trkpt>
      <trkpt lat="35.085964000" lon="-106.442515000">
        <ele>2013.000</ele>
        <time>2017-03-30T19:46:29Z</time>
        <name>WPT.268</name>
      </trkpt>
      <trkpt lat="35.085990000" lon="-106.442471000">
        <ele>2009.000</ele>
        <time>2017-03-30T19:47:21Z</time>
        <name>WPT.269</name>
      </trkpt>
      <trkpt lat="35.086033000" lon="-106.442452000">
        <ele>2010.000</ele>
        <time>2017-03-30T19:47:26Z</time>
        <name>WPT.270</name>
      </trkpt>
      <trkpt lat="35.086077000" lon="-106.442447000">
        <ele>2011.000</ele>
        <time>2017-03-30T19:47:31Z</time>
        <name>WPT.271</name>
      </trkpt>
      <trkpt lat="35.086117000" lon="-106.442442000">
        <ele>2013.000</ele>
        <time>2017-03-30T19:47:36Z</time>
        <name>WPT.272</name>
      </trkpt>
      <trkpt lat="35.086155000" lon="-106.442432000">
        <ele>2012.000</ele>
        <time>2017-03-30T19:47:40Z</time>
        <name>WPT.273</name>
      </trkpt>
      <trkpt lat="35.086194000" lon="-106.442438000">
        <ele>2011.000</ele>
        <time>2017-03-30T19:47:44Z</time>
        <name>WPT.274</name>
      </trkpt>
      <trkpt lat="35.086230000" lon="-106.442465000">
        <ele>2019.000</ele>
        <time>2017-03-30T19:47:49Z</time>
        <name>WPT.275</name>
      </trkpt>
      <trkpt lat="35.086267000" lon="-106.442470000">
        <ele>2020.000</ele>
        <time>2017-03-30T19:47:53Z</time>
        <name>WPT.276</name>
      </trkpt>
      <trkpt lat="35.086301000" lon="-106.442453000">
        <ele>1967.000</ele>
        <time>2017-03-30T19:47:57Z</time>
        <name>WPT.277</name>
      </trkpt>
      <trkpt lat="35.086337000" lon="-106.442429000">
        <ele>1954.000</ele>
        <time>2017-03-30T19:48:02Z</time>
        <name>WPT.278</name>
      </trkpt>
      <trkpt lat="35.086372000" lon="-106.442409000">
        <ele>1998.000</ele>
        <time>2017-03-30T19:48:06Z</time>
        <name>WPT.279</name>
      </trkpt>
      <trkpt lat="35.086409000" lon="-106.442385000">
        <ele>1984.000</ele>
        <time>2017-03-30T19:48:11Z</time>
        <name>WPT.280</name>
      </trkpt>
      <trkpt lat="35.086442000" lon="-106.442367000">
        <ele>2001.000</ele>
        <time>2017-03-30T19:48:14Z</time>
        <name>WPT.281</name>
      </trkpt>
      <trkpt lat="35.086485000" lon="-106.442350000">
        <ele>2017.000</ele>
        <time>2017-03-30T19:48:19Z</time>
        <name>WPT.282</name>
      </trkpt>
      <trkpt lat="35.086519000" lon="-106.442364000">
        <ele>1975.000</ele>
        <time>2017-03-30T19:48:24Z</time>
        <name>WPT.283</name>
      </trkpt>
      <trkpt lat="35.086566000" lon="-106.442364000">
        <ele>2024.000</ele>
        <time>2017-03-30T19:48:30Z</time>
        <name>WPT.284</name>
      </trkpt>
      <trkpt lat="35.086602000" lon="-106.442350000">
        <ele>2000.000</ele>
        <time>2017-03-30T19:48:35Z</time>
        <name>WPT.285</name>
      </trkpt>
      <trkpt lat="35.086639000" lon="-106.442348000">
        <ele>2019.000</ele>
        <time>2017-03-30T19:48:39Z</time>
        <name>WPT.286</name>
      </trkpt>
      <trkpt lat="35.086661000" lon="-106.442304000">
        <ele>2022.000</ele>
        <time>2017-03-30T19:48:49Z</time>
        <name>WPT.287</name>
      </trkpt>
      <trkpt lat="35.086700000" lon="-106.442295000">
        <ele>2024.000</ele>
        <time>2017-03-30T19:48:56Z</time>
        <name>WPT.288</name>
      </trkpt>
      <trkpt lat="35.086734000" lon="-106.442277000">
        <ele>2025.000</ele>
        <time>2017-03-30T19:49:01Z</time>
        <name>WPT.289</name>
      </trkpt>
      <trkpt lat="35.086763000" lon="-106.442247000">
        <ele>2028.000</ele>
        <time>2017-03-30T19:49:06Z</time>
        <name>WPT.290</name>
      </trkpt>
      <trkpt lat="35.086807000" lon="-106.442249000">
        <ele>2036.000</ele>
        <time>2017-03-30T19:49:13Z</time>
        <name>WPT.291</name>
      </trkpt>
      <trkpt lat="35.086848000" lon="-106.442217000">
        <ele>2033.000</ele>
        <time>2017-03-30T19:49:18Z</time>
        <name>WPT.292</name>
      </trkpt>
      <trkpt lat="35.086885000" lon="-106.442189000">
        <ele>2034.000</ele>
        <time>2017-03-30T19:49:22Z</time>
        <name>WPT.293</name>
      </trkpt>
      <trkpt lat="35.086924000" lon="-106.442167000">
        <ele>2037.000</ele>
        <time>2017-03-30T19:49:26Z</time>
        <name>WPT.294</name>
      </trkpt>
      <trkpt lat="35.086965000" lon="-106.442152000">
        <ele>2036.000</ele>
        <time>2017-03-30T19:49:30Z</time>
        <name>WPT.295</name>
      </trkpt>
      <trkpt lat="35.087007000" lon="-106.442134000">
        <ele>2035.000</ele>
        <time>2017-03-30T19:49:35Z</time>
        <name>WPT.296</name>
      </trkpt>
      <trkpt lat="35.087046000" lon="-106.442121000">
        <ele>2036.000</ele>
        <time>2017-03-30T19:49:39Z</time>
        <name>WPT.297</name>
      </trkpt>
      <trkpt lat="35.087084000" lon="-106.442099000">
        <ele>2035.000</ele>
        <time>2017-03-30T19:49:43Z</time>
        <name>WPT.298</name>
      </trkpt>
      <trkpt lat="35.087106000" lon="-106.442063000">
        <ele>2032.000</ele>
        <time>2017-03-30T19:49:56Z</time>
        <name>WPT.299</name>
      </trkpt>
      <trkpt lat="35.087135000" lon="-106.442025000">
        <ele>2032.000</ele>
        <time>2017-03-30T19:50:36Z</time>
        <name>WPT.300</name>
      </trkpt>
      <trkpt lat="35.087174000" lon="-106.442007000">
        <ele>2034.000</ele>
        <time>2017-03-30T19:50:40Z</time>
        <name>WPT.301</name>
      </trkpt>
      <trkpt lat="35.087220000" lon="-106.441991000">
        <ele>2038.000</ele>
        <time>2017-03-30T19:50:45Z</time>
        <name>WPT.302</name>
      </trkpt>
      <trkpt lat="35.087264000" lon="-106.441996000">
        <ele>2039.000</ele>
        <time>2017-03-30T19:50:50Z</time>
        <name>WPT.303</name>
      </trkpt>
      <trkpt lat="35.087302000" lon="-106.442008000">
        <ele>2037.000</ele>
        <time>2017-03-30T19:50:54Z</time>
        <name>WPT.304</name>
      </trkpt>
      <trkpt lat="35.087342000" lon="-106.442010000">
        <ele>2039.000</ele>
        <time>2017-03-30T19:50:59Z</time>
        <name>WPT.305</name>
      </trkpt>
      <trkpt lat="35.087381000" lon="-106.441997000">
        <ele>2040.000</ele>
        <time>2017-03-30T19:51:04Z</time>
        <name>WPT.306</name>
      </trkpt>
      <trkpt lat="35.087421000" lon="-106.441991000">
        <ele>2039.000</ele>
        <time>2017-03-30T19:51:07Z</time>
        <name>WPT.307</name>
      </trkpt>
      <trkpt lat="35.087463000" lon="-106.441986000">
        <ele>1998.000</ele>
        <time>2017-03-30T19:51:12Z</time>
        <name>WPT.308</name>
      </trkpt>
      <trkpt lat="35.087502000" lon="-106.441981000">
        <ele>2023.000</ele>
        <time>2017-03-30T19:51:16Z</time>
        <name>WPT.309</name>
      </trkpt>
      <trkpt lat="35.087544000" lon="-106.441993000">
        <ele>2031.000</ele>
        <time>2017-03-30T19:51:20Z</time>
        <name>WPT.310</name>
      </trkpt>
      <trkpt lat="35.087584000" lon="-106.442017000">
        <ele>2035.000</ele>
        <time>2017-03-30T19:51:25Z</time>
        <name>WPT.311</name>
      </trkpt>
      <trkpt lat="35.087623000" lon="-106.442022000">
        <ele>2006.000</ele>
        <time>2017-03-30T19:51:29Z</time>
        <name>WPT.312</name>
      </trkpt>
      <trkpt lat="35.087665000" lon="-106.442040000">
        <ele>1970.000</ele>
        <time>2017-03-30T19:51:33Z</time>
        <name>WPT.313</name>
      </trkpt>
      <trkpt lat="35.087702000" lon="-106.442054000">
        <ele>1990.000</ele>
        <time>2017-03-30T19:51:38Z</time>
        <name>WPT.314</name>
      </trkpt>
      <trkpt lat="35.087743000" lon="-106.442061000">
        <ele>2023.000</ele>
        <time>2017-03-30T19:51:42Z</time>
        <name>WPT.315</name>
      </trkpt>
      <trkpt lat="35.087775000" lon="-106.442084000">
        <ele>2036.000</ele>
        <time>2017-03-30T19:51:49Z</time>
        <name>WPT.316</name>
      </trkpt>
      <trkpt lat="35.087822000" lon="-106.442080000">
        <ele>2035.000</ele>
        <time>2017-03-30T19:51:54Z</time>
        <name>WPT.317</name>
      </trkpt>
      <trkpt lat="35.087855000" lon="-106.442096000">
        <ele>2036.000</ele>
        <time>2017-03-30T19:51:58Z</time>
        <name>WPT.318</name>
      </trkpt>
      <trkpt lat="35.087892000" lon="-106.442127000">
        <ele>2037.000</ele>
        <time>2017-03-30T19:52:03Z</time>
        <name>WPT.319</name>
      </trkpt>
      <trkpt lat="35.087932000" lon="-106.442147000">
        <ele>2037.000</ele>
        <time>2017-03-30T19:52:07Z</time>
        <name>WPT.320</name>
      </trkpt>
      <trkpt lat="35.087974000" lon="-106.442143000">
        <ele>2037.000</ele>
        <time>2017-03-30T19:52:11Z</time>
        <name>WPT.321</name>
      </trkpt>
      <trkpt lat="35.088013000" lon="-106.442147000">
        <ele>2039.000</ele>
        <time>2017-03-30T19:52:15Z</time>
        <name>WPT.322</name>
      </trkpt>
      <trkpt lat="35.088032000" lon="-106.442191000">
        <ele>2043.000</ele>
        <time>2017-03-30T19:52:19Z</time>
        <name>WPT.323</name>
      </trkpt>
      <trkpt lat="35.088070000" lon="-106.442210000">
        <ele>1996.000</ele>
        <time>2017-03-30T19:52:24Z</time>
        <name>WPT.324</name>
      </trkpt>
      <trkpt lat="35.088112000" lon="-106.442238000">
        <ele>2028.000</ele>
        <time>2017-03-30T19:52:29Z</time>
        <name>WPT.325</name>
      </trkpt>
      <trkpt lat="35.088153000" lon="-106.442238000">
        <ele>2018.000</ele>
        <time>2017-03-30T19:52:35Z</time>
        <name>WPT.326</name>
      </trkpt>
      <trkpt lat="35.088189000" lon="-106.442225000">
        <ele>2027.000</ele>
        <time>2017-03-30T19:52:38Z</time>
        <name>WPT.327</name>
      </trkpt>
      <trkpt lat="35.088233000" lon="-106.442217000">
        <ele>2033.000</ele>
        <time>2017-03-30T19:52:42Z</time>
        <name>WPT.328</name>
      </trkpt>
      <trkpt lat="35.088283000" lon="-106.442202000">
        <ele>2040.000</ele>
        <time>2017-03-30T19:52:45Z</time>
        <name>WPT.329</name>
      </trkpt>
      <trkpt lat="35.088309000" lon="-106.442233000">
        <ele>2048.000</ele>
        <time>2017-03-30T19:52:51Z</time>
        <name>WPT.330</name>
      </trkpt>
      <trkpt lat="35.088326000" lon="-106.442194000">
        <ele>2034.000</ele>
        <time>2017-03-30T19:53:19Z</time>
        <name>WPT.331</name>
      </trkpt>
      <trkpt lat="35.088373000" lon="-106.442186000">
        <ele>2049.000</ele>
        <time>2017-03-30T19:53:52Z</time>
        <name>WPT.332</name>
      </trkpt>
      <trkpt lat="35.088417000" lon="-106.442176000">
        <ele>2051.000</ele>
        <time>2017-03-30T19:53:56Z</time>
        <name>WPT.333</name>
      </trkpt>
      <trkpt lat="35.088457000" lon="-106.442160000">
        <ele>1991.000</ele>
        <time>2017-03-30T19:53:59Z</time>
        <name>WPT.334</name>
      </trkpt>
      <trkpt lat="35.088494000" lon="-106.442132000">
        <ele>2014.000</ele>
        <time>2017-03-30T19:54:03Z</time>
        <name>WPT.335</name>
      </trkpt>
      <trkpt lat="35.088538000" lon="-106.442134000">
        <ele>2033.000</ele>
        <time>2017-03-30T19:54:07Z</time>
        <name>WPT.336</name>
      </trkpt>
      <trkpt lat="35.088576000" lon="-106.442145000">
        <ele>1978.000</ele>
        <time>2017-03-30T19:54:11Z</time>
        <name>WPT.337</name>
      </trkpt>
      <trkpt lat="35.088613000" lon="-106.442159000">
        <ele>2022.000</ele>
        <time>2017-03-30T19:54:18Z</time>
        <name>WPT.338</name>
      </trkpt>
      <trkpt lat="35.088637000" lon="-106.442195000">
        <ele>2038.000</ele>
        <time>2017-03-30T19:54:22Z</time>
        <name>WPT.339</name>
      </trkpt>
      <trkpt lat="35.088673000" lon="-106.442212000">
        <ele>2044.000</ele>
        <time>2017-03-30T19:54:26Z</time>
        <name>WPT.340</name>
      </trkpt>
      <trkpt lat="35.088713000" lon="-106.442215000">
        <ele>2045.000</ele>
        <time>2017-03-30T19:54:29Z</time>
        <name>WPT.341</name>
      </trkpt>
      <trkpt lat="35.088758000" lon="-106.442203000">
        <ele>2047.000</ele>
        <time>2017-03-30T19:54:33Z</time>
        <name>WPT.342</name>
      </trkpt>
      <trkpt lat="35.088793000" lon="-106.442169000">
        <ele>1999.000</ele>
        <time>2017-03-30T19:54:36Z</time>
        <name>WPT.343</name>
      </trkpt>
      <trkpt lat="35.088830000" lon="-106.442150000">
        <ele>2015.000</ele>
        <time>2017-03-30T19:54:39Z</time>
        <name>WPT.344</name>
      </trkpt>
      <trkpt lat="35.088863000" lon="-106.442125000">
        <ele>2034.000</ele>
        <time>2017-03-30T19:54:44Z</time>
        <name>WPT.345</name>
      </trkpt>
      <trkpt lat="35.088909000" lon="-106.442107000">
        <ele>2045.000</ele>
        <time>2017-03-30T19:54:48Z</time>
        <name>WPT.346</name>
      </trkpt>
      <trkpt lat="35.088949000" lon="-106.442129000">
        <ele>2054.000</ele>
        <time>2017-03-30T19:54:53Z</time>
        <name>WPT.347</name>
      </trkpt>
      <trkpt lat="35.088993000" lon="-106.442125000">
        <ele>2059.000</ele>
        <time>2017-03-30T19:54:57Z</time>
        <name>WPT.348</name>
      </trkpt>
      <trkpt lat="35.089026000" lon="-106.442153000">
        <ele>2062.000</ele>
        <time>2017-03-30T19:55:03Z</time>
        <name>WPT.349</name>
      </trkpt>
      <trkpt lat="35.089063000" lon="-106.442149000">
        <ele>2063.000</ele>
        <time>2017-03-30T19:55:06Z</time>
        <name>WPT.350</name>
      </trkpt>
      <trkpt lat="35.089097000" lon="-106.442128000">
        <ele>2062.000</ele>
        <time>2017-03-30T19:55:10Z</time>
        <name>WPT.351</name>
      </trkpt>
      <trkpt lat="35.089146000" lon="-106.442107000">
        <ele>1956.000</ele>
        <time>2017-03-30T19:55:13Z</time>
        <name>WPT.352</name>
      </trkpt>
      <trkpt lat="35.089181000" lon="-106.442079000">
        <ele>2007.000</ele>
        <time>2017-03-30T19:55:16Z</time>
        <name>WPT.353</name>
      </trkpt>
      <trkpt lat="35.089217000" lon="-106.442108000">
        <ele>2033.000</ele>
        <time>2017-03-30T19:55:20Z</time>
        <name>WPT.354</name>
      </trkpt>
      <trkpt lat="35.089256000" lon="-106.442115000">
        <ele>2053.000</ele>
        <time>2017-03-30T19:55:24Z</time>
        <name>WPT.355</name>
      </trkpt>
      <trkpt lat="35.089291000" lon="-106.442094000">
        <ele>2056.000</ele>
        <time>2017-03-30T19:55:29Z</time>
        <name>WPT.356</name>
      </trkpt>
      <trkpt lat="35.089327000" lon="-106.442081000">
        <ele>2060.000</ele>
        <time>2017-03-30T19:55:32Z</time>
        <name>WPT.357</name>
      </trkpt>
      <trkpt lat="35.089368000" lon="-106.442085000">
        <ele>2058.000</ele>
        <time>2017-03-30T19:55:35Z</time>
        <name>WPT.358</name>
      </trkpt>
      <trkpt lat="35.089404000" lon="-106.442083000">
        <ele>2056.000</ele>
        <time>2017-03-30T19:55:37Z</time>
        <name>WPT.359</name>
      </trkpt>
      <trkpt lat="35.089444000" lon="-106.442087000">
        <ele>2059.000</ele>
        <time>2017-03-30T19:55:41Z</time>
        <name>WPT.360</name>
      </trkpt>
      <trkpt lat="35.089491000" lon="-106.442077000">
        <ele>2058.000</ele>
        <time>2017-03-30T19:55:44Z</time>
        <name>WPT.361</name>
      </trkpt>
      <trkpt lat="35.089536000" lon="-106.442080000">
        <ele>2057.000</ele>
        <time>2017-03-30T19:55:49Z</time>
        <name>WPT.362</name>
      </trkpt>
      <trkpt lat="35.089578000" lon="-106.442084000">
        <ele>2058.000</ele>
        <time>2017-03-30T19:55:53Z</time>
        <name>WPT.363</name>
      </trkpt>
      <trkpt lat="35.089613000" lon="-106.442098000">
        <ele>2061.000</ele>
        <time>2017-03-30T19:55:58Z</time>
        <name>WPT.364</name>
      </trkpt>
      <trkpt lat="35.089648000" lon="-106.442070000">
        <ele>2060.000</ele>
        <time>2017-03-30T19:56:01Z</time>
        <name>WPT.365</name>
      </trkpt>
      <trkpt lat="35.089690000" lon="-106.442070000">
        <ele>1989.000</ele>
        <time>2017-03-30T19:56:07Z</time>
        <name>WPT.366</name>
      </trkpt>
      <trkpt lat="35.089736000" lon="-106.442080000">
        <ele>2023.000</ele>
        <time>2017-03-30T19:56:10Z</time>
        <name>WPT.367</name>
      </trkpt>
      <trkpt lat="35.089778000" lon="-106.442070000">
        <ele>2056.000</ele>
        <time>2017-03-30T19:56:14Z</time>
        <name>WPT.368</name>
      </trkpt>
      <trkpt lat="35.089807000" lon="-106.442039000">
        <ele>2063.000</ele>
        <time>2017-03-30T19:56:18Z</time>
        <name>WPT.369</name>
      </trkpt>
      <trkpt lat="35.089832000" lon="-106.442006000">
        <ele>2069.000</ele>
        <time>2017-03-30T19:56:21Z</time>
        <name>WPT.370</name>
      </trkpt>
      <trkpt lat="35.089853000" lon="-106.441965000">
        <ele>2069.000</ele>
        <time>2017-03-30T19:56:26Z</time>
        <name>WPT.371</name>
      </trkpt>
      <trkpt lat="35.089895000" lon="-106.441946000">
        <ele>2072.000</ele>
        <time>2017-03-30T19:56:30Z</time>
        <name>WPT.372</name>
      </trkpt>
      <trkpt lat="35.089930000" lon="-106.441966000">
        <ele>2072.000</ele>
        <time>2017-03-30T19:56:33Z</time>
        <name>WPT.373</name>
      </trkpt>
      <trkpt lat="35.089972000" lon="-106.441960000">
        <ele>2072.000</ele>
        <time>2017-03-30T19:56:38Z</time>
        <name>WPT.374</name>
      </trkpt>
      <trkpt lat="35.090008000" lon="-106.441948000">
        <ele>2072.000</ele>
        <time>2017-03-30T19:56:40Z</time>
        <name>WPT.375</name>
      </trkpt>
      <trkpt lat="35.090035000" lon="-106.441917000">
        <ele>2075.000</ele>
        <time>2017-03-30T19:56:44Z</time>
        <name>WPT.376</name>
      </trkpt>
      <trkpt lat="35.090072000" lon="-106.441887000">
        <ele>2076.000</ele>
        <time>2017-03-30T19:56:48Z</time>
        <name>WPT.377</name>
      </trkpt>
      <trkpt lat="35.090106000" lon="-106.441868000">
        <ele>2072.000</ele>
        <time>2017-03-30T19:56:56Z</time>
        <name>WPT.378</name>
      </trkpt>
      <trkpt lat="35.090133000" lon="-106.441835000">
        <ele>2072.000</ele>
        <time>2017-03-30T19:58:54Z</time>
        <name>WPT.379</name>
      </trkpt>
      <trkpt lat="35.090177000" lon="-106.441818000">
        <ele>2071.000</ele>
        <time>2017-03-30T19:58:58Z</time>
        <name>WPT.380</name>
      </trkpt>
      <trkpt lat="35.090221000" lon="-106.441796000">
        <ele>2072.000</ele>
        <time>2017-03-30T19:59:04Z</time>
        <name>WPT.381</name>
      </trkpt>
      <trkpt lat="35.090259000" lon="-106.441786000">
        <ele>2069.000</ele>
        <time>2017-03-30T19:59:08Z</time>
        <name>WPT.382</name>
      </trkpt>
      <trkpt lat="35.090307000" lon="-106.441800000">
        <ele>2070.000</ele>
        <time>2017-03-30T19:59:14Z</time>
        <name>WPT.383</name>
      </trkpt>
      <trkpt lat="35.090342000" lon="-106.441781000">
        <ele>2072.000</ele>
        <time>2017-03-30T19:59:18Z</time>
        <name>WPT.384</name>
      </trkpt>
      <trkpt lat="35.090379000" lon="-106.441753000">
        <ele>2070.000</ele>
        <time>2017-03-30T19:59:22Z</time>
        <name>WPT.385</name>
      </trkpt>
      <trkpt lat="35.090418000" lon="-106.441742000">
        <ele>2075.000</ele>
        <time>2017-03-30T19:59:27Z</time>
        <name>WPT.386</name>
      </trkpt>
      <trkpt lat="35.090458000" lon="-106.441743000">
        <ele>2075.000</ele>
        <time>2017-03-30T19:59:31Z</time>
        <name>WPT.387</name>
      </trkpt>
      <trkpt lat="35.090500000" lon="-106.441710000">
        <ele>2069.000</ele>
        <time>2017-03-30T19:59:35Z</time>
        <name>WPT.388</name>
      </trkpt>
      <trkpt lat="35.090533000" lon="-106.441678000">
        <ele>2072.000</ele>
        <time>2017-03-30T19:59:38Z</time>
        <name>WPT.389</name>
      </trkpt>
      <trkpt lat="35.090551000" lon="-106.441639000">
        <ele>2071.000</ele>
        <time>2017-03-30T19:59:41Z</time>
        <name>WPT.390</name>
      </trkpt>
      <trkpt lat="35.090580000" lon="-106.441611000">
        <ele>2074.000</ele>
        <time>2017-03-30T19:59:44Z</time>
        <name>WPT.391</name>
      </trkpt>
      <trkpt lat="35.090622000" lon="-106.441586000">
        <ele>2070.000</ele>
        <time>2017-03-30T19:59:48Z</time>
        <name>WPT.392</name>
      </trkpt>
      <trkpt lat="35.090653000" lon="-106.441561000">
        <ele>2073.000</ele>
        <time>2017-03-30T19:59:51Z</time>
        <name>WPT.393</name>
      </trkpt>
      <trkpt lat="35.090684000" lon="-106.441523000">
        <ele>2079.000</ele>
        <time>2017-03-30T19:59:59Z</time>
        <name>WPT.394</name>
      </trkpt>
      <trkpt lat="35.090725000" lon="-106.441498000">
        <ele>2080.000</ele>
        <time>2017-03-30T20:00:05Z</time>
        <name>WPT.395</name>
      </trkpt>
      <trkpt lat="35.090757000" lon="-106.441476000">
        <ele>2081.000</ele>
        <time>2017-03-30T20:00:08Z</time>
        <name>WPT.396</name>
      </trkpt>
      <trkpt lat="35.090783000" lon="-106.441440000">
        <ele>2085.000</ele>
        <time>2017-03-30T20:00:13Z</time>
        <name>WPT.397</name>
      </trkpt>
      <trkpt lat="35.090810000" lon="-106.441404000">
        <ele>2086.000</ele>
        <time>2017-03-30T20:00:17Z</time>
        <name>WPT.398</name>
      </trkpt>
      <trkpt lat="35.090852000" lon="-106.441376000">
        <ele>2021.000</ele>
        <time>2017-03-30T20:00:21Z</time>
        <name>WPT.399</name>
      </trkpt>
      <trkpt lat="35.090878000" lon="-106.441332000">
        <ele>2069.000</ele>
        <time>2017-03-30T20:00:26Z</time>
        <name>WPT.400</name>
      </trkpt>
      <trkpt lat="35.090889000" lon="-106.441270000">
        <ele>2067.000</ele>
        <time>2017-03-30T20:00:29Z</time>
        <name>WPT.401</name>
      </trkpt>
      <trkpt lat="35.090885000" lon="-106.441222000">
        <ele>2075.000</ele>
        <time>2017-03-30T20:00:32Z</time>
        <name>WPT.402</name>
      </trkpt>
      <trkpt lat="35.090883000" lon="-106.441177000">
        <ele>2076.000</ele>
        <time>2017-03-30T20:00:36Z</time>
        <name>WPT.403</name>
      </trkpt>
      <trkpt lat="35.090878000" lon="-106.441121000">
        <ele>2077.000</ele>
        <time>2017-03-30T20:00:39Z</time>
        <name>WPT.404</name>
      </trkpt>
      <trkpt lat="35.090877000" lon="-106.441076000">
        <ele>2081.000</ele>
        <time>2017-03-30T20:00:44Z</time>
        <name>WPT.405</name>
      </trkpt>
      <trkpt lat="35.090886000" lon="-106.441029000">
        <ele>2082.000</ele>
        <time>2017-03-30T20:00:47Z</time>
        <name>WPT.406</name>
      </trkpt>
      <trkpt lat="35.090885000" lon="-106.440973000">
        <ele>2086.000</ele>
        <time>2017-03-30T20:00:53Z</time>
        <name>WPT.407</name>
      </trkpt>
      <trkpt lat="35.090894000" lon="-106.440926000">
        <ele>2086.000</ele>
        <time>2017-03-30T20:00:56Z</time>
        <name>WPT.408</name>
      </trkpt>
      <trkpt lat="35.090932000" lon="-106.440912000">
        <ele>2090.000</ele>
        <time>2017-03-30T20:01:03Z</time>
        <name>WPT.409</name>
      </trkpt>
      <trkpt lat="35.090976000" lon="-106.440924000">
        <ele>2090.000</ele>
        <time>2017-03-30T20:01:07Z</time>
        <name>WPT.410</name>
      </trkpt>
      <trkpt lat="35.091007000" lon="-106.440947000">
        <ele>2086.000</ele>
        <time>2017-03-30T20:01:10Z</time>
        <name>WPT.411</name>
      </trkpt>
      <trkpt lat="35.091055000" lon="-106.440940000">
        <ele>2087.000</ele>
        <time>2017-03-30T20:01:13Z</time>
        <name>WPT.412</name>
      </trkpt>
      <trkpt lat="35.091099000" lon="-106.440950000">
        <ele>2089.000</ele>
        <time>2017-03-30T20:01:19Z</time>
        <name>WPT.413</name>
      </trkpt>
      <trkpt lat="35.091139000" lon="-106.440938000">
        <ele>2092.000</ele>
        <time>2017-03-30T20:01:22Z</time>
        <name>WPT.414</name>
      </trkpt>
      <trkpt lat="35.091175000" lon="-106.440925000">
        <ele>2094.000</ele>
        <time>2017-03-30T20:01:29Z</time>
        <name>WPT.415</name>
      </trkpt>
      <trkpt lat="35.091223000" lon="-106.440895000">
        <ele>2086.000</ele>
        <time>2017-03-30T20:03:13Z</time>
        <name>WPT.416</name>
      </trkpt>
      <trkpt lat="35.091264000" lon="-106.440898000">
        <ele>2086.000</ele>
        <time>2017-03-30T20:03:15Z</time>
        <name>WPT.417</name>
      </trkpt>
      <trkpt lat="35.091300000" lon="-106.440906000">
        <ele>2084.000</ele>
        <time>2017-03-30T20:03:40Z</time>
        <name>WPT.418</name>
      </trkpt>
      <trkpt lat="35.091338000" lon="-106.440899000">
        <ele>2088.000</ele>
        <time>2017-03-30T20:03:45Z</time>
        <name>WPT.419</name>
      </trkpt>
      <trkpt lat="35.091370000" lon="-106.440869000">
        <ele>2093.000</ele>
        <time>2017-03-30T20:03:50Z</time>
        <name>WPT.420</name>
      </trkpt>
      <trkpt lat="35.091405000" lon="-106.440846000">
        <ele>2098.000</ele>
        <time>2017-03-30T20:03:55Z</time>
        <name>WPT.421</name>
      </trkpt>
      <trkpt lat="35.091429000" lon="-106.440809000">
        <ele>2098.000</ele>
        <time>2017-03-30T20:03:59Z</time>
        <name>WPT.422</name>
      </trkpt>
      <trkpt lat="35.091469000" lon="-106.440804000">
        <ele>2099.000</ele>
        <time>2017-03-30T20:04:07Z</time>
        <name>WPT.423</name>
      </trkpt>
      <trkpt lat="35.091486000" lon="-106.440762000">
        <ele>2099.000</ele>
        <time>2017-03-30T20:04:18Z</time>
        <name>WPT.424</name>
      </trkpt>
      <trkpt lat="35.091528000" lon="-106.440752000">
        <ele>2099.000</ele>
        <time>2017-03-30T20:04:26Z</time>
        <name>WPT.425</name>
      </trkpt>
      <trkpt lat="35.091570000" lon="-106.440720000">
        <ele>2098.000</ele>
        <time>2017-03-30T20:04:31Z</time>
        <name>WPT.426</name>
      </trkpt>
      <trkpt lat="35.091600000" lon="-106.440694000">
        <ele>2097.000</ele>
        <time>2017-03-30T20:04:33Z</time>
        <name>WPT.427</name>
      </trkpt>
      <trkpt lat="35.091635000" lon="-106.440668000">
        <ele>2094.000</ele>
        <time>2017-03-30T20:04:37Z</time>
        <name>WPT.428</name>
      </trkpt>
      <trkpt lat="35.091682000" lon="-106.440658000">
        <ele>2096.000</ele>
        <time>2017-03-30T20:04:41Z</time>
        <name>WPT.429</name>
      </trkpt>
      <trkpt lat="35.091724000" lon="-106.440649000">
        <ele>2097.000</ele>
        <time>2017-03-30T20:04:45Z</time>
        <name>WPT.430</name>
      </trkpt>
      <trkpt lat="35.091760000" lon="-106.440650000">
        <ele>2100.000</ele>
        <time>2017-03-30T20:04:48Z</time>
        <name>WPT.431</name>
      </trkpt>
      <trkpt lat="35.091803000" lon="-106.440660000">
        <ele>2105.000</ele>
        <time>2017-03-30T20:04:54Z</time>
        <name>WPT.432</name>
      </trkpt>
      <trkpt lat="35.091845000" lon="-106.440654000">
        <ele>2105.000</ele>
        <time>2017-03-30T20:04:59Z</time>
        <name>WPT.433</name>
      </trkpt>
      <trkpt lat="35.091877000" lon="-106.440683000">
        <ele>2109.000</ele>
        <time>2017-03-30T20:05:03Z</time>
        <name>WPT.434</name>
      </trkpt>
      <trkpt lat="35.091914000" lon="-106.440669000">
        <ele>2111.000</ele>
        <time>2017-03-30T20:05:09Z</time>
        <name>WPT.435</name>
      </trkpt>
      <trkpt lat="35.091944000" lon="-106.440639000">
        <ele>2117.000</ele>
        <time>2017-03-30T20:05:15Z</time>
        <name>WPT.436</name>
      </trkpt>
      <trkpt lat="35.091964000" lon="-106.440592000">
        <ele>2104.000</ele>
        <time>2017-03-30T20:05:20Z</time>
        <name>WPT.437</name>
      </trkpt>
      <trkpt lat="35.091971000" lon="-106.440525000">
        <ele>2104.000</ele>
        <time>2017-03-30T20:05:22Z</time>
        <name>WPT.438</name>
      </trkpt>
      <trkpt lat="35.092011000" lon="-106.440510000">
        <ele>2105.000</ele>
        <time>2017-03-30T20:05:25Z</time>
        <name>WPT.439</name>
      </trkpt>
      <trkpt lat="35.092050000" lon="-106.440500000">
        <ele>2103.000</ele>
        <time>2017-03-30T20:05:28Z</time>
        <name>WPT.440</name>
      </trkpt>
      <trkpt lat="35.092103000" lon="-106.440490000">
        <ele>2101.000</ele>
        <time>2017-03-30T20:05:31Z</time>
        <name>WPT.441</name>
      </trkpt>
      <trkpt lat="35.092140000" lon="-106.440478000">
        <ele>2101.000</ele>
        <time>2017-03-30T20:05:35Z</time>
        <name>WPT.442</name>
      </trkpt>
      <trkpt lat="35.092172000" lon="-106.440458000">
        <ele>2099.000</ele>
        <time>2017-03-30T20:07:10Z</time>
        <name>WPT.443</name>
      </trkpt>
      <trkpt lat="35.092210000" lon="-106.440468000">
        <ele>2104.000</ele>
        <time>2017-03-30T20:07:13Z</time>
        <name>WPT.444</name>
      </trkpt>
      <trkpt lat="35.092249000" lon="-106.440476000">
        <ele>2103.000</ele>
        <time>2017-03-30T20:07:16Z</time>
        <name>WPT.445</name>
      </trkpt>
      <trkpt lat="35.092292000" lon="-106.440462000">
        <ele>2104.000</ele>
        <time>2017-03-30T20:07:20Z</time>
        <name>WPT.446</name>
      </trkpt>
      <trkpt lat="35.092330000" lon="-106.440462000">
        <ele>2105.000</ele>
        <time>2017-03-30T20:07:24Z</time>
        <name>WPT.447</name>
      </trkpt>
      <trkpt lat="35.092371000" lon="-106.440482000">
        <ele>2106.000</ele>
        <time>2017-03-30T20:07:29Z</time>
        <name>WPT.448</name>
      </trkpt>
      <trkpt lat="35.092411000" lon="-106.440486000">
        <ele>2105.000</ele>
        <time>2017-03-30T20:07:35Z</time>
        <name>WPT.449</name>
      </trkpt>
      <trkpt lat="35.092442000" lon="-106.440512000">
        <ele>2104.000</ele>
        <time>2017-03-30T20:07:39Z</time>
        <name>WPT.450</name>
      </trkpt>
      <trkpt lat="35.092479000" lon="-106.440546000">
        <ele>2100.000</ele>
        <time>2017-03-30T20:07:44Z</time>
        <name>WPT.451</name>
      </trkpt>
      <trkpt lat="35.092505000" lon="-106.440584000">
        <ele>2101.000</ele>
        <time>2017-03-30T20:07:49Z</time>
        <name>WPT.452</name>
      </trkpt>
      <trkpt lat="35.092540000" lon="-106.440603000">
        <ele>2098.000</ele>
        <time>2017-03-30T20:07:58Z</time>
        <name>WPT.453</name>
      </trkpt>
      <trkpt lat="35.092581000" lon="-106.440626000">
        <ele>2098.000</ele>
        <time>2017-03-30T20:08:04Z</time>
        <name>WPT.454</name>
      </trkpt>
      <trkpt lat="35.092622000" lon="-106.440633000">
        <ele>2097.000</ele>
        <time>2017-03-30T20:08:07Z</time>
        <name>WPT.455</name>
      </trkpt>
      <trkpt lat="35.092666000" lon="-106.440648000">
        <ele>2098.000</ele>
        <time>2017-03-30T20:08:12Z</time>
        <name>WPT.456</name>
      </trkpt>
      <trkpt lat="35.092702000" lon="-106.440664000">
        <ele>2099.000</ele>
        <time>2017-03-30T20:08:16Z</time>
        <name>WPT.457</name>
      </trkpt>
      <trkpt lat="35.092745000" lon="-106.440665000">
        <ele>2098.000</ele>
        <time>2017-03-30T20:08:20Z</time>
        <name>WPT.458</name>
      </trkpt>
      <trkpt lat="35.092782000" lon="-106.440667000">
        <ele>2091.000</ele>
        <time>2017-03-30T20:08:49Z</time>
        <name>WPT.459</name>
      </trkpt>
      <trkpt lat="35.092823000" lon="-106.440698000">
        <ele>2094.000</ele>
        <time>2017-03-30T20:08:53Z</time>
        <name>WPT.460</name>
      </trkpt>
      <trkpt lat="35.092856000" lon="-106.440717000">
        <ele>2095.000</ele>
        <time>2017-03-30T20:08:58Z</time>
        <name>WPT.461</name>
      </trkpt>
      <trkpt lat="35.092877000" lon="-106.440767000">
        <ele>2097.000</ele>
        <time>2017-03-30T20:09:03Z</time>
        <name>WPT.462</name>
      </trkpt>
      <trkpt lat="35.092915000" lon="-106.440790000">
        <ele>2096.000</ele>
        <time>2017-03-30T20:09:07Z</time>
        <name>WPT.463</name>
      </trkpt>
      <trkpt lat="35.092946000" lon="-106.440829000">
        <ele>2098.000</ele>
        <time>2017-03-30T20:09:11Z</time>
        <name>WPT.464</name>
      </trkpt>
      <trkpt lat="35.092974000" lon="-106.440858000">
        <ele>2097.000</ele>
        <time>2017-03-30T20:09:14Z</time>
        <name>WPT.465</name>
      </trkpt>
      <trkpt lat="35.093003000" lon="-106.440896000">
        <ele>2098.000</ele>
        <time>2017-03-30T20:09:18Z</time>
        <name>WPT.466</name>
      </trkpt>
      <trkpt lat="35.093037000" lon="-106.440928000">
        <ele>2096.000</ele>
        <time>2017-03-30T20:09:22Z</time>
        <name>WPT.467</name>
      </trkpt>
      <trkpt lat="35.093061000" lon="-106.440963000">
        <ele>2097.000</ele>
        <time>2017-03-30T20:09:26Z</time>
        <name>WPT.468</name>
      </trkpt>
      <trkpt lat="35.093093000" lon="-106.440988000">
        <ele>2099.000</ele>
        <time>2017-03-30T20:09:31Z</time>
        <name>WPT.469</name>
      </trkpt>
      <trkpt lat="35.093131000" lon="-106.440976000">
        <ele>2102.000</ele>
        <time>2017-03-30T20:09:35Z</time>
        <name>WPT.470</name>
      </trkpt>
      <trkpt lat="35.093168000" lon="-106.440959000">
        <ele>2104.000</ele>
        <time>2017-03-30T20:09:39Z</time>
        <name>WPT.471</name>
      </trkpt>
      <trkpt lat="35.093213000" lon="-106.440945000">
        <ele>2105.000</ele>
        <time>2017-03-30T20:09:42Z</time>
        <name>WPT.472</name>
      </trkpt>
      <trkpt lat="35.093249000" lon="-106.440942000">
        <ele>2106.000</ele>
        <time>2017-03-30T20:09:46Z</time>
        <name>WPT.473</name>
      </trkpt>
      <trkpt lat="35.093290000" lon="-106.440939000">
        <ele>2109.000</ele>
        <time>2017-03-30T20:09:49Z</time>
        <name>WPT.474</name>
      </trkpt>
      <trkpt lat="35.093335000" lon="-106.440955000">
        <ele>2108.000</ele>
        <time>2017-03-30T20:09:54Z</time>
        <name>WPT.475</name>
      </trkpt>
      <trkpt lat="35.093369000" lon="-106.440939000">
        <ele>2110.000</ele>
        <time>2017-03-30T20:09:58Z</time>
        <name>WPT.476</name>
      </trkpt>
      <trkpt lat="35.093405000" lon="-106.440918000">
        <ele>2101.000</ele>
        <time>2017-03-30T20:10:01Z</time>
        <name>WPT.477</name>
      </trkpt>
      <trkpt lat="35.093441000" lon="-106.440886000">
        <ele>2107.000</ele>
        <time>2017-03-30T20:10:07Z</time>
        <name>WPT.478</name>
      </trkpt>
      <trkpt lat="35.093481000" lon="-106.440856000">
        <ele>2105.000</ele>
        <time>2017-03-30T20:10:10Z</time>
        <name>WPT.479</name>
      </trkpt>
      <trkpt lat="35.093495000" lon="-106.440808000">
        <ele>2105.000</ele>
        <time>2017-03-30T20:10:13Z</time>
        <name>WPT.480</name>
      </trkpt>
      <trkpt lat="35.093534000" lon="-106.440779000">
        <ele>2103.000</ele>
        <time>2017-03-30T20:10:55Z</time>
        <name>WPT.481</name>
      </trkpt>
      <trkpt lat="35.093578000" lon="-106.440788000">
        <ele>2110.000</ele>
        <time>2017-03-30T20:11:02Z</time>
        <name>WPT.482</name>
      </trkpt>
      <trkpt lat="35.093613000" lon="-106.440780000">
        <ele>2108.000</ele>
        <time>2017-03-30T20:11:06Z</time>
        <name>WPT.483</name>
      </trkpt>
      <trkpt lat="35.093656000" lon="-106.440782000">
        <ele>2110.000</ele>
        <time>2017-03-30T20:11:14Z</time>
        <name>WPT.484</name>
      </trkpt>
      <trkpt lat="35.093694000" lon="-106.440782000">
        <ele>2112.000</ele>
        <time>2017-03-30T20:11:17Z</time>
        <name>WPT.485</name>
      </trkpt>
      <trkpt lat="35.093734000" lon="-106.440780000">
        <ele>2115.000</ele>
        <time>2017-03-30T20:11:22Z</time>
        <name>WPT.486</name>
      </trkpt>
      <trkpt lat="35.093781000" lon="-106.440759000">
        <ele>2099.000</ele>
        <time>2017-03-30T20:11:27Z</time>
        <name>WPT.487</name>
      </trkpt>
      <trkpt lat="35.093817000" lon="-106.440754000">
        <ele>2098.000</ele>
        <time>2017-03-30T20:11:31Z</time>
        <name>WPT.488</name>
      </trkpt>
      <trkpt lat="35.093855000" lon="-106.440755000">
        <ele>2106.000</ele>
        <time>2017-03-30T20:11:34Z</time>
        <name>WPT.489</name>
      </trkpt>
      <trkpt lat="35.093895000" lon="-106.440770000">
        <ele>2112.000</ele>
        <time>2017-03-30T20:11:41Z</time>
        <name>WPT.490</name>
      </trkpt>
      <trkpt lat="35.093929000" lon="-106.440801000">
        <ele>2113.000</ele>
        <time>2017-03-30T20:11:45Z</time>
        <name>WPT.491</name>
      </trkpt>
      <trkpt lat="35.093975000" lon="-106.440809000">
        <ele>2112.000</ele>
        <time>2017-03-30T20:11:49Z</time>
        <name>WPT.492</name>
      </trkpt>
      <trkpt lat="35.094021000" lon="-106.440828000">
        <ele>2113.000</ele>
        <time>2017-03-30T20:11:52Z</time>
        <name>WPT.493</name>
      </trkpt>
      <trkpt lat="35.094042000" lon="-106.440869000">
        <ele>2113.000</ele>
        <time>2017-03-30T20:11:57Z</time>
        <name>WPT.494</name>
      </trkpt>
      <trkpt lat="35.094078000" lon="-106.440908000">
        <ele>2109.000</ele>
        <time>2017-03-30T20:12:01Z</time>
        <name>WPT.495</name>
      </trkpt>
      <trkpt lat="35.094113000" lon="-106.440928000">
        <ele>2111.000</ele>
        <time>2017-03-30T20:12:04Z</time>
        <name>WPT.496</name>
      </trkpt>
      <trkpt lat="35.094149000" lon="-106.440954000">
        <ele>2113.000</ele>
        <time>2017-03-30T20:12:09Z</time>
        <name>WPT.497</name>
      </trkpt>
      <trkpt lat="35.094198000" lon="-106.440960000">
        <ele>2114.000</ele>
        <time>2017-03-30T20:12:12Z</time>
        <name>WPT.498</name>
      </trkpt>
      <trkpt lat="35.094245000" lon="-106.440948000">
        <ele>2117.000</ele>
        <time>2017-03-30T20:12:19Z</time>
        <name>WPT.499</name>
      </trkpt>
      <trkpt lat="35.094308000" lon="-106.440936000">
        <ele>2116.000</ele>
        <time>2017-03-30T20:12:23Z</time>
        <name>WPT.500</name>
      </trkpt>
      <trkpt lat="35.094344000" lon="-106.440927000">
        <ele>2119.000</ele>
        <time>2017-03-30T20:12:27Z</time>
        <name>WPT.501</name>
      </trkpt>
      <trkpt lat="35.094379000" lon="-106.440907000">
        <ele>2120.000</ele>
        <time>2017-03-30T20:12:40Z</time>
        <name>WPT.502</name>
      </trkpt>
      <trkpt lat="35.094412000" lon="-106.440886000">
        <ele>2121.000</ele>
        <time>2017-03-30T20:13:57Z</time>
        <name>WPT.503</name>
      </trkpt>
      <trkpt lat="35.094452000" lon="-106.440900000">
        <ele>2119.000</ele>
        <time>2017-03-30T20:14:02Z</time>
        <name>WPT.504</name>
      </trkpt>
      <trkpt lat="35.094486000" lon="-106.440919000">
        <ele>2118.000</ele>
        <time>2017-03-30T20:14:05Z</time>
        <name>WPT.505</name>
      </trkpt>
      <trkpt lat="35.094528000" lon="-106.440916000">
        <ele>2122.000</ele>
        <time>2017-03-30T20:14:10Z</time>
        <name>WPT.506</name>
      </trkpt>
      <trkpt lat="35.094565000" lon="-106.440908000">
        <ele>2123.000</ele>
        <time>2017-03-30T20:14:14Z</time>
        <name>WPT.507</name>
      </trkpt>
      <trkpt lat="35.094609000" lon="-106.440910000">
        <ele>2124.000</ele>
        <time>2017-03-30T20:14:19Z</time>
        <name>WPT.508</name>
      </trkpt>
      <trkpt lat="35.094651000" lon="-106.440901000">
        <ele>2126.000</ele>
        <time>2017-03-30T20:14:24Z</time>
        <name>WPT.509</name>
      </trkpt>
      <trkpt lat="35.094680000" lon="-106.440872000">
        <ele>2126.000</ele>
        <time>2017-03-30T20:14:36Z</time>
        <name>WPT.510</name>
      </trkpt>
      <trkpt lat="35.094718000" lon="-106.440862000">
        <ele>2124.000</ele>
        <time>2017-03-30T20:14:54Z</time>
        <name>WPT.511</name>
      </trkpt>
      <trkpt lat="35.094756000" lon="-106.440875000">
        <ele>2126.000</ele>
        <time>2017-03-30T20:14:58Z</time>
        <name>WPT.512</name>
      </trkpt>
      <trkpt lat="35.094798000" lon="-106.440878000">
        <ele>2128.000</ele>
        <time>2017-03-30T20:15:03Z</time>
        <name>WPT.513</name>
      </trkpt>
      <trkpt lat="35.094832000" lon="-106.440891000">
        <ele>2128.000</ele>
        <time>2017-03-30T20:15:15Z</time>
        <name>WPT.514</name>
      </trkpt>
      <trkpt lat="35.094874000" lon="-106.440895000">
        <ele>2129.000</ele>
        <time>2017-03-30T20:15:19Z</time>
        <name>WPT.515</name>
      </trkpt>
      <trkpt lat="35.094912000" lon="-106.440889000">
        <ele>2129.000</ele>
        <time>2017-03-30T20:15:22Z</time>
        <name>WPT.516</name>
      </trkpt>
      <trkpt lat="35.094947000" lon="-106.440865000">
        <ele>2128.000</ele>
        <time>2017-03-30T20:15:26Z</time>
        <name>WPT.517</name>
      </trkpt>
      <trkpt lat="35.094989000" lon="-106.440856000">
        <ele>2130.000</ele>
        <time>2017-03-30T20:15:30Z</time>
        <name>WPT.518</name>
      </trkpt>
      <trkpt lat="35.095031000" lon="-106.440856000">
        <ele>2136.000</ele>
        <time>2017-03-30T20:15:35Z</time>
        <name>WPT.519</name>
      </trkpt>
      <trkpt lat="35.095062000" lon="-106.440832000">
        <ele>2136.000</ele>
        <time>2017-03-30T20:15:40Z</time>
        <name>WPT.520</name>
      </trkpt>
      <trkpt lat="35.095100000" lon="-106.440805000">
        <ele>2136.000</ele>
        <time>2017-03-30T20:15:47Z</time>
        <name>WPT.521</name>
      </trkpt>
      <trkpt lat="35.095144000" lon="-106.440802000">
        <ele>2138.000</ele>
        <time>2017-03-30T20:15:52Z</time>
        <name>WPT.522</name>
      </trkpt>
      <trkpt lat="35.095188000" lon="-106.440812000">
        <ele>2139.000</ele>
        <time>2017-03-30T20:15:57Z</time>
        <name>WPT.523</name>
      </trkpt>
      <trkpt lat="35.095235000" lon="-106.440802000">
        <ele>2140.000</ele>
        <time>2017-03-30T20:16:01Z</time>
        <name>WPT.524</name>
      </trkpt>
      <trkpt lat="35.095271000" lon="-106.440793000">
        <ele>2141.000</ele>
        <time>2017-03-30T20:16:05Z</time>
        <name>WPT.525</name>
      </trkpt>
      <trkpt lat="35.095313000" lon="-106.440782000">
        <ele>2143.000</ele>
        <time>2017-03-30T20:16:09Z</time>
        <name>WPT.526</name>
      </trkpt>
      <trkpt lat="35.095355000" lon="-106.440781000">
        <ele>2143.000</ele>
        <time>2017-03-30T20:16:16Z</time>
        <name>WPT.527</name>
      </trkpt>
      <trkpt lat="35.095334000" lon="-106.440744000">
        <ele>2140.000</ele>
        <time>2017-03-30T20:16:40Z</time>
        <name>WPT.528</name>
      </trkpt>
      <trkpt lat="35.095373000" lon="-106.440754000">
        <ele>2147.000</ele>
        <time>2017-03-30T20:16:45Z</time>
        <name>WPT.529</name>
      </trkpt>
      <trkpt lat="35.095411000" lon="-106.440760000">
        <ele>2146.000</ele>
        <time>2017-03-30T20:16:51Z</time>
        <name>WPT.530</name>
      </trkpt>
      <trkpt lat="35.095450000" lon="-106.440755000">
        <ele>2143.000</ele>
        <time>2017-03-30T20:17:07Z</time>
        <name>WPT.531</name>
      </trkpt>
      <trkpt lat="35.095491000" lon="-106.440741000">
        <ele>2143.000</ele>
        <time>2017-03-30T20:17:10Z</time>
        <name>WPT.532</name>
      </trkpt>
      <trkpt lat="35.095545000" lon="-106.440744000">
        <ele>2143.000</ele>
        <time>2017-03-30T20:17:14Z</time>
        <name>WPT.533</name>
      </trkpt>
      <trkpt lat="35.095581000" lon="-106.440739000">
        <ele>2144.000</ele>
        <time>2017-03-30T20:17:17Z</time>
        <name>WPT.534</name>
      </trkpt>
      <trkpt lat="35.095623000" lon="-106.440736000">
        <ele>2144.000</ele>
        <time>2017-03-30T20:17:21Z</time>
        <name>WPT.535</name>
      </trkpt>
      <trkpt lat="35.095654000" lon="-106.440769000">
        <ele>2145.000</ele>
        <time>2017-03-30T20:17:26Z</time>
        <name>WPT.536</name>
      </trkpt>
      <trkpt lat="35.095708000" lon="-106.440738000">
        <ele>2144.000</ele>
        <time>2017-03-30T20:17:32Z</time>
        <name>WPT.537</name>
      </trkpt>
      <trkpt lat="35.095754000" lon="-106.440735000">
        <ele>2146.000</ele>
        <time>2017-03-30T20:17:36Z</time>
        <name>WPT.538</name>
      </trkpt>
      <trkpt lat="35.095795000" lon="-106.440710000">
        <ele>2144.000</ele>
        <time>2017-03-30T20:17:39Z</time>
        <name>WPT.539</name>
      </trkpt>
      <trkpt lat="35.095838000" lon="-106.440711000">
        <ele>2146.000</ele>
        <time>2017-03-30T20:17:46Z</time>
        <name>WPT.540</name>
      </trkpt>
      <trkpt lat="35.095874000" lon="-106.440692000">
        <ele>2149.000</ele>
        <time>2017-03-30T20:17:50Z</time>
        <name>WPT.541</name>
      </trkpt>
      <trkpt lat="35.095909000" lon="-106.440704000">
        <ele>2147.000</ele>
        <time>2017-03-30T20:17:57Z</time>
        <name>WPT.542</name>
      </trkpt>
      <trkpt lat="35.095928000" lon="-106.440656000">
        <ele>2148.000</ele>
        <time>2017-03-30T20:18:33Z</time>
        <name>WPT.543</name>
      </trkpt>
      <trkpt lat="35.095967000" lon="-106.440631000">
        <ele>2149.000</ele>
        <time>2017-03-30T20:18:39Z</time>
        <name>WPT.544</name>
      </trkpt>
      <trkpt lat="35.096005000" lon="-106.440609000">
        <ele>2149.000</ele>
        <time>2017-03-30T20:18:44Z</time>
        <name>WPT.545</name>
      </trkpt>
      <trkpt lat="35.096042000" lon="-106.440608000">
        <ele>2155.000</ele>
        <time>2017-03-30T20:18:53Z</time>
        <name>WPT.546</name>
      </trkpt>
      <trkpt lat="35.096084000" lon="-106.440635000">
        <ele>2161.000</ele>
        <time>2017-03-30T20:18:59Z</time>
        <name>WPT.547</name>
      </trkpt>
      <trkpt lat="35.096131000" lon="-106.440616000">
        <ele>2162.000</ele>
        <time>2017-03-30T20:19:03Z</time>
        <name>WPT.548</name>
      </trkpt>
      <trkpt lat="35.096171000" lon="-106.440585000">
        <ele>2163.000</ele>
        <time>2017-03-30T20:19:06Z</time>
        <name>WPT.549</name>
      </trkpt>
      <trkpt lat="35.096209000" lon="-106.440561000">
        <ele>2163.000</ele>
        <time>2017-03-30T20:19:13Z</time>
        <name>WPT.550</name>
      </trkpt>
      <trkpt lat="35.096237000" lon="-106.440520000">
        <ele>2164.000</ele>
        <time>2017-03-30T20:19:18Z</time>
        <name>WPT.551</name>
      </trkpt>
      <trkpt lat="35.096254000" lon="-106.440476000">
        <ele>2166.000</ele>
        <time>2017-03-30T20:19:26Z</time>
        <name>WPT.552</name>
      </trkpt>
      <trkpt lat="35.096284000" lon="-106.440447000">
        <ele>2160.000</ele>
        <time>2017-03-30T20:19:31Z</time>
        <name>WPT.553</name>
      </trkpt>
      <trkpt lat="35.096313000" lon="-106.440485000">
        <ele>2165.000</ele>
        <time>2017-03-30T20:19:37Z</time>
        <name>WPT.554</name>
      </trkpt>
      <trkpt lat="35.096349000" lon="-106.440510000">
        <ele>2167.000</ele>
        <time>2017-03-30T20:19:42Z</time>
        <name>WPT.555</name>
      </trkpt>
      <trkpt lat="35.096384000" lon="-106.440489000">
        <ele>2161.000</ele>
        <time>2017-03-30T20:19:48Z</time>
        <name>WPT.556</name>
      </trkpt>
      <trkpt lat="35.096413000" lon="-106.440461000">
        <ele>2159.000</ele>
        <time>2017-03-30T20:19:55Z</time>
        <name>WPT.557</name>
      </trkpt>
      <trkpt lat="35.096447000" lon="-106.440438000">
        <ele>2157.000</ele>
        <time>2017-03-30T20:19:59Z</time>
        <name>WPT.558</name>
      </trkpt>
      <trkpt lat="35.096483000" lon="-106.440430000">
        <ele>2154.000</ele>
        <time>2017-03-30T20:25:15Z</time>
        <name>WPT.559</name>
      </trkpt>
      <trkpt lat="35.096522000" lon="-106.440414000">
        <ele>2151.000</ele>
        <time>2017-03-30T20:25:20Z</time>
        <name>WPT.560</name>
      </trkpt>
      <trkpt lat="35.096557000" lon="-106.440429000">
        <ele>2157.000</ele>
        <time>2017-03-30T20:25:25Z</time>
        <name>WPT.561</name>
      </trkpt>
      <trkpt lat="35.096576000" lon="-106.440386000">
        <ele>2159.000</ele>
        <time>2017-03-30T20:25:31Z</time>
        <name>WPT.562</name>
      </trkpt>
      <trkpt lat="35.096612000" lon="-106.440373000">
        <ele>2164.000</ele>
        <time>2017-03-30T20:25:49Z</time>
        <name>WPT.563</name>
      </trkpt>
      <trkpt lat="35.096661000" lon="-106.440369000">
        <ele>2168.000</ele>
        <time>2017-03-30T20:25:54Z</time>
        <name>WPT.564</name>
      </trkpt>
      <trkpt lat="35.096699000" lon="-106.440374000">
        <ele>2169.000</ele>
        <time>2017-03-30T20:25:59Z</time>
        <name>WPT.565</name>
      </trkpt>
      <trkpt lat="35.096742000" lon="-106.440355000">
        <ele>2167.000</ele>
        <time>2017-03-30T20:26:18Z</time>
        <name>WPT.566</name>
      </trkpt>
      <trkpt lat="35.096779000" lon="-106.440330000">
        <ele>2169.000</ele>
        <time>2017-03-30T20:26:23Z</time>
        <name>WPT.567</name>
      </trkpt>
      <trkpt lat="35.096813000" lon="-106.440306000">
        <ele>2171.000</ele>
        <time>2017-03-30T20:26:28Z</time>
        <name>WPT.568</name>
      </trkpt>
      <trkpt lat="35.096853000" lon="-106.440291000">
        <ele>2173.000</ele>
        <time>2017-03-30T20:26:34Z</time>
        <name>WPT.569</name>
      </trkpt>
      <trkpt lat="35.096877000" lon="-106.440324000">
        <ele>2177.000</ele>
        <time>2017-03-30T20:27:07Z</time>
        <name>WPT.570</name>
      </trkpt>
      <trkpt lat="35.096915000" lon="-106.440351000">
        <ele>2174.000</ele>
        <time>2017-03-30T20:27:36Z</time>
        <name>WPT.571</name>
      </trkpt>
      <trkpt lat="35.096945000" lon="-106.440326000">
        <ele>2174.000</ele>
        <time>2017-03-30T20:27:44Z</time>
        <name>WPT.572</name>
      </trkpt>
      <trkpt lat="35.096971000" lon="-106.440295000">
        <ele>2171.000</ele>
        <time>2017-03-30T20:27:53Z</time>
        <name>WPT.573</name>
      </trkpt>
      <trkpt lat="35.096986000" lon="-106.440252000">
        <ele>2177.000</ele>
        <time>2017-03-30T20:28:08Z</time>
        <name>WPT.574</name>
      </trkpt>
      <trkpt lat="35.097020000" lon="-106.440225000">
        <ele>2174.000</ele>
        <time>2017-03-30T20:28:13Z</time>
        <name>WPT.575</name>
      </trkpt>
      <trkpt lat="35.097057000" lon="-106.440220000">
        <ele>2175.000</ele>
        <time>2017-03-30T20:28:19Z</time>
        <name>WPT.576</name>
      </trkpt>
      <trkpt lat="35.097056000" lon="-106.440174000">
        <ele>2171.000</ele>
        <time>2017-03-30T20:28:35Z</time>
        <name>WPT.577</name>
      </trkpt>
      <trkpt lat="35.097046000" lon="-106.440127000">
        <ele>2170.000</ele>
        <time>2017-03-30T20:28:40Z</time>
        <name>WPT.578</name>
      </trkpt>
      <trkpt lat="35.097051000" lon="-106.440076000">
        <ele>2169.000</ele>
        <time>2017-03-30T20:28:46Z</time>
        <name>WPT.579</name>
      </trkpt>
      <trkpt lat="35.097092000" lon="-106.440082000">
        <ele>2175.000</ele>
        <time>2017-03-30T20:29:03Z</time>
        <name>WPT.580</name>
      </trkpt>
      <trkpt lat="35.097133000" lon="-106.440076000">
        <ele>2177.000</ele>
        <time>2017-03-30T20:29:09Z</time>
        <name>WPT.581</name>
      </trkpt>
      <trkpt lat="35.097171000" lon="-106.440044000">
        <ele>2175.000</ele>
        <time>2017-03-30T20:29:17Z</time>
        <name>WPT.582</name>
      </trkpt>
      <trkpt lat="35.097181000" lon="-106.439999000">
        <ele>2175.000</ele>
        <time>2017-03-30T20:29:29Z</time>
        <name>WPT.583</name>
      </trkpt>
      <trkpt lat="35.097157000" lon="-106.439960000">
        <ele>2175.000</ele>
        <time>2017-03-30T20:29:42Z</time>
        <name>WPT.584</name>
      </trkpt>
      <trkpt lat="35.097193000" lon="-106.439971000">
        <ele>2173.000</ele>
        <time>2017-03-30T20:30:04Z</time>
        <name>WPT.585</name>
      </trkpt>
      <trkpt lat="35.097232000" lon="-106.439966000">
        <ele>2174.000</ele>
        <time>2017-03-30T20:30:28Z</time>
        <name>WPT.586</name>
      </trkpt>
      <trkpt lat="35.097270000" lon="-106.439960000">
        <ele>2176.000</ele>
        <time>2017-03-30T20:30:32Z</time>
        <name>WPT.587</name>
      </trkpt>
      <trkpt lat="35.097308000" lon="-106.439947000">
        <ele>2179.000</ele>
        <time>2017-03-30T20:30:46Z</time>
        <name>WPT.588</name>
      </trkpt>
      <trkpt lat="35.097348000" lon="-106.439933000">
        <ele>2181.000</ele>
        <time>2017-03-30T20:30:51Z</time>
        <name>WPT.589</name>
      </trkpt>
      <trkpt lat="35.097372000" lon="-106.439894000">
        <ele>2181.000</ele>
        <time>2017-03-30T20:31:06Z</time>
        <name>WPT.590</name>
      </trkpt>
      <trkpt lat="35.097410000" lon="-106.439866000">
        <ele>2182.000</ele>
        <time>2017-03-30T20:31:13Z</time>
        <name>WPT.591</name>
      </trkpt>
      <trkpt lat="35.097454000" lon="-106.439859000">
        <ele>2183.000</ele>
        <time>2017-03-30T20:31:29Z</time>
        <name>WPT.592</name>
      </trkpt>
      <trkpt lat="35.097492000" lon="-106.439847000">
        <ele>2181.000</ele>
        <time>2017-03-30T20:31:33Z</time>
        <name>WPT.593</name>
      </trkpt>
      <trkpt lat="35.097526000" lon="-106.439869000">
        <ele>2182.000</ele>
        <time>2017-03-30T20:31:44Z</time>
        <name>WPT.594</name>
      </trkpt>
      <trkpt lat="35.097561000" lon="-106.439883000">
        <ele>2187.000</ele>
        <time>2017-03-30T20:31:59Z</time>
        <name>WPT.595</name>
      </trkpt>
      <trkpt lat="35.097590000" lon="-106.439858000">
        <ele>2181.000</ele>
        <time>2017-03-30T20:35:03Z</time>
        <name>WPT.596</name>
      </trkpt>
      <trkpt lat="35.097588000" lon="-106.439813000">
        <ele>2180.000</ele>
        <time>2017-03-30T20:36:17Z</time>
        <name>WPT.597</name>
      </trkpt>
      <trkpt lat="35.097551000" lon="-106.439818000">
        <ele>2182.000</ele>
        <time>2017-03-30T20:37:44Z</time>
        <name>WPT.598</name>
      </trkpt>
      <trkpt lat="35.097573000" lon="-106.439783000">
        <ele>2183.000</ele>
        <time>2017-03-30T21:07:40Z</time>
        <name>WPT.599</name>
      </trkpt>
      <trkpt lat="35.097594000" lon="-106.439818000">
        <ele>2175.000</ele>
        <time>2017-03-30T21:15:53Z</time>
        <name>WPT.600</name>
      </trkpt>
      <trkpt lat="35.097571000" lon="-106.439853000">
        <ele>2173.000</ele>
        <time>2017-03-30T21:16:54Z</time>
        <name>WPT.601</name>
      </trkpt>
      <trkpt lat="35.097601000" lon="-106.439819000">
        <ele>2170.000</ele>
        <time>2017-03-30T21:17:01Z</time>
        <name>WPT.602</name>
      </trkpt>
      <trkpt lat="35.097641000" lon="-106.439795000">
        <ele>2170.000</ele>
        <time>2017-03-30T21:17:07Z</time>
        <name>WPT.603</name>
      </trkpt>
      <trkpt lat="35.097684000" lon="-106.439788000">
        <ele>2168.000</ele>
        <time>2017-03-30T21:17:14Z</time>
        <name>WPT.604</name>
      </trkpt>
      <trkpt lat="35.097720000" lon="-106.439763000">
        <ele>2168.000</ele>
        <time>2017-03-30T21:17:17Z</time>
        <name>WPT.605</name>
      </trkpt>
      <trkpt lat="35.097757000" lon="-106.439746000">
        <ele>2171.000</ele>
        <time>2017-03-30T21:17:20Z</time>
        <name>WPT.606</name>
      </trkpt>
      <trkpt lat="35.097783000" lon="-106.439710000">
        <ele>2172.000</ele>
        <time>2017-03-30T21:17:23Z</time>
        <name>WPT.607</name>
      </trkpt>
      <trkpt lat="35.097818000" lon="-106.439675000">
        <ele>2172.000</ele>
        <time>2017-03-30T21:17:28Z</time>
        <name>WPT.608</name>
      </trkpt>
      <trkpt lat="35.097855000" lon="-106.439675000">
        <ele>2177.000</ele>
        <time>2017-03-30T21:19:04Z</time>
        <name>WPT.609</name>
      </trkpt>
      <trkpt lat="35.097817000" lon="-106.439684000">
        <ele>2176.000</ele>
        <time>2017-03-30T21:20:20Z</time>
        <name>WPT.610</name>
      </trkpt>
      <trkpt lat="35.097778000" lon="-106.439692000">
        <ele>2185.000</ele>
        <time>2017-03-30T21:20:24Z</time>
        <name>WPT.611</name>
      </trkpt>
      <trkpt lat="35.097739000" lon="-106.439709000">
        <ele>2185.000</ele>
        <time>2017-03-30T21:20:28Z</time>
        <name>WPT.612</name>
      </trkpt>
      <trkpt lat="35.097697000" lon="-106.439712000">
        <ele>2187.000</ele>
        <time>2017-03-30T21:20:32Z</time>
        <name>WPT.613</name>
      </trkpt>
      <trkpt lat="35.097663000" lon="-106.439730000">
        <ele>2185.000</ele>
        <time>2017-03-30T21:20:38Z</time>
        <name>WPT.614</name>
      </trkpt>
      <trkpt lat="35.097626000" lon="-106.439768000">
        <ele>2144.000</ele>
        <time>2017-03-30T21:20:42Z</time>
        <name>WPT.615</name>
      </trkpt>
      <trkpt lat="35.097594000" lon="-106.439799000">
        <ele>2173.000</ele>
        <time>2017-03-30T21:20:48Z</time>
        <name>WPT.616</name>
      </trkpt>
      <trkpt lat="35.097575000" lon="-106.439843000">
        <ele>2183.000</ele>
        <time>2017-03-30T21:20:54Z</time>
        <name>WPT.617</name>
      </trkpt>
      <trkpt lat="35.097537000" lon="-106.439848000">
        <ele>2183.000</ele>
        <time>2017-03-30T21:21:01Z</time>
        <name>WPT.618</name>
      </trkpt>
      <trkpt lat="35.097497000" lon="-106.439844000">
        <ele>2184.000</ele>
        <time>2017-03-30T21:21:08Z</time>
        <name>WPT.619</name>
      </trkpt>
      <trkpt lat="35.097465000" lon="-106.439869000">
        <ele>2181.000</ele>
        <time>2017-03-30T21:21:13Z</time>
        <name>WPT.620</name>
      </trkpt>
      <trkpt lat="35.097442000" lon="-106.439917000">
        <ele>2179.000</ele>
        <time>2017-03-30T21:21:18Z</time>
        <name>WPT.621</name>
      </trkpt>
      <trkpt lat="35.097426000" lon="-106.439957000">
        <ele>2179.000</ele>
        <time>2017-03-30T21:21:22Z</time>
        <name>WPT.622</name>
      </trkpt>
      <trkpt lat="35.097395000" lon="-106.439982000">
        <ele>2174.000</ele>
        <time>2017-03-30T21:21:27Z</time>
        <name>WPT.623</name>
      </trkpt>
      <trkpt lat="35.097366000" lon="-106.440017000">
        <ele>2168.000</ele>
        <time>2017-03-30T21:21:32Z</time>
        <name>WPT.624</name>
      </trkpt>
      <trkpt lat="35.097326000" lon="-106.440039000">
        <ele>2172.000</ele>
        <time>2017-03-30T21:21:37Z</time>
        <name>WPT.625</name>
      </trkpt>
      <trkpt lat="35.097291000" lon="-106.440050000">
        <ele>2173.000</ele>
        <time>2017-03-30T21:21:41Z</time>
        <name>WPT.626</name>
      </trkpt>
      <trkpt lat="35.097258000" lon="-106.440071000">
        <ele>2172.000</ele>
        <time>2017-03-30T21:21:46Z</time>
        <name>WPT.627</name>
      </trkpt>
      <trkpt lat="35.097251000" lon="-106.440116000">
        <ele>2164.000</ele>
        <time>2017-03-30T21:21:58Z</time>
        <name>WPT.628</name>
      </trkpt>
      <trkpt lat="35.097224000" lon="-106.440146000">
        <ele>2167.000</ele>
        <time>2017-03-30T21:22:33Z</time>
        <name>WPT.629</name>
      </trkpt>
      <trkpt lat="35.097192000" lon="-106.440171000">
        <ele>2168.000</ele>
        <time>2017-03-30T21:22:43Z</time>
        <name>WPT.630</name>
      </trkpt>
      <trkpt lat="35.097151000" lon="-106.440191000">
        <ele>2166.000</ele>
        <time>2017-03-30T21:22:50Z</time>
        <name>WPT.631</name>
      </trkpt>
      <trkpt lat="35.097117000" lon="-106.440214000">
        <ele>2165.000</ele>
        <time>2017-03-30T21:22:54Z</time>
        <name>WPT.632</name>
      </trkpt>
      <trkpt lat="35.097082000" lon="-106.440243000">
        <ele>2166.000</ele>
        <time>2017-03-30T21:23:01Z</time>
        <name>WPT.633</name>
      </trkpt>
      <trkpt lat="35.097056000" lon="-106.440284000">
        <ele>2145.000</ele>
        <time>2017-03-30T21:23:05Z</time>
        <name>WPT.634</name>
      </trkpt>
      <trkpt lat="35.097037000" lon="-106.440331000">
        <ele>2152.000</ele>
        <time>2017-03-30T21:23:09Z</time>
        <name>WPT.635</name>
      </trkpt>
      <trkpt lat="35.097017000" lon="-106.440370000">
        <ele>2166.000</ele>
        <time>2017-03-30T21:23:41Z</time>
        <name>WPT.636</name>
      </trkpt>
      <trkpt lat="35.096986000" lon="-106.440397000">
        <ele>2161.000</ele>
        <time>2017-03-30T21:23:50Z</time>
        <name>WPT.637</name>
      </trkpt>
      <trkpt lat="35.096952000" lon="-106.440419000">
        <ele>2159.000</ele>
        <time>2017-03-30T21:23:57Z</time>
        <name>WPT.638</name>
      </trkpt>
      <trkpt lat="35.096924000" lon="-106.440448000">
        <ele>2125.000</ele>
        <time>2017-03-30T21:24:02Z</time>
        <name>WPT.639</name>
      </trkpt>
      <trkpt lat="35.096912000" lon="-106.440501000">
        <ele>2134.000</ele>
        <time>2017-03-30T21:24:14Z</time>
        <name>WPT.640</name>
      </trkpt>
      <trkpt lat="35.096878000" lon="-106.440518000">
        <ele>2146.000</ele>
        <time>2017-03-30T21:24:19Z</time>
        <name>WPT.641</name>
      </trkpt>
      <trkpt lat="35.096844000" lon="-106.440546000">
        <ele>2151.000</ele>
        <time>2017-03-30T21:24:25Z</time>
        <name>WPT.642</name>
      </trkpt>
      <trkpt lat="35.096816000" lon="-106.440583000">
        <ele>2151.000</ele>
        <time>2017-03-30T21:24:33Z</time>
        <name>WPT.643</name>
      </trkpt>
      <trkpt lat="35.096788000" lon="-106.440618000">
        <ele>2153.000</ele>
        <time>2017-03-30T21:24:37Z</time>
        <name>WPT.644</name>
      </trkpt>
      <trkpt lat="35.096757000" lon="-106.440654000">
        <ele>2159.000</ele>
        <time>2017-03-30T21:25:19Z</time>
        <name>WPT.645</name>
      </trkpt>
      <trkpt lat="35.096724000" lon="-106.440676000">
        <ele>2159.000</ele>
        <time>2017-03-30T21:25:24Z</time>
        <name>WPT.646</name>
      </trkpt>
      <trkpt lat="35.096684000" lon="-106.440690000">
        <ele>2161.000</ele>
        <time>2017-03-30T21:25:30Z</time>
        <name>WPT.647</name>
      </trkpt>
      <trkpt lat="35.096645000" lon="-106.440721000">
        <ele>2163.000</ele>
        <time>2017-03-30T21:25:34Z</time>
        <name>WPT.648</name>
      </trkpt>
      <trkpt lat="35.096611000" lon="-106.440745000">
        <ele>2163.000</ele>
        <time>2017-03-30T21:25:38Z</time>
        <name>WPT.649</name>
      </trkpt>
      <trkpt lat="35.096584000" lon="-106.440788000">
        <ele>2164.000</ele>
        <time>2017-03-30T21:25:42Z</time>
        <name>WPT.650</name>
      </trkpt>
      <trkpt lat="35.096572000" lon="-106.440835000">
        <ele>2162.000</ele>
        <time>2017-03-30T21:25:45Z</time>
        <name>WPT.651</name>
      </trkpt>
      <trkpt lat="35.096586000" lon="-106.440890000">
        <ele>2159.000</ele>
        <time>2017-03-30T21:25:48Z</time>
        <name>WPT.652</name>
      </trkpt>
      <trkpt lat="35.096603000" lon="-106.440942000">
        <ele>2159.000</ele>
        <time>2017-03-30T21:25:51Z</time>
        <name>WPT.653</name>
      </trkpt>
      <trkpt lat="35.096622000" lon="-106.440983000">
        <ele>2161.000</ele>
        <time>2017-03-30T21:25:54Z</time>
        <name>WPT.654</name>
      </trkpt>
      <trkpt lat="35.096645000" lon="-106.441028000">
        <ele>2115.000</ele>
        <time>2017-03-30T21:25:59Z</time>
        <name>WPT.655</name>
      </trkpt>
      <trkpt lat="35.096662000" lon="-106.441068000">
        <ele>2140.000</ele>
        <time>2017-03-30T21:26:02Z</time>
        <name>WPT.656</name>
      </trkpt>
      <trkpt lat="35.096689000" lon="-106.441101000">
        <ele>2146.000</ele>
        <time>2017-03-30T21:26:06Z</time>
        <name>WPT.657</name>
      </trkpt>
      <trkpt lat="35.096708000" lon="-106.441151000">
        <ele>2153.000</ele>
        <time>2017-03-30T21:26:10Z</time>
        <name>WPT.658</name>
      </trkpt>
      <trkpt lat="35.096681000" lon="-106.441184000">
        <ele>2158.000</ele>
        <time>2017-03-30T21:26:14Z</time>
        <name>WPT.659</name>
      </trkpt>
      <trkpt lat="35.096663000" lon="-106.441238000">
        <ele>2161.000</ele>
        <time>2017-03-30T21:26:17Z</time>
        <name>WPT.660</name>
      </trkpt>
      <trkpt lat="35.096656000" lon="-106.441281000">
        <ele>2165.000</ele>
        <time>2017-03-30T21:26:20Z</time>
        <name>WPT.661</name>
      </trkpt>
      <trkpt lat="35.096675000" lon="-106.441330000">
        <ele>2164.000</ele>
        <time>2017-03-30T21:26:25Z</time>
        <name>WPT.662</name>
      </trkpt>
      <trkpt lat="35.096712000" lon="-106.441355000">
        <ele>2164.000</ele>
        <time>2017-03-30T21:26:32Z</time>
        <name>WPT.663</name>
      </trkpt>
      <trkpt lat="35.096736000" lon="-106.441404000">
        <ele>2166.000</ele>
        <time>2017-03-30T21:26:36Z</time>
        <name>WPT.664</name>
      </trkpt>
      <trkpt lat="35.096759000" lon="-106.441438000">
        <ele>2167.000</ele>
        <time>2017-03-30T21:26:39Z</time>
        <name>WPT.665</name>
      </trkpt>
      <trkpt lat="35.096784000" lon="-106.441480000">
        <ele>2169.000</ele>
        <time>2017-03-30T21:26:43Z</time>
        <name>WPT.666</name>
      </trkpt>
      <trkpt lat="35.096808000" lon="-106.441524000">
        <ele>2170.000</ele>
        <time>2017-03-30T21:26:46Z</time>
        <name>WPT.667</name>
      </trkpt>
      <trkpt lat="35.096845000" lon="-106.441557000">
        <ele>2168.000</ele>
        <time>2017-03-30T21:26:58Z</time>
        <name>WPT.668</name>
      </trkpt>
      <trkpt lat="35.096877000" lon="-106.441591000">
        <ele>2167.000</ele>
        <time>2017-03-30T21:27:13Z</time>
        <name>WPT.669</name>
      </trkpt>
      <trkpt lat="35.096910000" lon="-106.441612000">
        <ele>2166.000</ele>
        <time>2017-03-30T21:27:17Z</time>
        <name>WPT.670</name>
      </trkpt>
      <trkpt lat="35.096943000" lon="-106.441659000">
        <ele>2165.000</ele>
        <time>2017-03-30T21:27:21Z</time>
        <name>WPT.671</name>
      </trkpt>
      <trkpt lat="35.096971000" lon="-106.441689000">
        <ele>2166.000</ele>
        <time>2017-03-30T21:27:25Z</time>
        <name>WPT.672</name>
      </trkpt>
      <trkpt lat="35.097004000" lon="-106.441720000">
        <ele>2170.000</ele>
        <time>2017-03-30T21:27:42Z</time>
        <name>WPT.673</name>
      </trkpt>
      <trkpt lat="35.097031000" lon="-106.441760000">
        <ele>2169.000</ele>
        <time>2017-03-30T21:27:46Z</time>
        <name>WPT.674</name>
      </trkpt>
      <trkpt lat="35.097042000" lon="-106.441804000">
        <ele>2169.000</ele>
        <time>2017-03-30T21:27:50Z</time>
        <name>WPT.675</name>
      </trkpt>
      <trkpt lat="35.097081000" lon="-106.441809000">
        <ele>2166.000</ele>
        <time>2017-03-30T21:27:55Z</time>
        <name>WPT.676</name>
      </trkpt>
      <trkpt lat="35.097081000" lon="-106.441756000">
        <ele>2167.000</ele>
        <time>2017-03-30T21:29:29Z</time>
        <name>WPT.677</name>
      </trkpt>
      <trkpt lat="35.097063000" lon="-106.441715000">
        <ele>2169.000</ele>
        <time>2017-03-30T21:29:32Z</time>
        <name>WPT.678</name>
      </trkpt>
      <trkpt lat="35.097042000" lon="-106.441673000">
        <ele>2170.000</ele>
        <time>2017-03-30T21:29:36Z</time>
        <name>WPT.679</name>
      </trkpt>
      <trkpt lat="35.096999000" lon="-106.441643000">
        <ele>2173.000</ele>
        <time>2017-03-30T21:29:40Z</time>
        <name>WPT.680</name>
      </trkpt>
      <trkpt lat="35.096966000" lon="-106.441615000">
        <ele>2174.000</ele>
        <time>2017-03-30T21:29:43Z</time>
        <name>WPT.681</name>
      </trkpt>
      <trkpt lat="35.096938000" lon="-106.441586000">
        <ele>2174.000</ele>
        <time>2017-03-30T21:29:47Z</time>
        <name>WPT.682</name>
      </trkpt>
      <trkpt lat="35.096913000" lon="-106.441553000">
        <ele>2173.000</ele>
        <time>2017-03-30T21:29:50Z</time>
        <name>WPT.683</name>
      </trkpt>
      <trkpt lat="35.096880000" lon="-106.441527000">
        <ele>2175.000</ele>
        <time>2017-03-30T21:29:55Z</time>
        <name>WPT.684</name>
      </trkpt>
      <trkpt lat="35.096850000" lon="-106.441490000">
        <ele>2103.000</ele>
        <time>2017-03-30T21:30:00Z</time>
        <name>WPT.685</name>
      </trkpt>
      <trkpt lat="35.096804000" lon="-106.441464000">
        <ele>2117.000</ele>
        <time>2017-03-30T21:30:03Z</time>
        <name>WPT.686</name>
      </trkpt>
      <trkpt lat="35.096773000" lon="-106.441439000">
        <ele>2120.000</ele>
        <time>2017-03-30T21:30:06Z</time>
        <name>WPT.687</name>
      </trkpt>
      <trkpt lat="35.096750000" lon="-106.441400000">
        <ele>2144.000</ele>
        <time>2017-03-30T21:30:09Z</time>
        <name>WPT.688</name>
      </trkpt>
      <trkpt lat="35.096719000" lon="-106.441360000">
        <ele>2160.000</ele>
        <time>2017-03-30T21:30:12Z</time>
        <name>WPT.689</name>
      </trkpt>
      <trkpt lat="35.096695000" lon="-106.441322000">
        <ele>2169.000</ele>
        <time>2017-03-30T21:30:16Z</time>
        <name>WPT.690</name>
      </trkpt>
      <trkpt lat="35.096683000" lon="-106.441276000">
        <ele>2172.000</ele>
        <time>2017-03-30T21:30:19Z</time>
        <name>WPT.691</name>
      </trkpt>
      <trkpt lat="35.096687000" lon="-106.441231000">
        <ele>2170.000</ele>
        <time>2017-03-30T21:30:24Z</time>
        <name>WPT.692</name>
      </trkpt>
      <trkpt lat="35.096686000" lon="-106.441175000">
        <ele>2171.000</ele>
        <time>2017-03-30T21:30:28Z</time>
        <name>WPT.693</name>
      </trkpt>
      <trkpt lat="35.096669000" lon="-106.441128000">
        <ele>2172.000</ele>
        <time>2017-03-30T21:30:32Z</time>
        <name>WPT.694</name>
      </trkpt>
      <trkpt lat="35.096637000" lon="-106.441089000">
        <ele>2173.000</ele>
        <time>2017-03-30T21:30:35Z</time>
        <name>WPT.695</name>
      </trkpt>
      <trkpt lat="35.096618000" lon="-106.441044000">
        <ele>2173.000</ele>
        <time>2017-03-30T21:30:39Z</time>
        <name>WPT.696</name>
      </trkpt>
      <trkpt lat="35.096591000" lon="-106.441004000">
        <ele>2172.000</ele>
        <time>2017-03-30T21:30:43Z</time>
        <name>WPT.697</name>
      </trkpt>
      <trkpt lat="35.096566000" lon="-106.440968000">
        <ele>2174.000</ele>
        <time>2017-03-30T21:30:47Z</time>
        <name>WPT.698</name>
      </trkpt>
      <trkpt lat="35.096538000" lon="-106.440937000">
        <ele>2171.000</ele>
        <time>2017-03-30T21:30:51Z</time>
        <name>WPT.699</name>
      </trkpt>
      <trkpt lat="35.096536000" lon="-106.440892000">
        <ele>2170.000</ele>
        <time>2017-03-30T21:30:57Z</time>
        <name>WPT.700</name>
      </trkpt>
      <trkpt lat="35.096561000" lon="-106.440845000">
        <ele>2165.000</ele>
        <time>2017-03-30T21:31:02Z</time>
        <name>WPT.701</name>
      </trkpt>
      <trkpt lat="35.096605000" lon="-106.440834000">
        <ele>2162.000</ele>
        <time>2017-03-30T21:31:21Z</time>
        <name>WPT.702</name>
      </trkpt>
      <trkpt lat="35.096636000" lon="-106.440810000">
        <ele>2162.000</ele>
        <time>2017-03-30T21:31:24Z</time>
        <name>WPT.703</name>
      </trkpt>
      <trkpt lat="35.096667000" lon="-106.440775000">
        <ele>2163.000</ele>
        <time>2017-03-30T21:31:27Z</time>
        <name>WPT.704</name>
      </trkpt>
      <trkpt lat="35.096709000" lon="-106.440742000">
        <ele>2160.000</ele>
        <time>2017-03-30T21:31:31Z</time>
        <name>WPT.705</name>
      </trkpt>
      <trkpt lat="35.096733000" lon="-106.440702000">
        <ele>2161.000</ele>
        <time>2017-03-30T21:31:33Z</time>
        <name>WPT.706</name>
      </trkpt>
      <trkpt lat="35.096759000" lon="-106.440663000">
        <ele>2161.000</ele>
        <time>2017-03-30T21:31:36Z</time>
        <name>WPT.707</name>
      </trkpt>
      <trkpt lat="35.096788000" lon="-106.440620000">
        <ele>2161.000</ele>
        <time>2017-03-30T21:31:39Z</time>
        <name>WPT.708</name>
      </trkpt>
      <trkpt lat="35.096803000" lon="-106.440578000">
        <ele>2158.000</ele>
        <time>2017-03-30T21:31:41Z</time>
        <name>WPT.709</name>
      </trkpt>
      <trkpt lat="35.096832000" lon="-106.440535000">
        <ele>2156.000</ele>
        <time>2017-03-30T21:31:46Z</time>
        <name>WPT.710</name>
      </trkpt>
      <trkpt lat="35.096839000" lon="-106.440490000">
        <ele>2156.000</ele>
        <time>2017-03-30T21:32:08Z</time>
        <name>WPT.711</name>
      </trkpt>
      <trkpt lat="35.096828000" lon="-106.440447000">
        <ele>2154.000</ele>
        <time>2017-03-30T21:32:18Z</time>
        <name>WPT.712</name>
      </trkpt>
      <trkpt lat="35.096789000" lon="-106.440446000">
        <ele>2156.000</ele>
        <time>2017-03-30T21:32:35Z</time>
        <name>WPT.713</name>
      </trkpt>
      <trkpt lat="35.096750000" lon="-106.440469000">
        <ele>2156.000</ele>
        <time>2017-03-30T21:32:39Z</time>
        <name>WPT.714</name>
      </trkpt>
      <trkpt lat="35.096722000" lon="-106.440499000">
        <ele>2156.000</ele>
        <time>2017-03-30T21:32:42Z</time>
        <name>WPT.715</name>
      </trkpt>
      <trkpt lat="35.096680000" lon="-106.440513000">
        <ele>2131.000</ele>
        <time>2017-03-30T21:32:46Z</time>
        <name>WPT.716</name>
      </trkpt>
      <trkpt lat="35.096643000" lon="-106.440515000">
        <ele>2149.000</ele>
        <time>2017-03-30T21:32:50Z</time>
        <name>WPT.717</name>
      </trkpt>
      <trkpt lat="35.096605000" lon="-106.440534000">
        <ele>2151.000</ele>
        <time>2017-03-30T21:32:54Z</time>
        <name>WPT.718</name>
      </trkpt>
      <trkpt lat="35.096566000" lon="-106.440545000">
        <ele>2156.000</ele>
        <time>2017-03-30T21:32:59Z</time>
        <name>WPT.719</name>
      </trkpt>
      <trkpt lat="35.096537000" lon="-106.440580000">
        <ele>2158.000</ele>
        <time>2017-03-30T21:33:02Z</time>
        <name>WPT.720</name>
      </trkpt>
      <trkpt lat="35.096511000" lon="-106.440621000">
        <ele>2160.000</ele>
        <time>2017-03-30T21:33:07Z</time>
        <name>WPT.721</name>
      </trkpt>
      <trkpt lat="35.096477000" lon="-106.440637000">
        <ele>2160.000</ele>
        <time>2017-03-30T21:33:12Z</time>
        <name>WPT.722</name>
      </trkpt>
      <trkpt lat="35.096436000" lon="-106.440644000">
        <ele>2161.000</ele>
        <time>2017-03-30T21:33:16Z</time>
        <name>WPT.723</name>
      </trkpt>
      <trkpt lat="35.096405000" lon="-106.440667000">
        <ele>2161.000</ele>
        <time>2017-03-30T21:33:19Z</time>
        <name>WPT.724</name>
      </trkpt>
      <trkpt lat="35.096368000" lon="-106.440689000">
        <ele>2160.000</ele>
        <time>2017-03-30T21:33:23Z</time>
        <name>WPT.725</name>
      </trkpt>
      <trkpt lat="35.096327000" lon="-106.440689000">
        <ele>2162.000</ele>
        <time>2017-03-30T21:33:28Z</time>
        <name>WPT.726</name>
      </trkpt>
      <trkpt lat="35.096287000" lon="-106.440687000">
        <ele>2160.000</ele>
        <time>2017-03-30T21:33:32Z</time>
        <name>WPT.727</name>
      </trkpt>
      <trkpt lat="35.096253000" lon="-106.440702000">
        <ele>2161.000</ele>
        <time>2017-03-30T21:33:35Z</time>
        <name>WPT.728</name>
      </trkpt>
      <trkpt lat="35.096215000" lon="-106.440716000">
        <ele>2162.000</ele>
        <time>2017-03-30T21:33:38Z</time>
        <name>WPT.729</name>
      </trkpt>
      <trkpt lat="35.096173000" lon="-106.440718000">
        <ele>2161.000</ele>
        <time>2017-03-30T21:33:42Z</time>
        <name>WPT.730</name>
      </trkpt>
      <trkpt lat="35.096133000" lon="-106.440746000">
        <ele>2156.000</ele>
        <time>2017-03-30T21:33:46Z</time>
        <name>WPT.731</name>
      </trkpt>
      <trkpt lat="35.096133000" lon="-106.440792000">
        <ele>2152.000</ele>
        <time>2017-03-30T21:33:51Z</time>
        <name>WPT.732</name>
      </trkpt>
      <trkpt lat="35.096090000" lon="-106.440794000">
        <ele>2149.000</ele>
        <time>2017-03-30T21:34:04Z</time>
        <name>WPT.733</name>
      </trkpt>
      <trkpt lat="35.096046000" lon="-106.440804000">
        <ele>2156.000</ele>
        <time>2017-03-30T21:34:08Z</time>
        <name>WPT.734</name>
      </trkpt>
      <trkpt lat="35.096008000" lon="-106.440803000">
        <ele>2157.000</ele>
        <time>2017-03-30T21:34:11Z</time>
        <name>WPT.735</name>
      </trkpt>
      <trkpt lat="35.095973000" lon="-106.440814000">
        <ele>2158.000</ele>
        <time>2017-03-30T21:34:14Z</time>
        <name>WPT.736</name>
      </trkpt>
      <trkpt lat="35.095947000" lon="-106.440772000">
        <ele>2157.000</ele>
        <time>2017-03-30T21:34:22Z</time>
        <name>WPT.737</name>
      </trkpt>
      <trkpt lat="35.095908000" lon="-106.440771000">
        <ele>2158.000</ele>
        <time>2017-03-30T21:34:34Z</time>
        <name>WPT.738</name>
      </trkpt>
      <trkpt lat="35.095922000" lon="-106.440728000">
        <ele>2151.000</ele>
        <time>2017-03-30T21:34:48Z</time>
        <name>WPT.739</name>
      </trkpt>
      <trkpt lat="35.095943000" lon="-106.440686000">
        <ele>2151.000</ele>
        <time>2017-03-30T21:34:55Z</time>
        <name>WPT.740</name>
      </trkpt>
      <trkpt lat="35.095968000" lon="-106.440653000">
        <ele>2151.000</ele>
        <time>2017-03-30T21:34:58Z</time>
        <name>WPT.741</name>
      </trkpt>
      <trkpt lat="35.095942000" lon="-106.440617000">
        <ele>2148.000</ele>
        <time>2017-03-30T21:35:11Z</time>
        <name>WPT.742</name>
      </trkpt>
      <trkpt lat="35.095906000" lon="-106.440627000">
        <ele>2151.000</ele>
        <time>2017-03-30T21:35:15Z</time>
        <name>WPT.743</name>
      </trkpt>
      <trkpt lat="35.095864000" lon="-106.440640000">
        <ele>2151.000</ele>
        <time>2017-03-30T21:35:20Z</time>
        <name>WPT.744</name>
      </trkpt>
      <trkpt lat="35.095815000" lon="-106.440657000">
        <ele>2153.000</ele>
        <time>2017-03-30T21:35:24Z</time>
        <name>WPT.745</name>
      </trkpt>
      <trkpt lat="35.095779000" lon="-106.440669000">
        <ele>2155.000</ele>
        <time>2017-03-30T21:35:28Z</time>
        <name>WPT.746</name>
      </trkpt>
      <trkpt lat="35.095745000" lon="-106.440657000">
        <ele>2154.000</ele>
        <time>2017-03-30T21:35:33Z</time>
        <name>WPT.747</name>
      </trkpt>
      <trkpt lat="35.095711000" lon="-106.440680000">
        <ele>2153.000</ele>
        <time>2017-03-30T21:35:37Z</time>
        <name>WPT.748</name>
      </trkpt>
      <trkpt lat="35.095674000" lon="-106.440688000">
        <ele>2149.000</ele>
        <time>2017-03-30T21:35:44Z</time>
        <name>WPT.749</name>
      </trkpt>
      <trkpt lat="35.095633000" lon="-106.440668000">
        <ele>2146.000</ele>
        <time>2017-03-30T21:35:51Z</time>
        <name>WPT.750</name>
      </trkpt>
      <trkpt lat="35.095589000" lon="-106.440676000">
        <ele>2143.000</ele>
        <time>2017-03-30T21:35:57Z</time>
        <name>WPT.751</name>
      </trkpt>
      <trkpt lat="35.095550000" lon="-106.440687000">
        <ele>2143.000</ele>
        <time>2017-03-30T21:36:02Z</time>
        <name>WPT.752</name>
      </trkpt>
      <trkpt lat="35.095506000" lon="-106.440699000">
        <ele>2144.000</ele>
        <time>2017-03-30T21:36:06Z</time>
        <name>WPT.753</name>
      </trkpt>
      <trkpt lat="35.095468000" lon="-106.440692000">
        <ele>2144.000</ele>
        <time>2017-03-30T21:36:10Z</time>
        <name>WPT.754</name>
      </trkpt>
      <trkpt lat="35.095428000" lon="-106.440721000">
        <ele>2139.000</ele>
        <time>2017-03-30T21:36:18Z</time>
        <name>WPT.755</name>
      </trkpt>
      <trkpt lat="35.095378000" lon="-106.440719000">
        <ele>2144.000</ele>
        <time>2017-03-30T21:36:22Z</time>
        <name>WPT.756</name>
      </trkpt>
      <trkpt lat="35.095335000" lon="-106.440732000">
        <ele>2141.000</ele>
        <time>2017-03-30T21:36:26Z</time>
        <name>WPT.757</name>
      </trkpt>
      <trkpt lat="35.095300000" lon="-106.440755000">
        <ele>2141.000</ele>
        <time>2017-03-30T21:36:29Z</time>
        <name>WPT.758</name>
      </trkpt>
      <trkpt lat="35.095259000" lon="-106.440769000">
        <ele>2141.000</ele>
        <time>2017-03-30T21:36:33Z</time>
        <name>WPT.759</name>
      </trkpt>
      <trkpt lat="35.095212000" lon="-106.440779000">
        <ele>2140.000</ele>
        <time>2017-03-30T21:36:37Z</time>
        <name>WPT.760</name>
      </trkpt>
      <trkpt lat="35.095178000" lon="-106.440762000">
        <ele>2140.000</ele>
        <time>2017-03-30T21:36:42Z</time>
        <name>WPT.761</name>
      </trkpt>
      <trkpt lat="35.095144000" lon="-106.440776000">
        <ele>2140.000</ele>
        <time>2017-03-30T21:36:50Z</time>
        <name>WPT.762</name>
      </trkpt>
      <trkpt lat="35.095107000" lon="-106.440782000">
        <ele>2143.000</ele>
        <time>2017-03-30T21:36:54Z</time>
        <name>WPT.763</name>
      </trkpt>
      <trkpt lat="35.095060000" lon="-106.440786000">
        <ele>2139.000</ele>
        <time>2017-03-30T21:36:58Z</time>
        <name>WPT.764</name>
      </trkpt>
      <trkpt lat="35.095026000" lon="-106.440756000">
        <ele>2140.000</ele>
        <time>2017-03-30T21:37:01Z</time>
        <name>WPT.765</name>
      </trkpt>
      <trkpt lat="35.094986000" lon="-106.440738000">
        <ele>2139.000</ele>
        <time>2017-03-30T21:37:06Z</time>
        <name>WPT.766</name>
      </trkpt>
      <trkpt lat="35.094949000" lon="-106.440754000">
        <ele>2132.000</ele>
        <time>2017-03-30T21:37:21Z</time>
        <name>WPT.767</name>
      </trkpt>
      <trkpt lat="35.094912000" lon="-106.440765000">
        <ele>2132.000</ele>
        <time>2017-03-30T21:37:26Z</time>
        <name>WPT.768</name>
      </trkpt>
      <trkpt lat="35.094873000" lon="-106.440787000">
        <ele>2133.000</ele>
        <time>2017-03-30T21:37:31Z</time>
        <name>WPT.769</name>
      </trkpt>
      <trkpt lat="35.094823000" lon="-106.440794000">
        <ele>2133.000</ele>
        <time>2017-03-30T21:37:35Z</time>
        <name>WPT.770</name>
      </trkpt>
      <trkpt lat="35.094781000" lon="-106.440803000">
        <ele>2132.000</ele>
        <time>2017-03-30T21:37:38Z</time>
        <name>WPT.771</name>
      </trkpt>
      <trkpt lat="35.094737000" lon="-106.440825000">
        <ele>2131.000</ele>
        <time>2017-03-30T21:37:42Z</time>
        <name>WPT.772</name>
      </trkpt>
      <trkpt lat="35.094697000" lon="-106.440840000">
        <ele>2131.000</ele>
        <time>2017-03-30T21:37:45Z</time>
        <name>WPT.773</name>
      </trkpt>
      <trkpt lat="35.094661000" lon="-106.440846000">
        <ele>2134.000</ele>
        <time>2017-03-30T21:37:48Z</time>
        <name>WPT.774</name>
      </trkpt>
      <trkpt lat="35.094619000" lon="-106.440854000">
        <ele>2134.000</ele>
        <time>2017-03-30T21:37:52Z</time>
        <name>WPT.775</name>
      </trkpt>
      <trkpt lat="35.094573000" lon="-106.440856000">
        <ele>2135.000</ele>
        <time>2017-03-30T21:37:57Z</time>
        <name>WPT.776</name>
      </trkpt>
      <trkpt lat="35.094529000" lon="-106.440850000">
        <ele>2137.000</ele>
        <time>2017-03-30T21:38:01Z</time>
        <name>WPT.777</name>
      </trkpt>
      <trkpt lat="35.094489000" lon="-106.440839000">
        <ele>2136.000</ele>
        <time>2017-03-30T21:38:06Z</time>
        <name>WPT.778</name>
      </trkpt>
      <trkpt lat="35.094452000" lon="-106.440864000">
        <ele>2135.000</ele>
        <time>2017-03-30T21:38:10Z</time>
        <name>WPT.779</name>
      </trkpt>
      <trkpt lat="35.094412000" lon="-106.440859000">
        <ele>2132.000</ele>
        <time>2017-03-30T21:38:14Z</time>
        <name>WPT.780</name>
      </trkpt>
      <trkpt lat="35.094377000" lon="-106.440873000">
        <ele>2122.000</ele>
        <time>2017-03-30T21:38:17Z</time>
        <name>WPT.781</name>
      </trkpt>
      <trkpt lat="35.094340000" lon="-106.440873000">
        <ele>2128.000</ele>
        <time>2017-03-30T21:38:22Z</time>
        <name>WPT.782</name>
      </trkpt>
      <trkpt lat="35.094300000" lon="-106.440872000">
        <ele>2132.000</ele>
        <time>2017-03-30T21:38:26Z</time>
        <name>WPT.783</name>
      </trkpt>
      <trkpt lat="35.094257000" lon="-106.440852000">
        <ele>2132.000</ele>
        <time>2017-03-30T21:38:30Z</time>
        <name>WPT.784</name>
      </trkpt>
      <trkpt lat="35.094220000" lon="-106.440835000">
        <ele>2133.000</ele>
        <time>2017-03-30T21:38:33Z</time>
        <name>WPT.785</name>
      </trkpt>
      <trkpt lat="35.094184000" lon="-106.440821000">
        <ele>2133.000</ele>
        <time>2017-03-30T21:38:36Z</time>
        <name>WPT.786</name>
      </trkpt>
      <trkpt lat="35.094152000" lon="-106.440800000">
        <ele>2131.000</ele>
        <time>2017-03-30T21:38:39Z</time>
        <name>WPT.787</name>
      </trkpt>
      <trkpt lat="35.094127000" lon="-106.440757000">
        <ele>2130.000</ele>
        <time>2017-03-30T21:38:44Z</time>
        <name>WPT.788</name>
      </trkpt>
      <trkpt lat="35.094094000" lon="-106.440715000">
        <ele>2131.000</ele>
        <time>2017-03-30T21:38:48Z</time>
        <name>WPT.789</name>
      </trkpt>
      <trkpt lat="35.094051000" lon="-106.440722000">
        <ele>2131.000</ele>
        <time>2017-03-30T21:38:52Z</time>
        <name>WPT.790</name>
      </trkpt>
      <trkpt lat="35.094002000" lon="-106.440717000">
        <ele>2133.000</ele>
        <time>2017-03-30T21:38:56Z</time>
        <name>WPT.791</name>
      </trkpt>
      <trkpt lat="35.093963000" lon="-106.440709000">
        <ele>2132.000</ele>
        <time>2017-03-30T21:39:00Z</time>
        <name>WPT.792</name>
      </trkpt>
      <trkpt lat="35.093925000" lon="-106.440704000">
        <ele>2130.000</ele>
        <time>2017-03-30T21:39:05Z</time>
        <name>WPT.793</name>
      </trkpt>
      <trkpt lat="35.093889000" lon="-106.440712000">
        <ele>2129.000</ele>
        <time>2017-03-30T21:39:09Z</time>
        <name>WPT.794</name>
      </trkpt>
      <trkpt lat="35.093848000" lon="-106.440712000">
        <ele>2129.000</ele>
        <time>2017-03-30T21:39:13Z</time>
        <name>WPT.795</name>
      </trkpt>
      <trkpt lat="35.093814000" lon="-106.440733000">
        <ele>2128.000</ele>
        <time>2017-03-30T21:39:19Z</time>
        <name>WPT.796</name>
      </trkpt>
      <trkpt lat="35.093778000" lon="-106.440721000">
        <ele>2125.000</ele>
        <time>2017-03-30T21:39:34Z</time>
        <name>WPT.797</name>
      </trkpt>
      <trkpt lat="35.093750000" lon="-106.440752000">
        <ele>2125.000</ele>
        <time>2017-03-30T21:39:46Z</time>
        <name>WPT.798</name>
      </trkpt>
      <trkpt lat="35.093725000" lon="-106.440719000">
        <ele>2114.000</ele>
        <time>2017-03-30T21:42:20Z</time>
        <name>WPT.799</name>
      </trkpt>
      <trkpt lat="35.093691000" lon="-106.440741000">
        <ele>2118.000</ele>
        <time>2017-03-30T21:42:25Z</time>
        <name>WPT.800</name>
      </trkpt>
      <trkpt lat="35.093646000" lon="-106.440752000">
        <ele>2116.000</ele>
        <time>2017-03-30T21:42:29Z</time>
        <name>WPT.801</name>
      </trkpt>
      <trkpt lat="35.093606000" lon="-106.440774000">
        <ele>2116.000</ele>
        <time>2017-03-30T21:42:33Z</time>
        <name>WPT.802</name>
      </trkpt>
      <trkpt lat="35.093565000" lon="-106.440796000">
        <ele>2115.000</ele>
        <time>2017-03-30T21:42:36Z</time>
        <name>WPT.803</name>
      </trkpt>
      <trkpt lat="35.093525000" lon="-106.440821000">
        <ele>2116.000</ele>
        <time>2017-03-30T21:42:39Z</time>
        <name>WPT.804</name>
      </trkpt>
      <trkpt lat="35.093491000" lon="-106.440836000">
        <ele>2116.000</ele>
        <time>2017-03-30T21:42:43Z</time>
        <name>WPT.805</name>
      </trkpt>
      <trkpt lat="35.093451000" lon="-106.440837000">
        <ele>2119.000</ele>
        <time>2017-03-30T21:42:46Z</time>
        <name>WPT.806</name>
      </trkpt>
      <trkpt lat="35.093407000" lon="-106.440833000">
        <ele>2119.000</ele>
        <time>2017-03-30T21:42:49Z</time>
        <name>WPT.807</name>
      </trkpt>
      <trkpt lat="35.093375000" lon="-106.440860000">
        <ele>2118.000</ele>
        <time>2017-03-30T21:42:53Z</time>
        <name>WPT.808</name>
      </trkpt>
      <trkpt lat="35.093345000" lon="-106.440891000">
        <ele>2115.000</ele>
        <time>2017-03-30T21:42:56Z</time>
        <name>WPT.809</name>
      </trkpt>
      <trkpt lat="35.093312000" lon="-106.440917000">
        <ele>2116.000</ele>
        <time>2017-03-30T21:43:00Z</time>
        <name>WPT.810</name>
      </trkpt>
      <trkpt lat="35.093267000" lon="-106.440913000">
        <ele>2118.000</ele>
        <time>2017-03-30T21:43:04Z</time>
        <name>WPT.811</name>
      </trkpt>
      <trkpt lat="35.093224000" lon="-106.440928000">
        <ele>2118.000</ele>
        <time>2017-03-30T21:43:08Z</time>
        <name>WPT.812</name>
      </trkpt>
      <trkpt lat="35.093178000" lon="-106.440933000">
        <ele>2116.000</ele>
        <time>2017-03-30T21:43:12Z</time>
        <name>WPT.813</name>
      </trkpt>
      <trkpt lat="35.093152000" lon="-106.440885000">
        <ele>2118.000</ele>
        <time>2017-03-30T21:43:17Z</time>
        <name>WPT.814</name>
      </trkpt>
      <trkpt lat="35.093140000" lon="-106.440834000">
        <ele>2117.000</ele>
        <time>2017-03-30T21:43:22Z</time>
        <name>WPT.815</name>
      </trkpt>
      <trkpt lat="35.093109000" lon="-106.440793000">
        <ele>2119.000</ele>
        <time>2017-03-30T21:43:25Z</time>
        <name>WPT.816</name>
      </trkpt>
      <trkpt lat="35.093080000" lon="-106.440750000">
        <ele>2120.000</ele>
        <time>2017-03-30T21:43:30Z</time>
        <name>WPT.817</name>
      </trkpt>
      <trkpt lat="35.093061000" lon="-106.440712000">
        <ele>2119.000</ele>
        <time>2017-03-30T21:43:35Z</time>
        <name>WPT.818</name>
      </trkpt>
      <trkpt lat="35.093022000" lon="-106.440725000">
        <ele>2118.000</ele>
        <time>2017-03-30T21:43:45Z</time>
        <name>WPT.819</name>
      </trkpt>
      <trkpt lat="35.092995000" lon="-106.440692000">
        <ele>2116.000</ele>
        <time>2017-03-30T21:43:58Z</time>
        <name>WPT.820</name>
      </trkpt>
      <trkpt lat="35.092967000" lon="-106.440646000">
        <ele>2114.000</ele>
        <time>2017-03-30T21:44:03Z</time>
        <name>WPT.821</name>
      </trkpt>
      <trkpt lat="35.092928000" lon="-106.440633000">
        <ele>2114.000</ele>
        <time>2017-03-30T21:44:06Z</time>
        <name>WPT.822</name>
      </trkpt>
      <trkpt lat="35.092879000" lon="-106.440606000">
        <ele>2114.000</ele>
        <time>2017-03-30T21:44:12Z</time>
        <name>WPT.823</name>
      </trkpt>
      <trkpt lat="35.092844000" lon="-106.440578000">
        <ele>2114.000</ele>
        <time>2017-03-30T21:44:16Z</time>
        <name>WPT.824</name>
      </trkpt>
      <trkpt lat="35.092793000" lon="-106.440581000">
        <ele>2111.000</ele>
        <time>2017-03-30T21:44:20Z</time>
        <name>WPT.825</name>
      </trkpt>
      <trkpt lat="35.092754000" lon="-106.440580000">
        <ele>2112.000</ele>
        <time>2017-03-30T21:44:23Z</time>
        <name>WPT.826</name>
      </trkpt>
      <trkpt lat="35.092718000" lon="-106.440569000">
        <ele>2109.000</ele>
        <time>2017-03-30T21:44:26Z</time>
        <name>WPT.827</name>
      </trkpt>
      <trkpt lat="35.092684000" lon="-106.440548000">
        <ele>2109.000</ele>
        <time>2017-03-30T21:44:29Z</time>
        <name>WPT.828</name>
      </trkpt>
      <trkpt lat="35.092644000" lon="-106.440534000">
        <ele>2109.000</ele>
        <time>2017-03-30T21:44:33Z</time>
        <name>WPT.829</name>
      </trkpt>
      <trkpt lat="35.092609000" lon="-106.440516000">
        <ele>2109.000</ele>
        <time>2017-03-30T21:44:36Z</time>
        <name>WPT.830</name>
      </trkpt>
      <trkpt lat="35.092578000" lon="-106.440471000">
        <ele>2110.000</ele>
        <time>2017-03-30T21:44:40Z</time>
        <name>WPT.831</name>
      </trkpt>
      <trkpt lat="35.092563000" lon="-106.440429000">
        <ele>2109.000</ele>
        <time>2017-03-30T21:44:44Z</time>
        <name>WPT.832</name>
      </trkpt>
      <trkpt lat="35.092549000" lon="-106.440387000">
        <ele>2108.000</ele>
        <time>2017-03-30T21:44:47Z</time>
        <name>WPT.833</name>
      </trkpt>
      <trkpt lat="35.092528000" lon="-106.440351000">
        <ele>2109.000</ele>
        <time>2017-03-30T21:44:50Z</time>
        <name>WPT.834</name>
      </trkpt>
      <trkpt lat="35.092488000" lon="-106.440339000">
        <ele>2109.000</ele>
        <time>2017-03-30T21:44:53Z</time>
        <name>WPT.835</name>
      </trkpt>
      <trkpt lat="35.092437000" lon="-106.440352000">
        <ele>2110.000</ele>
        <time>2017-03-30T21:44:56Z</time>
        <name>WPT.836</name>
      </trkpt>
      <trkpt lat="35.092398000" lon="-106.440354000">
        <ele>2110.000</ele>
        <time>2017-03-30T21:45:01Z</time>
        <name>WPT.837</name>
      </trkpt>
      <trkpt lat="35.092360000" lon="-106.440356000">
        <ele>2111.000</ele>
        <time>2017-03-30T21:45:05Z</time>
        <name>WPT.838</name>
      </trkpt>
      <trkpt lat="35.092313000" lon="-106.440365000">
        <ele>2111.000</ele>
        <time>2017-03-30T21:45:10Z</time>
        <name>WPT.839</name>
      </trkpt>
      <trkpt lat="35.092278000" lon="-106.440377000">
        <ele>2112.000</ele>
        <time>2017-03-30T21:45:13Z</time>
        <name>WPT.840</name>
      </trkpt>
      <trkpt lat="35.092233000" lon="-106.440375000">
        <ele>2116.000</ele>
        <time>2017-03-30T21:45:17Z</time>
        <name>WPT.841</name>
      </trkpt>
      <trkpt lat="35.092195000" lon="-106.440385000">
        <ele>2115.000</ele>
        <time>2017-03-30T21:45:20Z</time>
        <name>WPT.842</name>
      </trkpt>
      <trkpt lat="35.092149000" lon="-106.440404000">
        <ele>2078.000</ele>
        <time>2017-03-30T21:45:24Z</time>
        <name>WPT.843</name>
      </trkpt>
      <trkpt lat="35.092104000" lon="-106.440416000">
        <ele>2095.000</ele>
        <time>2017-03-30T21:45:27Z</time>
        <name>WPT.844</name>
      </trkpt>
      <trkpt lat="35.092070000" lon="-106.440446000">
        <ele>1998.000</ele>
        <time>2017-03-30T21:45:33Z</time>
        <name>WPT.845</name>
      </trkpt>
      <trkpt lat="35.092048000" lon="-106.440484000">
        <ele>2045.000</ele>
        <time>2017-03-30T21:45:37Z</time>
        <name>WPT.846</name>
      </trkpt>
      <trkpt lat="35.092027000" lon="-106.440532000">
        <ele>2027.000</ele>
        <time>2017-03-30T21:45:40Z</time>
        <name>WPT.847</name>
      </trkpt>
      <trkpt lat="35.091999000" lon="-106.440567000">
        <ele>2072.000</ele>
        <time>2017-03-30T21:45:44Z</time>
        <name>WPT.848</name>
      </trkpt>
      <trkpt lat="35.091953000" lon="-106.440571000">
        <ele>2094.000</ele>
        <time>2017-03-30T21:45:48Z</time>
        <name>WPT.849</name>
      </trkpt>
      <trkpt lat="35.091916000" lon="-106.440581000">
        <ele>2101.000</ele>
        <time>2017-03-30T21:45:52Z</time>
        <name>WPT.850</name>
      </trkpt>
      <trkpt lat="35.091879000" lon="-106.440596000">
        <ele>2105.000</ele>
        <time>2017-03-30T21:45:55Z</time>
        <name>WPT.851</name>
      </trkpt>
      <trkpt lat="35.091836000" lon="-106.440596000">
        <ele>2107.000</ele>
        <time>2017-03-30T21:45:59Z</time>
        <name>WPT.852</name>
      </trkpt>
      <trkpt lat="35.091795000" lon="-106.440608000">
        <ele>2107.000</ele>
        <time>2017-03-30T21:46:03Z</time>
        <name>WPT.853</name>
      </trkpt>
      <trkpt lat="35.091757000" lon="-106.440633000">
        <ele>2107.000</ele>
        <time>2017-03-30T21:46:07Z</time>
        <name>WPT.854</name>
      </trkpt>
      <trkpt lat="35.091721000" lon="-106.440652000">
        <ele>2106.000</ele>
        <time>2017-03-30T21:46:10Z</time>
        <name>WPT.855</name>
      </trkpt>
      <trkpt lat="35.091678000" lon="-106.440664000">
        <ele>2106.000</ele>
        <time>2017-03-30T21:46:14Z</time>
        <name>WPT.856</name>
      </trkpt>
      <trkpt lat="35.091635000" lon="-106.440673000">
        <ele>2106.000</ele>
        <time>2017-03-30T21:46:21Z</time>
        <name>WPT.857</name>
      </trkpt>
      <trkpt lat="35.091596000" lon="-106.440684000">
        <ele>2104.000</ele>
        <time>2017-03-30T21:46:25Z</time>
        <name>WPT.858</name>
      </trkpt>
      <trkpt lat="35.091562000" lon="-106.440702000">
        <ele>2100.000</ele>
        <time>2017-03-30T21:46:29Z</time>
        <name>WPT.859</name>
      </trkpt>
      <trkpt lat="35.091532000" lon="-106.440730000">
        <ele>2101.000</ele>
        <time>2017-03-30T21:46:32Z</time>
        <name>WPT.860</name>
      </trkpt>
      <trkpt lat="35.091499000" lon="-106.440767000">
        <ele>2104.000</ele>
        <time>2017-03-30T21:46:36Z</time>
        <name>WPT.861</name>
      </trkpt>
      <trkpt lat="35.091461000" lon="-106.440792000">
        <ele>2106.000</ele>
        <time>2017-03-30T21:46:39Z</time>
        <name>WPT.862</name>
      </trkpt>
      <trkpt lat="35.091429000" lon="-106.440814000">
        <ele>2106.000</ele>
        <time>2017-03-30T21:46:43Z</time>
        <name>WPT.863</name>
      </trkpt>
      <trkpt lat="35.091399000" lon="-106.440843000">
        <ele>2104.000</ele>
        <time>2017-03-30T21:46:47Z</time>
        <name>WPT.864</name>
      </trkpt>
      <trkpt lat="35.091358000" lon="-106.440862000">
        <ele>2100.000</ele>
        <time>2017-03-30T21:46:52Z</time>
        <name>WPT.865</name>
      </trkpt>
      <trkpt lat="35.091318000" lon="-106.440887000">
        <ele>2102.000</ele>
        <time>2017-03-30T21:46:55Z</time>
        <name>WPT.866</name>
      </trkpt>
      <trkpt lat="35.091281000" lon="-106.440919000">
        <ele>2101.000</ele>
        <time>2017-03-30T21:47:02Z</time>
        <name>WPT.867</name>
      </trkpt>
      <trkpt lat="35.091245000" lon="-106.440904000">
        <ele>2099.000</ele>
        <time>2017-03-30T21:47:06Z</time>
        <name>WPT.868</name>
      </trkpt>
      <trkpt lat="35.091208000" lon="-106.440894000">
        <ele>2102.000</ele>
        <time>2017-03-30T21:47:10Z</time>
        <name>WPT.869</name>
      </trkpt>
      <trkpt lat="35.091169000" lon="-106.440902000">
        <ele>2103.000</ele>
        <time>2017-03-30T21:47:14Z</time>
        <name>WPT.870</name>
      </trkpt>
      <trkpt lat="35.091137000" lon="-106.440880000">
        <ele>2103.000</ele>
        <time>2017-03-30T21:47:18Z</time>
        <name>WPT.871</name>
      </trkpt>
      <trkpt lat="35.091095000" lon="-106.440865000">
        <ele>2105.000</ele>
        <time>2017-03-30T21:47:23Z</time>
        <name>WPT.872</name>
      </trkpt>
      <trkpt lat="35.091056000" lon="-106.440893000">
        <ele>2102.000</ele>
        <time>2017-03-30T21:47:26Z</time>
        <name>WPT.873</name>
      </trkpt>
      <trkpt lat="35.091029000" lon="-106.440941000">
        <ele>2095.000</ele>
        <time>2017-03-30T21:47:30Z</time>
        <name>WPT.874</name>
      </trkpt>
      <trkpt lat="35.091020000" lon="-106.440986000">
        <ele>2096.000</ele>
        <time>2017-03-30T21:47:33Z</time>
        <name>WPT.875</name>
      </trkpt>
      <trkpt lat="35.091019000" lon="-106.441032000">
        <ele>2097.000</ele>
        <time>2017-03-30T21:47:37Z</time>
        <name>WPT.876</name>
      </trkpt>
      <trkpt lat="35.091013000" lon="-106.441084000">
        <ele>2099.000</ele>
        <time>2017-03-30T21:47:41Z</time>
        <name>WPT.877</name>
      </trkpt>
      <trkpt lat="35.091007000" lon="-106.441136000">
        <ele>2097.000</ele>
        <time>2017-03-30T21:47:46Z</time>
        <name>WPT.878</name>
      </trkpt>
      <trkpt lat="35.091005000" lon="-106.441191000">
        <ele>2097.000</ele>
        <time>2017-03-30T21:47:49Z</time>
        <name>WPT.879</name>
      </trkpt>
      <trkpt lat="35.090994000" lon="-106.441246000">
        <ele>2095.000</ele>
        <time>2017-03-30T21:47:53Z</time>
        <name>WPT.880</name>
      </trkpt>
      <trkpt lat="35.090984000" lon="-106.441289000">
        <ele>2094.000</ele>
        <time>2017-03-30T21:47:57Z</time>
        <name>WPT.881</name>
      </trkpt>
      <trkpt lat="35.090950000" lon="-106.441306000">
        <ele>2094.000</ele>
        <time>2017-03-30T21:48:01Z</time>
        <name>WPT.882</name>
      </trkpt>
      <trkpt lat="35.090911000" lon="-106.441330000">
        <ele>2093.000</ele>
        <time>2017-03-30T21:48:05Z</time>
        <name>WPT.883</name>
      </trkpt>
      <trkpt lat="35.090875000" lon="-106.441362000">
        <ele>2093.000</ele>
        <time>2017-03-30T21:48:09Z</time>
        <name>WPT.884</name>
      </trkpt>
      <trkpt lat="35.090850000" lon="-106.441408000">
        <ele>2093.000</ele>
        <time>2017-03-30T21:48:12Z</time>
        <name>WPT.885</name>
      </trkpt>
      <trkpt lat="35.090822000" lon="-106.441445000">
        <ele>2092.000</ele>
        <time>2017-03-30T21:48:16Z</time>
        <name>WPT.886</name>
      </trkpt>
      <trkpt lat="35.090782000" lon="-106.441452000">
        <ele>2092.000</ele>
        <time>2017-03-30T21:48:19Z</time>
        <name>WPT.887</name>
      </trkpt>
      <trkpt lat="35.090752000" lon="-106.441494000">
        <ele>2090.000</ele>
        <time>2017-03-30T21:48:23Z</time>
        <name>WPT.888</name>
      </trkpt>
      <trkpt lat="35.090737000" lon="-106.441540000">
        <ele>2090.000</ele>
        <time>2017-03-30T21:48:26Z</time>
        <name>WPT.889</name>
      </trkpt>
      <trkpt lat="35.090706000" lon="-106.441576000">
        <ele>2090.000</ele>
        <time>2017-03-30T21:48:29Z</time>
        <name>WPT.890</name>
      </trkpt>
      <trkpt lat="35.090671000" lon="-106.441590000">
        <ele>2089.000</ele>
        <time>2017-03-30T21:48:33Z</time>
        <name>WPT.891</name>
      </trkpt>
      <trkpt lat="35.090637000" lon="-106.441612000">
        <ele>2089.000</ele>
        <time>2017-03-30T21:48:37Z</time>
        <name>WPT.892</name>
      </trkpt>
      <trkpt lat="35.090592000" lon="-106.441637000">
        <ele>2088.000</ele>
        <time>2017-03-30T21:48:41Z</time>
        <name>WPT.893</name>
      </trkpt>
      <trkpt lat="35.090550000" lon="-106.441659000">
        <ele>2071.000</ele>
        <time>2017-03-30T21:48:45Z</time>
        <name>WPT.894</name>
      </trkpt>
      <trkpt lat="35.090505000" lon="-106.441668000">
        <ele>2082.000</ele>
        <time>2017-03-30T21:48:49Z</time>
        <name>WPT.895</name>
      </trkpt>
      <trkpt lat="35.090463000" lon="-106.441667000">
        <ele>2084.000</ele>
        <time>2017-03-30T21:48:53Z</time>
        <name>WPT.896</name>
      </trkpt>
      <trkpt lat="35.090428000" lon="-106.441685000">
        <ele>2085.000</ele>
        <time>2017-03-30T21:48:57Z</time>
        <name>WPT.897</name>
      </trkpt>
      <trkpt lat="35.090395000" lon="-106.441706000">
        <ele>2082.000</ele>
        <time>2017-03-30T21:49:03Z</time>
        <name>WPT.898</name>
      </trkpt>
      <trkpt lat="35.090346000" lon="-106.441695000">
        <ele>2083.000</ele>
        <time>2017-03-30T21:49:08Z</time>
        <name>WPT.899</name>
      </trkpt>
      <trkpt lat="35.090307000" lon="-106.441704000">
        <ele>2082.000</ele>
        <time>2017-03-30T21:49:11Z</time>
        <name>WPT.900</name>
      </trkpt>
      <trkpt lat="35.090268000" lon="-106.441720000">
        <ele>2082.000</ele>
        <time>2017-03-30T21:49:14Z</time>
        <name>WPT.901</name>
      </trkpt>
      <trkpt lat="35.090223000" lon="-106.441758000">
        <ele>2082.000</ele>
        <time>2017-03-30T21:49:19Z</time>
        <name>WPT.902</name>
      </trkpt>
      <trkpt lat="35.090188000" lon="-106.441774000">
        <ele>2082.000</ele>
        <time>2017-03-30T21:49:22Z</time>
        <name>WPT.903</name>
      </trkpt>
      <trkpt lat="35.090147000" lon="-106.441799000">
        <ele>2080.000</ele>
        <time>2017-03-30T21:49:26Z</time>
        <name>WPT.904</name>
      </trkpt>
      <trkpt lat="35.090115000" lon="-106.441828000">
        <ele>2079.000</ele>
        <time>2017-03-30T21:49:29Z</time>
        <name>WPT.905</name>
      </trkpt>
      <trkpt lat="35.090081000" lon="-106.441848000">
        <ele>2080.000</ele>
        <time>2017-03-30T21:49:34Z</time>
        <name>WPT.906</name>
      </trkpt>
      <trkpt lat="35.090034000" lon="-106.441848000">
        <ele>2078.000</ele>
        <time>2017-03-30T21:49:38Z</time>
        <name>WPT.907</name>
      </trkpt>
      <trkpt lat="35.089992000" lon="-106.441836000">
        <ele>2076.000</ele>
        <time>2017-03-30T21:49:43Z</time>
        <name>WPT.908</name>
      </trkpt>
      <trkpt lat="35.089952000" lon="-106.441848000">
        <ele>2076.000</ele>
        <time>2017-03-30T21:49:46Z</time>
        <name>WPT.909</name>
      </trkpt>
      <trkpt lat="35.089916000" lon="-106.441861000">
        <ele>2079.000</ele>
        <time>2017-03-30T21:49:50Z</time>
        <name>WPT.910</name>
      </trkpt>
      <trkpt lat="35.089882000" lon="-106.441893000">
        <ele>2077.000</ele>
        <time>2017-03-30T21:49:54Z</time>
        <name>WPT.911</name>
      </trkpt>
      <trkpt lat="35.089854000" lon="-106.441927000">
        <ele>2076.000</ele>
        <time>2017-03-30T21:49:57Z</time>
        <name>WPT.912</name>
      </trkpt>
      <trkpt lat="35.089822000" lon="-106.441962000">
        <ele>2073.000</ele>
        <time>2017-03-30T21:50:01Z</time>
        <name>WPT.913</name>
      </trkpt>
      <trkpt lat="35.089777000" lon="-106.441990000">
        <ele>2073.000</ele>
        <time>2017-03-30T21:50:05Z</time>
        <name>WPT.914</name>
      </trkpt>
      <trkpt lat="35.089747000" lon="-106.442022000">
        <ele>2072.000</ele>
        <time>2017-03-30T21:50:09Z</time>
        <name>WPT.915</name>
      </trkpt>
      <trkpt lat="35.089706000" lon="-106.442054000">
        <ele>2071.000</ele>
        <time>2017-03-30T21:50:14Z</time>
        <name>WPT.916</name>
      </trkpt>
      <trkpt lat="35.089670000" lon="-106.442042000">
        <ele>2072.000</ele>
        <time>2017-03-30T21:50:19Z</time>
        <name>WPT.917</name>
      </trkpt>
      <trkpt lat="35.089632000" lon="-106.442028000">
        <ele>2071.000</ele>
        <time>2017-03-30T21:50:23Z</time>
        <name>WPT.918</name>
      </trkpt>
      <trkpt lat="35.089593000" lon="-106.442021000">
        <ele>2073.000</ele>
        <time>2017-03-30T21:50:28Z</time>
        <name>WPT.919</name>
      </trkpt>
      <trkpt lat="35.089549000" lon="-106.442020000">
        <ele>2072.000</ele>
        <time>2017-03-30T21:50:31Z</time>
        <name>WPT.920</name>
      </trkpt>
      <trkpt lat="35.089505000" lon="-106.442006000">
        <ele>2074.000</ele>
        <time>2017-03-30T21:50:36Z</time>
        <name>WPT.921</name>
      </trkpt>
      <trkpt lat="35.089468000" lon="-106.442000000">
        <ele>2071.000</ele>
        <time>2017-03-30T21:50:39Z</time>
        <name>WPT.922</name>
      </trkpt>
      <trkpt lat="35.089426000" lon="-106.442001000">
        <ele>2069.000</ele>
        <time>2017-03-30T21:50:42Z</time>
        <name>WPT.923</name>
      </trkpt>
      <trkpt lat="35.089377000" lon="-106.442000000">
        <ele>2070.000</ele>
        <time>2017-03-30T21:50:46Z</time>
        <name>WPT.924</name>
      </trkpt>
      <trkpt lat="35.089335000" lon="-106.442009000">
        <ele>2070.000</ele>
        <time>2017-03-30T21:50:49Z</time>
        <name>WPT.925</name>
      </trkpt>
      <trkpt lat="35.089289000" lon="-106.442013000">
        <ele>2072.000</ele>
        <time>2017-03-30T21:50:53Z</time>
        <name>WPT.926</name>
      </trkpt>
      <trkpt lat="35.089246000" lon="-106.442023000">
        <ele>2071.000</ele>
        <time>2017-03-30T21:50:56Z</time>
        <name>WPT.927</name>
      </trkpt>
      <trkpt lat="35.089199000" lon="-106.442041000">
        <ele>2070.000</ele>
        <time>2017-03-30T21:50:59Z</time>
        <name>WPT.928</name>
      </trkpt>
      <trkpt lat="35.089163000" lon="-106.442051000">
        <ele>2068.000</ele>
        <time>2017-03-30T21:51:04Z</time>
        <name>WPT.929</name>
      </trkpt>
      <trkpt lat="35.089112000" lon="-106.442065000">
        <ele>2066.000</ele>
        <time>2017-03-30T21:51:08Z</time>
        <name>WPT.930</name>
      </trkpt>
      <trkpt lat="35.089059000" lon="-106.442062000">
        <ele>2069.000</ele>
        <time>2017-03-30T21:51:13Z</time>
        <name>WPT.931</name>
      </trkpt>
      <trkpt lat="35.089011000" lon="-106.442081000">
        <ele>2066.000</ele>
        <time>2017-03-30T21:51:17Z</time>
        <name>WPT.932</name>
      </trkpt>
      <trkpt lat="35.088977000" lon="-106.442103000">
        <ele>2065.000</ele>
        <time>2017-03-30T21:51:22Z</time>
        <name>WPT.933</name>
      </trkpt>
      <trkpt lat="35.088938000" lon="-106.442130000">
        <ele>2065.000</ele>
        <time>2017-03-30T21:51:26Z</time>
        <name>WPT.934</name>
      </trkpt>
      <trkpt lat="35.088898000" lon="-106.442141000">
        <ele>2064.000</ele>
        <time>2017-03-30T21:51:30Z</time>
        <name>WPT.935</name>
      </trkpt>
      <trkpt lat="35.088863000" lon="-106.442134000">
        <ele>2063.000</ele>
        <time>2017-03-30T21:51:33Z</time>
        <name>WPT.936</name>
      </trkpt>
      <trkpt lat="35.088823000" lon="-106.442147000">
        <ele>2063.000</ele>
        <time>2017-03-30T21:51:36Z</time>
        <name>WPT.937</name>
      </trkpt>
      <trkpt lat="35.088783000" lon="-106.442136000">
        <ele>2060.000</ele>
        <time>2017-03-30T21:51:40Z</time>
        <name>WPT.938</name>
      </trkpt>
      <trkpt lat="35.088735000" lon="-106.442139000">
        <ele>2059.000</ele>
        <time>2017-03-30T21:51:44Z</time>
        <name>WPT.939</name>
      </trkpt>
      <trkpt lat="35.088695000" lon="-106.442146000">
        <ele>2060.000</ele>
        <time>2017-03-30T21:51:48Z</time>
        <name>WPT.940</name>
      </trkpt>
      <trkpt lat="35.088648000" lon="-106.442145000">
        <ele>2060.000</ele>
        <time>2017-03-30T21:51:52Z</time>
        <name>WPT.941</name>
      </trkpt>
      <trkpt lat="35.088608000" lon="-106.442132000">
        <ele>2059.000</ele>
        <time>2017-03-30T21:51:56Z</time>
        <name>WPT.942</name>
      </trkpt>
      <trkpt lat="35.088570000" lon="-106.442117000">
        <ele>2058.000</ele>
        <time>2017-03-30T21:51:59Z</time>
        <name>WPT.943</name>
      </trkpt>
      <trkpt lat="35.088534000" lon="-106.442137000">
        <ele>2056.000</ele>
        <time>2017-03-30T21:52:02Z</time>
        <name>WPT.944</name>
      </trkpt>
      <trkpt lat="35.088502000" lon="-106.442158000">
        <ele>2056.000</ele>
        <time>2017-03-30T21:52:06Z</time>
        <name>WPT.945</name>
      </trkpt>
      <trkpt lat="35.088463000" lon="-106.442154000">
        <ele>2056.000</ele>
        <time>2017-03-30T21:52:10Z</time>
        <name>WPT.946</name>
      </trkpt>
      <trkpt lat="35.088425000" lon="-106.442158000">
        <ele>2055.000</ele>
        <time>2017-03-30T21:52:13Z</time>
        <name>WPT.947</name>
      </trkpt>
      <trkpt lat="35.088388000" lon="-106.442150000">
        <ele>2056.000</ele>
        <time>2017-03-30T21:52:19Z</time>
        <name>WPT.948</name>
      </trkpt>
      <trkpt lat="35.088349000" lon="-106.442162000">
        <ele>2056.000</ele>
        <time>2017-03-30T21:52:22Z</time>
        <name>WPT.949</name>
      </trkpt>
      <trkpt lat="35.088306000" lon="-106.442156000">
        <ele>2057.000</ele>
        <time>2017-03-30T21:52:27Z</time>
        <name>WPT.950</name>
      </trkpt>
      <trkpt lat="35.088266000" lon="-106.442140000">
        <ele>2057.000</ele>
        <time>2017-03-30T21:52:32Z</time>
        <name>WPT.951</name>
      </trkpt>
      <trkpt lat="35.088231000" lon="-106.442154000">
        <ele>2051.000</ele>
        <time>2017-03-30T21:52:36Z</time>
        <name>WPT.952</name>
      </trkpt>
      <trkpt lat="35.088185000" lon="-106.442151000">
        <ele>2051.000</ele>
        <time>2017-03-30T21:52:40Z</time>
        <name>WPT.953</name>
      </trkpt>
      <trkpt lat="35.088148000" lon="-106.442138000">
        <ele>2053.000</ele>
        <time>2017-03-30T21:52:44Z</time>
        <name>WPT.954</name>
      </trkpt>
      <trkpt lat="35.088109000" lon="-106.442153000">
        <ele>2051.000</ele>
        <time>2017-03-30T21:52:48Z</time>
        <name>WPT.955</name>
      </trkpt>
      <trkpt lat="35.088072000" lon="-106.442137000">
        <ele>2050.000</ele>
        <time>2017-03-30T21:52:52Z</time>
        <name>WPT.956</name>
      </trkpt>
      <trkpt lat="35.088037000" lon="-106.442111000">
        <ele>2050.000</ele>
        <time>2017-03-30T21:52:57Z</time>
        <name>WPT.957</name>
      </trkpt>
      <trkpt lat="35.088017000" lon="-106.442066000">
        <ele>2050.000</ele>
        <time>2017-03-30T21:53:00Z</time>
        <name>WPT.958</name>
      </trkpt>
      <trkpt lat="35.087983000" lon="-106.442039000">
        <ele>2050.000</ele>
        <time>2017-03-30T21:53:04Z</time>
        <name>WPT.959</name>
      </trkpt>
      <trkpt lat="35.087946000" lon="-106.442018000">
        <ele>2051.000</ele>
        <time>2017-03-30T21:53:07Z</time>
        <name>WPT.960</name>
      </trkpt>
      <trkpt lat="35.087903000" lon="-106.441997000">
        <ele>2049.000</ele>
        <time>2017-03-30T21:53:10Z</time>
        <name>WPT.961</name>
      </trkpt>
      <trkpt lat="35.087853000" lon="-106.441973000">
        <ele>2047.000</ele>
        <time>2017-03-30T21:53:13Z</time>
        <name>WPT.962</name>
      </trkpt>
      <trkpt lat="35.087814000" lon="-106.441968000">
        <ele>2047.000</ele>
        <time>2017-03-30T21:53:16Z</time>
        <name>WPT.963</name>
      </trkpt>
      <trkpt lat="35.087778000" lon="-106.441957000">
        <ele>2046.000</ele>
        <time>2017-03-30T21:53:19Z</time>
        <name>WPT.964</name>
      </trkpt>
      <trkpt lat="35.087744000" lon="-106.441938000">
        <ele>2044.000</ele>
        <time>2017-03-30T21:53:22Z</time>
        <name>WPT.965</name>
      </trkpt>
      <trkpt lat="35.087706000" lon="-106.441917000">
        <ele>2042.000</ele>
        <time>2017-03-30T21:53:25Z</time>
        <name>WPT.966</name>
      </trkpt>
      <trkpt lat="35.087668000" lon="-106.441907000">
        <ele>2040.000</ele>
        <time>2017-03-30T21:53:29Z</time>
        <name>WPT.967</name>
      </trkpt>
      <trkpt lat="35.087628000" lon="-106.441900000">
        <ele>2039.000</ele>
        <time>2017-03-30T21:53:32Z</time>
        <name>WPT.968</name>
      </trkpt>
      <trkpt lat="35.087587000" lon="-106.441907000">
        <ele>2038.000</ele>
        <time>2017-03-30T21:53:34Z</time>
        <name>WPT.969</name>
      </trkpt>
      <trkpt lat="35.087546000" lon="-106.441923000">
        <ele>2039.000</ele>
        <time>2017-03-30T21:53:37Z</time>
        <name>WPT.970</name>
      </trkpt>
      <trkpt lat="35.087505000" lon="-106.441921000">
        <ele>2038.000</ele>
        <time>2017-03-30T21:53:41Z</time>
        <name>WPT.971</name>
      </trkpt>
      <trkpt lat="35.087470000" lon="-106.441926000">
        <ele>2039.000</ele>
        <time>2017-03-30T21:53:46Z</time>
        <name>WPT.972</name>
      </trkpt>
      <trkpt lat="35.087410000" lon="-106.441955000">
        <ele>2039.000</ele>
        <time>2017-03-30T21:53:52Z</time>
        <name>WPT.973</name>
      </trkpt>
      <trkpt lat="35.087379000" lon="-106.441932000">
        <ele>2040.000</ele>
        <time>2017-03-30T21:53:57Z</time>
        <name>WPT.974</name>
      </trkpt>
      <trkpt lat="35.087338000" lon="-106.441927000">
        <ele>2040.000</ele>
        <time>2017-03-30T21:54:00Z</time>
        <name>WPT.975</name>
      </trkpt>
      <trkpt lat="35.087301000" lon="-106.441943000">
        <ele>2039.000</ele>
        <time>2017-03-30T21:54:03Z</time>
        <name>WPT.976</name>
      </trkpt>
      <trkpt lat="35.087263000" lon="-106.441955000">
        <ele>2039.000</ele>
        <time>2017-03-30T21:54:07Z</time>
        <name>WPT.977</name>
      </trkpt>
      <trkpt lat="35.087225000" lon="-106.441967000">
        <ele>2038.000</ele>
        <time>2017-03-30T21:54:10Z</time>
        <name>WPT.978</name>
      </trkpt>
      <trkpt lat="35.087187000" lon="-106.441983000">
        <ele>2037.000</ele>
        <time>2017-03-30T21:54:13Z</time>
        <name>WPT.979</name>
      </trkpt>
      <trkpt lat="35.087151000" lon="-106.442001000">
        <ele>2037.000</ele>
        <time>2017-03-30T21:54:16Z</time>
        <name>WPT.980</name>
      </trkpt>
      <trkpt lat="35.087116000" lon="-106.442022000">
        <ele>2035.000</ele>
        <time>2017-03-30T21:54:19Z</time>
        <name>WPT.981</name>
      </trkpt>
      <trkpt lat="35.087073000" lon="-106.442036000">
        <ele>2034.000</ele>
        <time>2017-03-30T21:54:23Z</time>
        <name>WPT.982</name>
      </trkpt>
      <trkpt lat="35.087033000" lon="-106.442046000">
        <ele>2034.000</ele>
        <time>2017-03-30T21:54:27Z</time>
        <name>WPT.983</name>
      </trkpt>
      <trkpt lat="35.087000000" lon="-106.442070000">
        <ele>2033.000</ele>
        <time>2017-03-30T21:54:30Z</time>
        <name>WPT.984</name>
      </trkpt>
      <trkpt lat="35.086966000" lon="-106.442095000">
        <ele>2033.000</ele>
        <time>2017-03-30T21:54:33Z</time>
        <name>WPT.985</name>
      </trkpt>
      <trkpt lat="35.086930000" lon="-106.442099000">
        <ele>2033.000</ele>
        <time>2017-03-30T21:54:36Z</time>
        <name>WPT.986</name>
      </trkpt>
      <trkpt lat="35.086888000" lon="-106.442123000">
        <ele>2032.000</ele>
        <time>2017-03-30T21:54:40Z</time>
        <name>WPT.987</name>
      </trkpt>
      <trkpt lat="35.086846000" lon="-106.442151000">
        <ele>2032.000</ele>
        <time>2017-03-30T21:54:44Z</time>
        <name>WPT.988</name>
      </trkpt>
      <trkpt lat="35.086820000" lon="-106.442189000">
        <ele>2032.000</ele>
        <time>2017-03-30T21:54:47Z</time>
        <name>WPT.989</name>
      </trkpt>
      <trkpt lat="35.086786000" lon="-106.442206000">
        <ele>2032.000</ele>
        <time>2017-03-30T21:54:50Z</time>
        <name>WPT.990</name>
      </trkpt>
      <trkpt lat="35.086744000" lon="-106.442228000">
        <ele>2030.000</ele>
        <time>2017-03-30T21:54:54Z</time>
        <name>WPT.991</name>
      </trkpt>
      <trkpt lat="35.086703000" lon="-106.442248000">
        <ele>2029.000</ele>
        <time>2017-03-30T21:54:58Z</time>
        <name>WPT.992</name>
      </trkpt>
      <trkpt lat="35.086656000" lon="-106.442275000">
        <ele>2027.000</ele>
        <time>2017-03-30T21:55:02Z</time>
        <name>WPT.993</name>
      </trkpt>
      <trkpt lat="35.086623000" lon="-106.442301000">
        <ele>2026.000</ele>
        <time>2017-03-30T21:55:05Z</time>
        <name>WPT.994</name>
      </trkpt>
      <trkpt lat="35.086587000" lon="-106.442336000">
        <ele>2025.000</ele>
        <time>2017-03-30T21:55:10Z</time>
        <name>WPT.995</name>
      </trkpt>
      <trkpt lat="35.086550000" lon="-106.442347000">
        <ele>2027.000</ele>
        <time>2017-03-30T21:55:14Z</time>
        <name>WPT.996</name>
      </trkpt>
      <trkpt lat="35.086502000" lon="-106.442345000">
        <ele>2030.000</ele>
        <time>2017-03-30T21:55:27Z</time>
        <name>WPT.997</name>
      </trkpt>
      <trkpt lat="35.086462000" lon="-106.442365000">
        <ele>2030.000</ele>
        <time>2017-03-30T21:55:30Z</time>
        <name>WPT.998</name>
      </trkpt>
      <trkpt lat="35.086419000" lon="-106.442360000">
        <ele>2029.000</ele>
        <time>2017-03-30T21:55:35Z</time>
        <name>WPT.999</name>
      </trkpt>
      <trkpt lat="35.086375000" lon="-106.442385000">
        <ele>2027.000</ele>
        <time>2017-03-30T21:55:39Z</time>
        <name>WPT.1000</name>
      </trkpt>
      <trkpt lat="35.086338000" lon="-106.442403000">
        <ele>2026.000</ele>
        <time>2017-03-30T21:55:42Z</time>
        <name>WPT.1001</name>
      </trkpt>
      <trkpt lat="35.086301000" lon="-106.442410000">
        <ele>2027.000</ele>
        <time>2017-03-30T21:56:55Z</time>
        <name>WPT.1002</name>
      </trkpt>
      <trkpt lat="35.086266000" lon="-106.442396000">
        <ele>2028.000</ele>
        <time>2017-03-30T21:56:58Z</time>
        <name>WPT.1003</name>
      </trkpt>
      <trkpt lat="35.086232000" lon="-106.442380000">
        <ele>2029.000</ele>
        <time>2017-03-30T21:57:01Z</time>
        <name>WPT.1004</name>
      </trkpt>
      <trkpt lat="35.086192000" lon="-106.442375000">
        <ele>2028.000</ele>
        <time>2017-03-30T21:57:04Z</time>
        <name>WPT.1005</name>
      </trkpt>
      <trkpt lat="35.086146000" lon="-106.442392000">
        <ele>1991.000</ele>
        <time>2017-03-30T21:57:09Z</time>
        <name>WPT.1006</name>
      </trkpt>
      <trkpt lat="35.086095000" lon="-106.442395000">
        <ele>2011.000</ele>
        <time>2017-03-30T21:57:13Z</time>
        <name>WPT.1007</name>
      </trkpt>
      <trkpt lat="35.086054000" lon="-106.442406000">
        <ele>2019.000</ele>
        <time>2017-03-30T21:57:17Z</time>
        <name>WPT.1008</name>
      </trkpt>
      <trkpt lat="35.086037000" lon="-106.442451000">
        <ele>1987.000</ele>
        <time>2017-03-30T21:57:33Z</time>
        <name>WPT.1009</name>
      </trkpt>
      <trkpt lat="35.086004000" lon="-106.442477000">
        <ele>2011.000</ele>
        <time>2017-03-30T21:57:40Z</time>
        <name>WPT.1010</name>
      </trkpt>
      <trkpt lat="35.085969000" lon="-106.442493000">
        <ele>2017.000</ele>
        <time>2017-03-30T21:57:44Z</time>
        <name>WPT.1011</name>
      </trkpt>
      <trkpt lat="35.085928000" lon="-106.442497000">
        <ele>2023.000</ele>
        <time>2017-03-30T21:57:48Z</time>
        <name>WPT.1012</name>
      </trkpt>
      <trkpt lat="35.085886000" lon="-106.442503000">
        <ele>2024.000</ele>
        <time>2017-03-30T21:57:52Z</time>
        <name>WPT.1013</name>
      </trkpt>
      <trkpt lat="35.085844000" lon="-106.442515000">
        <ele>2025.000</ele>
        <time>2017-03-30T21:57:55Z</time>
        <name>WPT.1014</name>
      </trkpt>
      <trkpt lat="35.085799000" lon="-106.442543000">
        <ele>2025.000</ele>
        <time>2017-03-30T21:57:58Z</time>
        <name>WPT.1015</name>
      </trkpt>
      <trkpt lat="35.085766000" lon="-106.442561000">
        <ele>2026.000</ele>
        <time>2017-03-30T21:58:01Z</time>
        <name>WPT.1016</name>
      </trkpt>
      <trkpt lat="35.085734000" lon="-106.442586000">
        <ele>2026.000</ele>
        <time>2017-03-30T21:58:04Z</time>
        <name>WPT.1017</name>
      </trkpt>
      <trkpt lat="35.085699000" lon="-106.442616000">
        <ele>2024.000</ele>
        <time>2017-03-30T21:58:08Z</time>
        <name>WPT.1018</name>
      </trkpt>
      <trkpt lat="35.085663000" lon="-106.442634000">
        <ele>2023.000</ele>
        <time>2017-03-30T21:58:11Z</time>
        <name>WPT.1019</name>
      </trkpt>
      <trkpt lat="35.085624000" lon="-106.442659000">
        <ele>2021.000</ele>
        <time>2017-03-30T21:58:15Z</time>
        <name>WPT.1020</name>
      </trkpt>
      <trkpt lat="35.085578000" lon="-106.442671000">
        <ele>2021.000</ele>
        <time>2017-03-30T21:58:19Z</time>
        <name>WPT.1021</name>
      </trkpt>
      <trkpt lat="35.085539000" lon="-106.442658000">
        <ele>2020.000</ele>
        <time>2017-03-30T21:58:25Z</time>
        <name>WPT.1022</name>
      </trkpt>
      <trkpt lat="35.085509000" lon="-106.442691000">
        <ele>2019.000</ele>
        <time>2017-03-30T21:58:29Z</time>
        <name>WPT.1023</name>
      </trkpt>
      <trkpt lat="35.085477000" lon="-106.442715000">
        <ele>1957.000</ele>
        <time>2017-03-30T21:58:32Z</time>
        <name>WPT.1024</name>
      </trkpt>
      <trkpt lat="35.085442000" lon="-106.442725000">
        <ele>1990.000</ele>
        <time>2017-03-30T21:58:35Z</time>
        <name>WPT.1025</name>
      </trkpt>
      <trkpt lat="35.085406000" lon="-106.442735000">
        <ele>2006.000</ele>
        <time>2017-03-30T21:58:39Z</time>
        <name>WPT.1026</name>
      </trkpt>
      <trkpt lat="35.085360000" lon="-106.442750000">
        <ele>2013.000</ele>
        <time>2017-03-30T21:58:42Z</time>
        <name>WPT.1027</name>
      </trkpt>
      <trkpt lat="35.085313000" lon="-106.442763000">
        <ele>2015.000</ele>
        <time>2017-03-30T21:58:46Z</time>
        <name>WPT.1028</name>
      </trkpt>
      <trkpt lat="35.085272000" lon="-106.442786000">
        <ele>1992.000</ele>
        <time>2017-03-30T21:58:49Z</time>
        <name>WPT.1029</name>
      </trkpt>
      <trkpt lat="35.085233000" lon="-106.442804000">
        <ele>2002.000</ele>
        <time>2017-03-30T21:58:54Z</time>
        <name>WPT.1030</name>
      </trkpt>
      <trkpt lat="35.085192000" lon="-106.442809000">
        <ele>2006.000</ele>
        <time>2017-03-30T21:58:57Z</time>
        <name>WPT.1031</name>
      </trkpt>
      <trkpt lat="35.085148000" lon="-106.442820000">
        <ele>2006.000</ele>
        <time>2017-03-30T21:59:01Z</time>
        <name>WPT.1032</name>
      </trkpt>
      <trkpt lat="35.085102000" lon="-106.442809000">
        <ele>2011.000</ele>
        <time>2017-03-30T21:59:04Z</time>
        <name>WPT.1033</name>
      </trkpt>
      <trkpt lat="35.085061000" lon="-106.442805000">
        <ele>2010.000</ele>
        <time>2017-03-30T21:59:06Z</time>
        <name>WPT.1034</name>
      </trkpt>
      <trkpt lat="35.085021000" lon="-106.442815000">
        <ele>2012.000</ele>
        <time>2017-03-30T21:59:09Z</time>
        <name>WPT.1035</name>
      </trkpt>
      <trkpt lat="35.084981000" lon="-106.442824000">
        <ele>2013.000</ele>
        <time>2017-03-30T21:59:13Z</time>
        <name>WPT.1036</name>
      </trkpt>
      <trkpt lat="35.084946000" lon="-106.442838000">
        <ele>2013.000</ele>
        <time>2017-03-30T21:59:17Z</time>
        <name>WPT.1037</name>
      </trkpt>
      <trkpt lat="35.084899000" lon="-106.442847000">
        <ele>2010.000</ele>
        <time>2017-03-30T21:59:22Z</time>
        <name>WPT.1038</name>
      </trkpt>
      <trkpt lat="35.084846000" lon="-106.442855000">
        <ele>2008.000</ele>
        <time>2017-03-30T21:59:28Z</time>
        <name>WPT.1039</name>
      </trkpt>
      <trkpt lat="35.084801000" lon="-106.442859000">
        <ele>2007.000</ele>
        <time>2017-03-30T21:59:32Z</time>
        <name>WPT.1040</name>
      </trkpt>
      <trkpt lat="35.084759000" lon="-106.442862000">
        <ele>2006.000</ele>
        <time>2017-03-30T21:59:37Z</time>
        <name>WPT.1041</name>
      </trkpt>
      <trkpt lat="35.084713000" lon="-106.442866000">
        <ele>2006.000</ele>
        <time>2017-03-30T21:59:41Z</time>
        <name>WPT.1042</name>
      </trkpt>
      <trkpt lat="35.084676000" lon="-106.442898000">
        <ele>2005.000</ele>
        <time>2017-03-30T21:59:45Z</time>
        <name>WPT.1043</name>
      </trkpt>
      <trkpt lat="35.084642000" lon="-106.442921000">
        <ele>2003.000</ele>
        <time>2017-03-30T21:59:48Z</time>
        <name>WPT.1044</name>
      </trkpt>
      <trkpt lat="35.084613000" lon="-106.442949000">
        <ele>2003.000</ele>
        <time>2017-03-30T21:59:50Z</time>
        <name>WPT.1045</name>
      </trkpt>
      <trkpt lat="35.084565000" lon="-106.442976000">
        <ele>2004.000</ele>
        <time>2017-03-30T21:59:55Z</time>
        <name>WPT.1046</name>
      </trkpt>
      <trkpt lat="35.084522000" lon="-106.442977000">
        <ele>2002.000</ele>
        <time>2017-03-30T21:59:57Z</time>
        <name>WPT.1047</name>
      </trkpt>
      <trkpt lat="35.084475000" lon="-106.442971000">
        <ele>2002.000</ele>
        <time>2017-03-30T22:00:00Z</time>
        <name>WPT.1048</name>
      </trkpt>
      <trkpt lat="35.084437000" lon="-106.442967000">
        <ele>2003.000</ele>
        <time>2017-03-30T22:00:03Z</time>
        <name>WPT.1049</name>
      </trkpt>
      <trkpt lat="35.084398000" lon="-106.442982000">
        <ele>2004.000</ele>
        <time>2017-03-30T22:00:06Z</time>
        <name>WPT.1050</name>
      </trkpt>
      <trkpt lat="35.084358000" lon="-106.443002000">
        <ele>2004.000</ele>
        <time>2017-03-30T22:00:10Z</time>
        <name>WPT.1051</name>
      </trkpt>
      <trkpt lat="35.084320000" lon="-106.442990000">
        <ele>2003.000</ele>
        <time>2017-03-30T22:00:15Z</time>
        <name>WPT.1052</name>
      </trkpt>
      <trkpt lat="35.084284000" lon="-106.442970000">
        <ele>2005.000</ele>
        <time>2017-03-30T22:00:18Z</time>
        <name>WPT.1053</name>
      </trkpt>
      <trkpt lat="35.084270000" lon="-106.442930000">
        <ele>2003.000</ele>
        <time>2017-03-30T22:00:26Z</time>
        <name>WPT.1054</name>
      </trkpt>
      <trkpt lat="35.084230000" lon="-106.442935000">
        <ele>2002.000</ele>
        <time>2017-03-30T22:01:01Z</time>
        <name>WPT.1055</name>
      </trkpt>
      <trkpt lat="35.084186000" lon="-106.442935000">
        <ele>2003.000</ele>
        <time>2017-03-30T22:01:05Z</time>
        <name>WPT.1056</name>
      </trkpt>
      <trkpt lat="35.084140000" lon="-106.442925000">
        <ele>2004.000</ele>
        <time>2017-03-30T22:01:11Z</time>
        <name>WPT.1057</name>
      </trkpt>
      <trkpt lat="35.084101000" lon="-106.442928000">
        <ele>2002.000</ele>
        <time>2017-03-30T22:01:15Z</time>
        <name>WPT.1058</name>
      </trkpt>
      <trkpt lat="35.084062000" lon="-106.442950000">
        <ele>2003.000</ele>
        <time>2017-03-30T22:01:20Z</time>
        <name>WPT.1059</name>
      </trkpt>
      <trkpt lat="35.084035000" lon="-106.442984000">
        <ele>2002.000</ele>
        <time>2017-03-30T22:01:23Z</time>
        <name>WPT.1060</name>
      </trkpt>
      <trkpt lat="35.083996000" lon="-106.442988000">
        <ele>2003.000</ele>
        <time>2017-03-30T22:01:27Z</time>
        <name>WPT.1061</name>
      </trkpt>
      <trkpt lat="35.083955000" lon="-106.442988000">
        <ele>2004.000</ele>
        <time>2017-03-30T22:01:30Z</time>
        <name>WPT.1062</name>
      </trkpt>
      <trkpt lat="35.083914000" lon="-106.443007000">
        <ele>2001.000</ele>
        <time>2017-03-30T22:01:34Z</time>
        <name>WPT.1063</name>
      </trkpt>
      <trkpt lat="35.083876000" lon="-106.443008000">
        <ele>2003.000</ele>
        <time>2017-03-30T22:01:37Z</time>
        <name>WPT.1064</name>
      </trkpt>
      <trkpt lat="35.083834000" lon="-106.443009000">
        <ele>2004.000</ele>
        <time>2017-03-30T22:01:40Z</time>
        <name>WPT.1065</name>
      </trkpt>
      <trkpt lat="35.083797000" lon="-106.443017000">
        <ele>1999.000</ele>
        <time>2017-03-30T22:01:43Z</time>
        <name>WPT.1066</name>
      </trkpt>
      <trkpt lat="35.083745000" lon="-106.443029000">
        <ele>1999.000</ele>
        <time>2017-03-30T22:01:46Z</time>
        <name>WPT.1067</name>
      </trkpt>
      <trkpt lat="35.083707000" lon="-106.443052000">
        <ele>2000.000</ele>
        <time>2017-03-30T22:01:51Z</time>
        <name>WPT.1068</name>
      </trkpt>
      <trkpt lat="35.083661000" lon="-106.443076000">
        <ele>1998.000</ele>
        <time>2017-03-30T22:01:55Z</time>
        <name>WPT.1069</name>
      </trkpt>
      <trkpt lat="35.083631000" lon="-106.443114000">
        <ele>1995.000</ele>
        <time>2017-03-30T22:01:58Z</time>
        <name>WPT.1070</name>
      </trkpt>
      <trkpt lat="35.083591000" lon="-106.443128000">
        <ele>1994.000</ele>
        <time>2017-03-30T22:02:01Z</time>
        <name>WPT.1071</name>
      </trkpt>
      <trkpt lat="35.083556000" lon="-106.443139000">
        <ele>1993.000</ele>
        <time>2017-03-30T22:02:04Z</time>
        <name>WPT.1072</name>
      </trkpt>
      <trkpt lat="35.083517000" lon="-106.443160000">
        <ele>1991.000</ele>
        <time>2017-03-30T22:02:08Z</time>
        <name>WPT.1073</name>
      </trkpt>
      <trkpt lat="35.083477000" lon="-106.443192000">
        <ele>1990.000</ele>
        <time>2017-03-30T22:02:12Z</time>
        <name>WPT.1074</name>
      </trkpt>
      <trkpt lat="35.083433000" lon="-106.443206000">
        <ele>1992.000</ele>
        <time>2017-03-30T22:02:17Z</time>
        <name>WPT.1075</name>
      </trkpt>
      <trkpt lat="35.083397000" lon="-106.443230000">
        <ele>1990.000</ele>
        <time>2017-03-30T22:02:21Z</time>
        <name>WPT.1076</name>
      </trkpt>
      <trkpt lat="35.083355000" lon="-106.443254000">
        <ele>1986.000</ele>
        <time>2017-03-30T22:02:26Z</time>
        <name>WPT.1077</name>
      </trkpt>
      <trkpt lat="35.083326000" lon="-106.443280000">
        <ele>1988.000</ele>
        <time>2017-03-30T22:02:29Z</time>
        <name>WPT.1078</name>
      </trkpt>
      <trkpt lat="35.083294000" lon="-106.443313000">
        <ele>1987.000</ele>
        <time>2017-03-30T22:02:32Z</time>
        <name>WPT.1079</name>
      </trkpt>
      <trkpt lat="35.083264000" lon="-106.443337000">
        <ele>1988.000</ele>
        <time>2017-03-30T22:02:35Z</time>
        <name>WPT.1080</name>
      </trkpt>
      <trkpt lat="35.083233000" lon="-106.443364000">
        <ele>1987.000</ele>
        <time>2017-03-30T22:02:38Z</time>
        <name>WPT.1081</name>
      </trkpt>
      <trkpt lat="35.083197000" lon="-106.443388000">
        <ele>1987.000</ele>
        <time>2017-03-30T22:02:41Z</time>
        <name>WPT.1082</name>
      </trkpt>
      <trkpt lat="35.083151000" lon="-106.443403000">
        <ele>1988.000</ele>
        <time>2017-03-30T22:02:45Z</time>
        <name>WPT.1083</name>
      </trkpt>
      <trkpt lat="35.083110000" lon="-106.443435000">
        <ele>1988.000</ele>
        <time>2017-03-30T22:02:48Z</time>
        <name>WPT.1084</name>
      </trkpt>
      <trkpt lat="35.083077000" lon="-106.443462000">
        <ele>1987.000</ele>
        <time>2017-03-30T22:02:51Z</time>
        <name>WPT.1085</name>
      </trkpt>
      <trkpt lat="35.083034000" lon="-106.443474000">
        <ele>1987.000</ele>
        <time>2017-03-30T22:02:55Z</time>
        <name>WPT.1086</name>
      </trkpt>
      <trkpt lat="35.082988000" lon="-106.443490000">
        <ele>1987.000</ele>
        <time>2017-03-30T22:02:58Z</time>
        <name>WPT.1087</name>
      </trkpt>
      <trkpt lat="35.082944000" lon="-106.443507000">
        <ele>1988.000</ele>
        <time>2017-03-30T22:03:03Z</time>
        <name>WPT.1088</name>
      </trkpt>
      <trkpt lat="35.082908000" lon="-106.443521000">
        <ele>1988.000</ele>
        <time>2017-03-30T22:03:06Z</time>
        <name>WPT.1089</name>
      </trkpt>
      <trkpt lat="35.082880000" lon="-106.443548000">
        <ele>1988.000</ele>
        <time>2017-03-30T22:03:09Z</time>
        <name>WPT.1090</name>
      </trkpt>
      <trkpt lat="35.082848000" lon="-106.443585000">
        <ele>1986.000</ele>
        <time>2017-03-30T22:03:12Z</time>
        <name>WPT.1091</name>
      </trkpt>
      <trkpt lat="35.082811000" lon="-106.443616000">
        <ele>1984.000</ele>
        <time>2017-03-30T22:03:15Z</time>
        <name>WPT.1092</name>
      </trkpt>
      <trkpt lat="35.082764000" lon="-106.443640000">
        <ele>1986.000</ele>
        <time>2017-03-30T22:03:19Z</time>
        <name>WPT.1093</name>
      </trkpt>
      <trkpt lat="35.082723000" lon="-106.443656000">
        <ele>1986.000</ele>
        <time>2017-03-30T22:03:22Z</time>
        <name>WPT.1094</name>
      </trkpt>
      <trkpt lat="35.082690000" lon="-106.443679000">
        <ele>1985.000</ele>
        <time>2017-03-30T22:03:25Z</time>
        <name>WPT.1095</name>
      </trkpt>
      <trkpt lat="35.082650000" lon="-106.443660000">
        <ele>1986.000</ele>
        <time>2017-03-30T22:03:29Z</time>
        <name>WPT.1096</name>
      </trkpt>
      <trkpt lat="35.082619000" lon="-106.443632000">
        <ele>1986.000</ele>
        <time>2017-03-30T22:03:33Z</time>
        <name>WPT.1097</name>
      </trkpt>
      <trkpt lat="35.082584000" lon="-106.443617000">
        <ele>1983.000</ele>
        <time>2017-03-30T22:03:38Z</time>
        <name>WPT.1098</name>
      </trkpt>
      <trkpt lat="35.082548000" lon="-106.443621000">
        <ele>1984.000</ele>
        <time>2017-03-30T22:03:43Z</time>
        <name>WPT.1099</name>
      </trkpt>
      <trkpt lat="35.082513000" lon="-106.443596000">
        <ele>1984.000</ele>
        <time>2017-03-30T22:03:47Z</time>
        <name>WPT.1100</name>
      </trkpt>
      <trkpt lat="35.082479000" lon="-106.443578000">
        <ele>1985.000</ele>
        <time>2017-03-30T22:03:50Z</time>
        <name>WPT.1101</name>
      </trkpt>
      <trkpt lat="35.082440000" lon="-106.443573000">
        <ele>1984.000</ele>
        <time>2017-03-30T22:03:53Z</time>
        <name>WPT.1102</name>
      </trkpt>
      <trkpt lat="35.082404000" lon="-106.443549000">
        <ele>1984.000</ele>
        <time>2017-03-30T22:03:58Z</time>
        <name>WPT.1103</name>
      </trkpt>
      <trkpt lat="35.082370000" lon="-106.443524000">
        <ele>1983.000</ele>
        <time>2017-03-30T22:04:01Z</time>
        <name>WPT.1104</name>
      </trkpt>
      <trkpt lat="35.082333000" lon="-106.443494000">
        <ele>1981.000</ele>
        <time>2017-03-30T22:04:06Z</time>
        <name>WPT.1105</name>
      </trkpt>
      <trkpt lat="35.082292000" lon="-106.443470000">
        <ele>1977.000</ele>
        <time>2017-03-30T22:04:10Z</time>
        <name>WPT.1106</name>
      </trkpt>
      <trkpt lat="35.082254000" lon="-106.443457000">
        <ele>1976.000</ele>
        <time>2017-03-30T22:04:14Z</time>
        <name>WPT.1107</name>
      </trkpt>
      <trkpt lat="35.082203000" lon="-106.443465000">
        <ele>1972.000</ele>
        <time>2017-03-30T22:04:17Z</time>
        <name>WPT.1108</name>
      </trkpt>
      <trkpt lat="35.082158000" lon="-106.443473000">
        <ele>1974.000</ele>
        <time>2017-03-30T22:04:21Z</time>
        <name>WPT.1109</name>
      </trkpt>
      <trkpt lat="35.082114000" lon="-106.443474000">
        <ele>1975.000</ele>
        <time>2017-03-30T22:04:25Z</time>
        <name>WPT.1110</name>
      </trkpt>
      <trkpt lat="35.082074000" lon="-106.443476000">
        <ele>1976.000</ele>
        <time>2017-03-30T22:04:30Z</time>
        <name>WPT.1111</name>
      </trkpt>
      <trkpt lat="35.082039000" lon="-106.443462000">
        <ele>1976.000</ele>
        <time>2017-03-30T22:04:33Z</time>
        <name>WPT.1112</name>
      </trkpt>
      <trkpt lat="35.081980000" lon="-106.443464000">
        <ele>1973.000</ele>
        <time>2017-03-30T22:04:37Z</time>
        <name>WPT.1113</name>
      </trkpt>
      <trkpt lat="35.081943000" lon="-106.443444000">
        <ele>1972.000</ele>
        <time>2017-03-30T22:04:41Z</time>
        <name>WPT.1114</name>
      </trkpt>
      <trkpt lat="35.081902000" lon="-106.443442000">
        <ele>1972.000</ele>
        <time>2017-03-30T22:04:44Z</time>
        <name>WPT.1115</name>
      </trkpt>
      <trkpt lat="35.081864000" lon="-106.443450000">
        <ele>1971.000</ele>
        <time>2017-03-30T22:04:47Z</time>
        <name>WPT.1116</name>
      </trkpt>
      <trkpt lat="35.081818000" lon="-106.443438000">
        <ele>1972.000</ele>
        <time>2017-03-30T22:04:51Z</time>
        <name>WPT.1117</name>
      </trkpt>
      <trkpt lat="35.081767000" lon="-106.443439000">
        <ele>1972.000</ele>
        <time>2017-03-30T22:04:55Z</time>
        <name>WPT.1118</name>
      </trkpt>
      <trkpt lat="35.081729000" lon="-106.443453000">
        <ele>1970.000</ele>
        <time>2017-03-30T22:04:58Z</time>
        <name>WPT.1119</name>
      </trkpt>
      <trkpt lat="35.081688000" lon="-106.443471000">
        <ele>1970.000</ele>
        <time>2017-03-30T22:05:02Z</time>
        <name>WPT.1120</name>
      </trkpt>
      <trkpt lat="35.081647000" lon="-106.443470000">
        <ele>1970.000</ele>
        <time>2017-03-30T22:05:05Z</time>
        <name>WPT.1121</name>
      </trkpt>
      <trkpt lat="35.081605000" lon="-106.443462000">
        <ele>1971.000</ele>
        <time>2017-03-30T22:05:09Z</time>
        <name>WPT.1122</name>
      </trkpt>
      <trkpt lat="35.081558000" lon="-106.443451000">
        <ele>1973.000</ele>
        <time>2017-03-30T22:05:12Z</time>
        <name>WPT.1123</name>
      </trkpt>
      <trkpt lat="35.081513000" lon="-106.443460000">
        <ele>1973.000</ele>
        <time>2017-03-30T22:05:15Z</time>
        <name>WPT.1124</name>
      </trkpt>
      <trkpt lat="35.081475000" lon="-106.443485000">
        <ele>1972.000</ele>
        <time>2017-03-30T22:05:20Z</time>
        <name>WPT.1125</name>
      </trkpt>
      <trkpt lat="35.081444000" lon="-106.443511000">
        <ele>1969.000</ele>
        <time>2017-03-30T22:05:23Z</time>
        <name>WPT.1126</name>
      </trkpt>
      <trkpt lat="35.081411000" lon="-106.443552000">
        <ele>1968.000</ele>
        <time>2017-03-30T22:05:26Z</time>
        <name>WPT.1127</name>
      </trkpt>
      <trkpt lat="35.081380000" lon="-106.443581000">
        <ele>1967.000</ele>
        <time>2017-03-30T22:05:30Z</time>
        <name>WPT.1128</name>
      </trkpt>
      <trkpt lat="35.081346000" lon="-106.443625000">
        <ele>1967.000</ele>
        <time>2017-03-30T22:05:34Z</time>
        <name>WPT.1129</name>
      </trkpt>
      <trkpt lat="35.081328000" lon="-106.443663000">
        <ele>1964.000</ele>
        <time>2017-03-30T22:05:37Z</time>
        <name>WPT.1130</name>
      </trkpt>
      <trkpt lat="35.081299000" lon="-106.443703000">
        <ele>1963.000</ele>
        <time>2017-03-30T22:05:40Z</time>
        <name>WPT.1131</name>
      </trkpt>
      <trkpt lat="35.081267000" lon="-106.443725000">
        <ele>1962.000</ele>
        <time>2017-03-30T22:05:43Z</time>
        <name>WPT.1132</name>
      </trkpt>
      <trkpt lat="35.081222000" lon="-106.443725000">
        <ele>1963.000</ele>
        <time>2017-03-30T22:05:47Z</time>
        <name>WPT.1133</name>
      </trkpt>
      <trkpt lat="35.081185000" lon="-106.443726000">
        <ele>1964.000</ele>
        <time>2017-03-30T22:05:50Z</time>
        <name>WPT.1134</name>
      </trkpt>
      <trkpt lat="35.081141000" lon="-106.443739000">
        <ele>1964.000</ele>
        <time>2017-03-30T22:05:55Z</time>
        <name>WPT.1135</name>
      </trkpt>
      <trkpt lat="35.081101000" lon="-106.443765000">
        <ele>1963.000</ele>
        <time>2017-03-30T22:05:59Z</time>
        <name>WPT.1136</name>
      </trkpt>
      <trkpt lat="35.081067000" lon="-106.443785000">
        <ele>1963.000</ele>
        <time>2017-03-30T22:06:03Z</time>
        <name>WPT.1137</name>
      </trkpt>
      <trkpt lat="35.081033000" lon="-106.443803000">
        <ele>1961.000</ele>
        <time>2017-03-30T22:06:15Z</time>
        <name>WPT.1138</name>
      </trkpt>
      <trkpt lat="35.080990000" lon="-106.443803000">
        <ele>1963.000</ele>
        <time>2017-03-30T22:06:19Z</time>
        <name>WPT.1139</name>
      </trkpt>
      <trkpt lat="35.080945000" lon="-106.443790000">
        <ele>1965.000</ele>
        <time>2017-03-30T22:06:24Z</time>
        <name>WPT.1140</name>
      </trkpt>
      <trkpt lat="35.080915000" lon="-106.443818000">
        <ele>1963.000</ele>
        <time>2017-03-30T22:06:30Z</time>
        <name>WPT.1141</name>
      </trkpt>
      <trkpt lat="35.080868000" lon="-106.443817000">
        <ele>1961.000</ele>
        <time>2017-03-30T22:06:37Z</time>
        <name>WPT.1142</name>
      </trkpt>
      <trkpt lat="35.080824000" lon="-106.443815000">
        <ele>1961.000</ele>
        <time>2017-03-30T22:06:42Z</time>
        <name>WPT.1143</name>
      </trkpt>
      <trkpt lat="35.080785000" lon="-106.443829000">
        <ele>1965.000</ele>
        <time>2017-03-30T22:06:45Z</time>
        <name>WPT.1144</name>
      </trkpt>
      <trkpt lat="35.080748000" lon="-106.443840000">
        <ele>1964.000</ele>
        <time>2017-03-30T22:06:47Z</time>
        <name>WPT.1145</name>
      </trkpt>
      <trkpt lat="35.080706000" lon="-106.443864000">
        <ele>1961.000</ele>
        <time>2017-03-30T22:07:21Z</time>
        <name>WPT.1146</name>
      </trkpt>
      <trkpt lat="35.080666000" lon="-106.443873000">
        <ele>1960.000</ele>
        <time>2017-03-30T22:07:24Z</time>
        <name>WPT.1147</name>
      </trkpt>
      <trkpt lat="35.080627000" lon="-106.443886000">
        <ele>1959.000</ele>
        <time>2017-03-30T22:07:29Z</time>
        <name>WPT.1148</name>
      </trkpt>
      <trkpt lat="35.080591000" lon="-106.443917000">
        <ele>1956.000</ele>
        <time>2017-03-30T22:07:54Z</time>
        <name>WPT.1149</name>
      </trkpt>
      <trkpt lat="35.080552000" lon="-106.443939000">
        <ele>1957.000</ele>
        <time>2017-03-30T22:07:59Z</time>
        <name>WPT.1150</name>
      </trkpt>
      <trkpt lat="35.080507000" lon="-106.443969000">
        <ele>1956.000</ele>
        <time>2017-03-30T22:08:03Z</time>
        <name>WPT.1151</name>
      </trkpt>
      <trkpt lat="35.080474000" lon="-106.443999000">
        <ele>1954.000</ele>
        <time>2017-03-30T22:08:06Z</time>
        <name>WPT.1152</name>
      </trkpt>
      <trkpt lat="35.080446000" lon="-106.444041000">
        <ele>1955.000</ele>
        <time>2017-03-30T22:08:10Z</time>
        <name>WPT.1153</name>
      </trkpt>
      <trkpt lat="35.080415000" lon="-106.444089000">
        <ele>1956.000</ele>
        <time>2017-03-30T22:08:14Z</time>
        <name>WPT.1154</name>
      </trkpt>
      <trkpt lat="35.080388000" lon="-106.444126000">
        <ele>1957.000</ele>
        <time>2017-03-30T22:08:18Z</time>
        <name>WPT.1155</name>
      </trkpt>
      <trkpt lat="35.080358000" lon="-106.444160000">
        <ele>1956.000</ele>
        <time>2017-03-30T22:08:21Z</time>
        <name>WPT.1156</name>
      </trkpt>
      <trkpt lat="35.080318000" lon="-106.444186000">
        <ele>1955.000</ele>
        <time>2017-03-30T22:08:25Z</time>
        <name>WPT.1157</name>
      </trkpt>
      <trkpt lat="35.080280000" lon="-106.444206000">
        <ele>1954.000</ele>
        <time>2017-03-30T22:08:28Z</time>
        <name>WPT.1158</name>
      </trkpt>
      <trkpt lat="35.080237000" lon="-106.444232000">
        <ele>1954.000</ele>
        <time>2017-03-30T22:08:34Z</time>
        <name>WPT.1159</name>
      </trkpt>
      <trkpt lat="35.080220000" lon="-106.444281000">
        <ele>1955.000</ele>
        <time>2017-03-30T22:08:38Z</time>
        <name>WPT.1160</name>
      </trkpt>
      <trkpt lat="35.080198000" lon="-106.444238000">
        <ele>1954.000</ele>
        <time>2017-03-30T22:09:30Z</time>
        <name>WPT.1161</name>
      </trkpt>
      <trkpt lat="35.080159000" lon="-106.444253000">
        <ele>1954.000</ele>
        <time>2017-03-30T22:09:34Z</time>
        <name>WPT.1162</name>
      </trkpt>
      <trkpt lat="35.080109000" lon="-106.444300000">
        <ele>1952.000</ele>
        <time>2017-03-30T22:09:38Z</time>
        <name>WPT.1163</name>
      </trkpt>
      <trkpt lat="35.080070000" lon="-106.444326000">
        <ele>1953.000</ele>
        <time>2017-03-30T22:09:40Z</time>
        <name>WPT.1164</name>
      </trkpt>
      <trkpt lat="35.080033000" lon="-106.444349000">
        <ele>1953.000</ele>
        <time>2017-03-30T22:09:42Z</time>
        <name>WPT.1165</name>
      </trkpt>
      <trkpt lat="35.079990000" lon="-106.444348000">
        <ele>1952.000</ele>
        <time>2017-03-30T22:09:48Z</time>
        <name>WPT.1166</name>
      </trkpt>
      <trkpt lat="35.079943000" lon="-106.444353000">
        <ele>1952.000</ele>
        <time>2017-03-30T22:09:51Z</time>
        <name>WPT.1167</name>
      </trkpt>
      <trkpt lat="35.079896000" lon="-106.444364000">
        <ele>1953.000</ele>
        <time>2017-03-30T22:09:54Z</time>
        <name>WPT.1168</name>
      </trkpt>
      <trkpt lat="35.079853000" lon="-106.444371000">
        <ele>1952.000</ele>
        <time>2017-03-30T22:09:56Z</time>
        <name>WPT.1169</name>
      </trkpt>
      <trkpt lat="35.079817000" lon="-106.444373000">
        <ele>1952.000</ele>
        <time>2017-03-30T22:10:03Z</time>
        <name>WPT.1170</name>
      </trkpt>
      <trkpt lat="35.079780000" lon="-106.444395000">
        <ele>1952.000</ele>
        <time>2017-03-30T22:10:05Z</time>
        <name>WPT.1171</name>
      </trkpt>
      <trkpt lat="35.079745000" lon="-106.444421000">
        <ele>1949.000</ele>
        <time>2017-03-30T22:10:07Z</time>
        <name>WPT.1172</name>
      </trkpt>
      <trkpt lat="35.079703000" lon="-106.444443000">
        <ele>1950.000</ele>
        <time>2017-03-30T22:10:10Z</time>
        <name>WPT.1173</name>
      </trkpt>
      <trkpt lat="35.079662000" lon="-106.444447000">
        <ele>1950.000</ele>
        <time>2017-03-30T22:10:12Z</time>
        <name>WPT.1174</name>
      </trkpt>
      <trkpt lat="35.079623000" lon="-106.444434000">
        <ele>1951.000</ele>
        <time>2017-03-30T22:10:14Z</time>
        <name>WPT.1175</name>
      </trkpt>
      <trkpt lat="35.079572000" lon="-106.444435000">
        <ele>1950.000</ele>
        <time>2017-03-30T22:10:21Z</time>
        <name>WPT.1176</name>
      </trkpt>
      <trkpt lat="35.079535000" lon="-106.444428000">
        <ele>1951.000</ele>
        <time>2017-03-30T22:10:24Z</time>
        <name>WPT.1177</name>
      </trkpt>
      <trkpt lat="35.079491000" lon="-106.444401000">
        <ele>1952.000</ele>
        <time>2017-03-30T22:10:29Z</time>
        <name>WPT.1178</name>
      </trkpt>
      <trkpt lat="35.079451000" lon="-106.444377000">
        <ele>1954.000</ele>
        <time>2017-03-30T22:10:35Z</time>
        <name>WPT.1179</name>
      </trkpt>
      <trkpt lat="35.079419000" lon="-106.444353000">
        <ele>1954.000</ele>
        <time>2017-03-30T22:10:37Z</time>
        <name>WPT.1180</name>
      </trkpt>
      <trkpt lat="35.079371000" lon="-106.444333000">
        <ele>1953.000</ele>
        <time>2017-03-30T22:10:40Z</time>
        <name>WPT.1181</name>
      </trkpt>
      <trkpt lat="35.079333000" lon="-106.444341000">
        <ele>1954.000</ele>
        <time>2017-03-30T22:10:42Z</time>
        <name>WPT.1182</name>
      </trkpt>
      <trkpt lat="35.079286000" lon="-106.444339000">
        <ele>1954.000</ele>
        <time>2017-03-30T22:10:44Z</time>
        <name>WPT.1183</name>
      </trkpt>
      <trkpt lat="35.079252000" lon="-106.444321000">
        <ele>1953.000</ele>
        <time>2017-03-30T22:10:48Z</time>
        <name>WPT.1184</name>
      </trkpt>
      <trkpt lat="35.079214000" lon="-106.444356000">
        <ele>1946.000</ele>
        <time>2017-03-30T22:10:51Z</time>
        <name>WPT.1185</name>
      </trkpt>
      <trkpt lat="35.079169000" lon="-106.444386000">
        <ele>1944.000</ele>
        <time>2017-03-30T22:10:53Z</time>
        <name>WPT.1186</name>
      </trkpt>
      <trkpt lat="35.079132000" lon="-106.444413000">
        <ele>1942.000</ele>
        <time>2017-03-30T22:10:55Z</time>
        <name>WPT.1187</name>
      </trkpt>
      <trkpt lat="35.079096000" lon="-106.444437000">
        <ele>1939.000</ele>
        <time>2017-03-30T22:10:58Z</time>
        <name>WPT.1188</name>
      </trkpt>
      <trkpt lat="35.079052000" lon="-106.444463000">
        <ele>1941.000</ele>
        <time>2017-03-30T22:11:01Z</time>
        <name>WPT.1189</name>
      </trkpt>
      <trkpt lat="35.079014000" lon="-106.444467000">
        <ele>1940.000</ele>
        <time>2017-03-30T22:11:11Z</time>
        <name>WPT.1190</name>
      </trkpt>
      <trkpt lat="35.078977000" lon="-106.444471000">
        <ele>1938.000</ele>
        <time>2017-03-30T22:11:15Z</time>
        <name>WPT.1191</name>
      </trkpt>
      <trkpt lat="35.078937000" lon="-106.444482000">
        <ele>1938.000</ele>
        <time>2017-03-30T22:11:18Z</time>
        <name>WPT.1192</name>
      </trkpt>
      <trkpt lat="35.078895000" lon="-106.444500000">
        <ele>1937.000</ele>
        <time>2017-03-30T22:11:21Z</time>
        <name>WPT.1193</name>
      </trkpt>
      <trkpt lat="35.078864000" lon="-106.444539000">
        <ele>1935.000</ele>
        <time>2017-03-30T22:11:28Z</time>
        <name>WPT.1194</name>
      </trkpt>
      <trkpt lat="35.078815000" lon="-106.444534000">
        <ele>1935.000</ele>
        <time>2017-03-30T22:11:32Z</time>
        <name>WPT.1195</name>
      </trkpt>
      <trkpt lat="35.078766000" lon="-106.444527000">
        <ele>1938.000</ele>
        <time>2017-03-30T22:11:36Z</time>
        <name>WPT.1196</name>
      </trkpt>
      <trkpt lat="35.078722000" lon="-106.444524000">
        <ele>1939.000</ele>
        <time>2017-03-30T22:11:39Z</time>
        <name>WPT.1197</name>
      </trkpt>
      <trkpt lat="35.078678000" lon="-106.444516000">
        <ele>1933.000</ele>
        <time>2017-03-30T22:11:42Z</time>
        <name>WPT.1198</name>
      </trkpt>
      <trkpt lat="35.078633000" lon="-106.444507000">
        <ele>1938.000</ele>
        <time>2017-03-30T22:11:49Z</time>
        <name>WPT.1199</name>
      </trkpt>
      <trkpt lat="35.078595000" lon="-106.444525000">
        <ele>1939.000</ele>
        <time>2017-03-30T22:11:53Z</time>
        <name>WPT.1200</name>
      </trkpt>
      <trkpt lat="35.078559000" lon="-106.444538000">
        <ele>1939.000</ele>
        <time>2017-03-30T22:11:56Z</time>
        <name>WPT.1201</name>
      </trkpt>
      <trkpt lat="35.078518000" lon="-106.444551000">
        <ele>1940.000</ele>
        <time>2017-03-30T22:11:59Z</time>
        <name>WPT.1202</name>
      </trkpt>
      <trkpt lat="35.078474000" lon="-106.444546000">
        <ele>1938.000</ele>
        <time>2017-03-30T22:12:03Z</time>
        <name>WPT.1203</name>
      </trkpt>
      <trkpt lat="35.078435000" lon="-106.444548000">
        <ele>1939.000</ele>
        <time>2017-03-30T22:12:06Z</time>
        <name>WPT.1204</name>
      </trkpt>
      <trkpt lat="35.078392000" lon="-106.444534000">
        <ele>1940.000</ele>
        <time>2017-03-30T22:12:11Z</time>
        <name>WPT.1205</name>
      </trkpt>
      <trkpt lat="35.078350000" lon="-106.444541000">
        <ele>1939.000</ele>
        <time>2017-03-30T22:12:14Z</time>
        <name>WPT.1206</name>
      </trkpt>
      <trkpt lat="35.078303000" lon="-106.444552000">
        <ele>1939.000</ele>
        <time>2017-03-30T22:12:18Z</time>
        <name>WPT.1207</name>
      </trkpt>
      <trkpt lat="35.078265000" lon="-106.444563000">
        <ele>1937.000</ele>
        <time>2017-03-30T22:12:21Z</time>
        <name>WPT.1208</name>
      </trkpt>
      <trkpt lat="35.078223000" lon="-106.444569000">
        <ele>1935.000</ele>
        <time>2017-03-30T22:12:25Z</time>
        <name>WPT.1209</name>
      </trkpt>
      <trkpt lat="35.078178000" lon="-106.444576000">
        <ele>1937.000</ele>
        <time>2017-03-30T22:12:29Z</time>
        <name>WPT.1210</name>
      </trkpt>
      <trkpt lat="35.078130000" lon="-106.444595000">
        <ele>1934.000</ele>
        <time>2017-03-30T22:12:34Z</time>
        <name>WPT.1211</name>
      </trkpt>
      <trkpt lat="35.078089000" lon="-106.444619000">
        <ele>1935.000</ele>
        <time>2017-03-30T22:12:38Z</time>
        <name>WPT.1212</name>
      </trkpt>
      <trkpt lat="35.078044000" lon="-106.444631000">
        <ele>1933.000</ele>
        <time>2017-03-30T22:12:43Z</time>
        <name>WPT.1213</name>
      </trkpt>
      <trkpt lat="35.077996000" lon="-106.444647000">
        <ele>1932.000</ele>
        <time>2017-03-30T22:12:46Z</time>
        <name>WPT.1214</name>
      </trkpt>
      <trkpt lat="35.077951000" lon="-106.444649000">
        <ele>1932.000</ele>
        <time>2017-03-30T22:12:50Z</time>
        <name>WPT.1215</name>
      </trkpt>
      <trkpt lat="35.077910000" lon="-106.444639000">
        <ele>1931.000</ele>
        <time>2017-03-30T22:12:53Z</time>
        <name>WPT.1216</name>
      </trkpt>
      <trkpt lat="35.077860000" lon="-106.444643000">
        <ele>1928.000</ele>
        <time>2017-03-30T22:12:57Z</time>
        <name>WPT.1217</name>
      </trkpt>
      <trkpt lat="35.077830000" lon="-106.444680000">
        <ele>1929.000</ele>
        <time>2017-03-30T22:13:00Z</time>
        <name>WPT.1218</name>
      </trkpt>
      <trkpt lat="35.077786000" lon="-106.444688000">
        <ele>1930.000</ele>
        <time>2017-03-30T22:13:05Z</time>
        <name>WPT.1219</name>
      </trkpt>
      <trkpt lat="35.077758000" lon="-106.444653000">
        <ele>1930.000</ele>
        <time>2017-03-30T22:13:08Z</time>
        <name>WPT.1220</name>
      </trkpt>
      <trkpt lat="35.077724000" lon="-106.444610000">
        <ele>1925.000</ele>
        <time>2017-03-30T22:13:12Z</time>
        <name>WPT.1221</name>
      </trkpt>
      <trkpt lat="35.077697000" lon="-106.444577000">
        <ele>1923.000</ele>
        <time>2017-03-30T22:13:15Z</time>
        <name>WPT.1222</name>
      </trkpt>
      <trkpt lat="35.077669000" lon="-106.444545000">
        <ele>1926.000</ele>
        <time>2017-03-30T22:13:19Z</time>
        <name>WPT.1223</name>
      </trkpt>
      <trkpt lat="35.077636000" lon="-106.444522000">
        <ele>1926.000</ele>
        <time>2017-03-30T22:13:22Z</time>
        <name>WPT.1224</name>
      </trkpt>
      <trkpt lat="35.077611000" lon="-106.444482000">
        <ele>1925.000</ele>
        <time>2017-03-30T22:13:28Z</time>
        <name>WPT.1225</name>
      </trkpt>
      <trkpt lat="35.077573000" lon="-106.444459000">
        <ele>1923.000</ele>
        <time>2017-03-30T22:13:32Z</time>
        <name>WPT.1226</name>
      </trkpt>
      <trkpt lat="35.077532000" lon="-106.444457000">
        <ele>1919.000</ele>
        <time>2017-03-30T22:13:35Z</time>
        <name>WPT.1227</name>
      </trkpt>
      <trkpt lat="35.077493000" lon="-106.444441000">
        <ele>1919.000</ele>
        <time>2017-03-30T22:13:38Z</time>
        <name>WPT.1228</name>
      </trkpt>
      <trkpt lat="35.077457000" lon="-106.444404000">
        <ele>1919.000</ele>
        <time>2017-03-30T22:13:43Z</time>
        <name>WPT.1229</name>
      </trkpt>
      <trkpt lat="35.077420000" lon="-106.444401000">
        <ele>1920.000</ele>
        <time>2017-03-30T22:13:47Z</time>
        <name>WPT.1230</name>
      </trkpt>
      <trkpt lat="35.077381000" lon="-106.444388000">
        <ele>1919.000</ele>
        <time>2017-03-30T22:13:52Z</time>
        <name>WPT.1231</name>
      </trkpt>
      <trkpt lat="35.077340000" lon="-106.444377000">
        <ele>1920.000</ele>
        <time>2017-03-30T22:13:56Z</time>
        <name>WPT.1232</name>
      </trkpt>
      <trkpt lat="35.077306000" lon="-106.444357000">
        <ele>1920.000</ele>
        <time>2017-03-30T22:14:00Z</time>
        <name>WPT.1233</name>
      </trkpt>
      <trkpt lat="35.077264000" lon="-106.444344000">
        <ele>1921.000</ele>
        <time>2017-03-30T22:14:04Z</time>
        <name>WPT.1234</name>
      </trkpt>
      <trkpt lat="35.077224000" lon="-106.444348000">
        <ele>1918.000</ele>
        <time>2017-03-30T22:14:08Z</time>
        <name>WPT.1235</name>
      </trkpt>
      <trkpt lat="35.077193000" lon="-106.444318000">
        <ele>1918.000</ele>
        <time>2017-03-30T22:14:12Z</time>
        <name>WPT.1236</name>
      </trkpt>
      <trkpt lat="35.077160000" lon="-106.444295000">
        <ele>1920.000</ele>
        <time>2017-03-30T22:14:15Z</time>
        <name>WPT.1237</name>
      </trkpt>
      <trkpt lat="35.077124000" lon="-106.444270000">
        <ele>1917.000</ele>
        <time>2017-03-30T22:14:20Z</time>
        <name>WPT.1238</name>
      </trkpt>
      <trkpt lat="35.077080000" lon="-106.444251000">
        <ele>1914.000</ele>
        <time>2017-03-30T22:14:24Z</time>
        <name>WPT.1239</name>
      </trkpt>
      <trkpt lat="35.077045000" lon="-106.444228000">
        <ele>1915.000</ele>
        <time>2017-03-30T22:14:27Z</time>
        <name>WPT.1240</name>
      </trkpt>
      <trkpt lat="35.077000000" lon="-106.444198000">
        <ele>1914.000</ele>
        <time>2017-03-30T22:14:33Z</time>
        <name>WPT.1241</name>
      </trkpt>
      <trkpt lat="35.076953000" lon="-106.444203000">
        <ele>1910.000</ele>
        <time>2017-03-30T22:14:36Z</time>
        <name>WPT.1242</name>
      </trkpt>
      <trkpt lat="35.076910000" lon="-106.444200000">
        <ele>1910.000</ele>
        <time>2017-03-30T22:14:39Z</time>
        <name>WPT.1243</name>
      </trkpt>
      <trkpt lat="35.076861000" lon="-106.444199000">
        <ele>1909.000</ele>
        <time>2017-03-30T22:14:43Z</time>
        <name>WPT.1244</name>
      </trkpt>
      <trkpt lat="35.076817000" lon="-106.444186000">
        <ele>1909.000</ele>
        <time>2017-03-30T22:14:47Z</time>
        <name>WPT.1245</name>
      </trkpt>
      <trkpt lat="35.076779000" lon="-106.444189000">
        <ele>1910.000</ele>
        <time>2017-03-30T22:14:50Z</time>
        <name>WPT.1246</name>
      </trkpt>
      <trkpt lat="35.076743000" lon="-106.444192000">
        <ele>1910.000</ele>
        <time>2017-03-30T22:14:53Z</time>
        <name>WPT.1247</name>
      </trkpt>
      <trkpt lat="35.076697000" lon="-106.444185000">
        <ele>1910.000</ele>
        <time>2017-03-30T22:14:57Z</time>
        <name>WPT.1248</name>
      </trkpt>
      <trkpt lat="35.076646000" lon="-106.444204000">
        <ele>1909.000</ele>
        <time>2017-03-30T22:15:00Z</time>
        <name>WPT.1249</name>
      </trkpt>
      <trkpt lat="35.076612000" lon="-106.444226000">
        <ele>1908.000</ele>
        <time>2017-03-30T22:15:03Z</time>
        <name>WPT.1250</name>
      </trkpt>
      <trkpt lat="35.076564000" lon="-106.444232000">
        <ele>1908.000</ele>
        <time>2017-03-30T22:15:06Z</time>
        <name>WPT.1251</name>
      </trkpt>
      <trkpt lat="35.076522000" lon="-106.444224000">
        <ele>1909.000</ele>
        <time>2017-03-30T22:15:09Z</time>
        <name>WPT.1252</name>
      </trkpt>
      <trkpt lat="35.076486000" lon="-106.444212000">
        <ele>1909.000</ele>
        <time>2017-03-30T22:15:15Z</time>
        <name>WPT.1253</name>
      </trkpt>
      <trkpt lat="35.076436000" lon="-106.444207000">
        <ele>1909.000</ele>
        <time>2017-03-30T22:15:18Z</time>
        <name>WPT.1254</name>
      </trkpt>
      <trkpt lat="35.076404000" lon="-106.444165000">
        <ele>1905.000</ele>
        <time>2017-03-30T22:15:23Z</time>
        <name>WPT.1255</name>
      </trkpt>
      <trkpt lat="35.076386000" lon="-106.444123000">
        <ele>1903.000</ele>
        <time>2017-03-30T22:15:46Z</time>
        <name>WPT.1256</name>
      </trkpt>
      <trkpt lat="35.076359000" lon="-106.444112000">
        <ele>1906.000</ele>
        <time>2017-03-30T22:17:21Z</time>
        <name>WPT.1257</name>
      </trkpt>
    </trkseg>
  </trk>
</gpx>
